<?xml version='1.0' encoding='UTF-8'?><gpx version="1.1" creator="JPX - https://github.com/jenetics/jpx" xmlns="http://www.topografix.com/GPX/1/1"><trk><trkseg><trkpt lat="45.594551302728966" lon="10.134621779482613"><ele>163.99999999999997</ele><time>2026-04-14T15:52:18.004Z</time></trkpt><trkpt lat="45.59453252896662" lon="10.134526180300158"><ele>164.0</ele><time>2026-04-14T15:53:01Z</time></trkpt><trkpt lat="45.59453005833864" lon="10.134434448327545"><ele>164.0</ele><time>2026-04-14T15:54:22Z</time></trkpt><trkpt lat="45.59455119358478" lon="10.13433661899461"><ele>164.0</ele><time>2026-04-14T15:54:26Z</time></trkpt><trkpt lat="45.59457657990414" lon="10.134231648656371"><ele>164.0</ele><time>2026-04-14T15:54:30Z</time></trkpt><trkpt lat="45.59458899766352" lon="10.134143435310602"><ele>163.99999999999997</ele><time>2026-04-14T15:54:33Z</time></trkpt><trkpt lat="45.59460140445009" lon="10.134040248788912"><ele>164.0</ele><time>2026-04-14T15:54:36Z</time></trkpt><trkpt lat="45.5946311295982" lon="10.133928735530137"><ele>163.99999999999997</ele><time>2026-04-14T15:54:40Z</time></trkpt><trkpt lat="45.59464653266937" lon="10.133828644365645"><ele>164.0</ele><time>2026-04-14T15:54:43Z</time></trkpt><trkpt lat="45.59466302159687" lon="10.133735225680741"><ele>164.0</ele><time>2026-04-14T15:54:46Z</time></trkpt><trkpt lat="45.59468461729972" lon="10.133647624683"><ele>164.0</ele><time>2026-04-14T15:54:49Z</time></trkpt><trkpt lat="45.594706451151595" lon="10.13354411139496"><ele>164.0</ele><time>2026-04-14T15:54:52Z</time></trkpt><trkpt lat="45.59472304492021" lon="10.133439816885424"><ele>163.99999999999997</ele><time>2026-04-14T15:54:55.001Z</time></trkpt><trkpt lat="45.59473942835406" lon="10.133350696712016"><ele>164.0</ele><time>2026-04-14T15:54:58.001Z</time></trkpt><trkpt lat="45.59475018756582" lon="10.133240009406915"><ele>163.57142857142856</ele><time>2026-04-14T15:55:01.001Z</time></trkpt><trkpt lat="45.59476222293778" lon="10.133139429627873"><ele>163.14285714285714</ele><time>2026-04-14T15:55:04.001Z</time></trkpt><trkpt lat="45.59477966442799" lon="10.133033377554533"><ele>162.71428571428572</ele><time>2026-04-14T15:55:07.001Z</time></trkpt><trkpt lat="45.59479705693334" lon="10.13293405543289"><ele>162.28571428571428</ele><time>2026-04-14T15:55:10.001Z</time></trkpt><trkpt lat="45.59481316677683" lon="10.132822439885887"><ele>161.85714285714286</ele><time>2026-04-14T15:55:13.001Z</time></trkpt><trkpt lat="45.594831199782405" lon="10.132719802591962"><ele>161.42857142857142</ele><time>2026-04-14T15:55:16.001Z</time></trkpt><trkpt lat="45.59484963186921" lon="10.132625989417045"><ele>161.0</ele><time>2026-04-14T15:55:19.001Z</time></trkpt><trkpt lat="45.594871786439924" lon="10.132525275249215"><ele>161.0</ele><time>2026-04-14T15:55:22.001Z</time></trkpt><trkpt lat="45.59489100667118" lon="10.13242404891265"><ele>161.0</ele><time>2026-04-14T15:55:25.001Z</time></trkpt><trkpt lat="45.59489587130564" lon="10.132332472837426"><ele>161.0</ele><time>2026-04-14T15:55:27.001Z</time></trkpt><trkpt lat="45.59490805324667" lon="10.132232950174823"><ele>161.0</ele><time>2026-04-14T15:55:30.001Z</time></trkpt><trkpt lat="45.59491868751384" lon="10.132119306847226"><ele>161.0</ele><time>2026-04-14T15:55:34.001Z</time></trkpt><trkpt lat="45.59493071812937" lon="10.132025274958067"><ele>161.0</ele><time>2026-04-14T15:55:37.001Z</time></trkpt><trkpt lat="45.59496271194172" lon="10.131926401005932"><ele>161.0</ele><time>2026-04-14T15:55:40.001Z</time></trkpt><trkpt lat="45.59497886818166" lon="10.131823633581684"><ele>160.83333333333331</ele><time>2026-04-14T15:55:43.001Z</time></trkpt><trkpt lat="45.595004493403394" lon="10.13172746250993"><ele>160.66666666666666</ele><time>2026-04-14T15:55:46.001Z</time></trkpt><trkpt lat="45.5950652515448" lon="10.131659188477087"><ele>160.5</ele><time>2026-04-14T15:55:49.001Z</time></trkpt><trkpt lat="45.59512617246176" lon="10.13162474170312"><ele>160.33333333333334</ele><time>2026-04-14T15:55:52.001Z</time></trkpt><trkpt lat="45.59523902208017" lon="10.131620019310228"><ele>160.16666666666669</ele><time>2026-04-14T15:55:57.001Z</time></trkpt><trkpt lat="45.595307021585995" lon="10.131629876243903"><ele>160.0</ele><time>2026-04-14T15:56:00.001Z</time></trkpt><trkpt lat="45.595370625079575" lon="10.131647061575952"><ele>160.71428571428572</ele><time>2026-04-14T15:56:03.001Z</time></trkpt><trkpt lat="45.595445717014805" lon="10.131645185514488"><ele>161.42857142857144</ele><time>2026-04-14T15:56:06.001Z</time></trkpt><trkpt lat="45.59551006905721" lon="10.131623620159834"><ele>162.14285714285717</ele><time>2026-04-14T15:56:09.001Z</time></trkpt><trkpt lat="45.59557188627517" lon="10.131586834069113"><ele>162.85714285714286</ele><time>2026-04-14T15:56:12.001Z</time></trkpt><trkpt lat="45.59563495157072" lon="10.131571486411554"><ele>163.57142857142858</ele><time>2026-04-14T15:56:15.001Z</time></trkpt><trkpt lat="45.59570147931369" lon="10.131651941526362"><ele>164.2857142857143</ele><time>2026-04-14T15:56:18.001Z</time></trkpt><trkpt lat="45.595778114873916" lon="10.131705805552278"><ele>165.0</ele><time>2026-04-14T15:56:21.001Z</time></trkpt><trkpt lat="45.595845178173235" lon="10.131759558149554"><ele>165.00000000000003</ele><time>2026-04-14T15:56:24.001Z</time></trkpt><trkpt lat="45.595917714794346" lon="10.131800822032035"><ele>165.0</ele><time>2026-04-14T15:56:27.001Z</time></trkpt><trkpt lat="45.595983951606556" lon="10.131859614036966"><ele>165.0</ele><time>2026-04-14T15:56:30.001Z</time></trkpt><trkpt lat="45.59604442948848" lon="10.131919895429602"><ele>165.0</ele><time>2026-04-14T15:56:33.001Z</time></trkpt><trkpt lat="45.59610062747318" lon="10.131987424569871"><ele>165.0</ele><time>2026-04-14T15:56:36.001Z</time></trkpt><trkpt lat="45.596158961009316" lon="10.13205156626573"><ele>165.00000000000003</ele><time>2026-04-14T15:56:39.001Z</time></trkpt><trkpt lat="45.59621619079505" lon="10.132108038963242"><ele>165.0</ele><time>2026-04-14T15:56:42.001Z</time></trkpt><trkpt lat="45.59627870292661" lon="10.132149083863872"><ele>165.33333333333334</ele><time>2026-04-14T15:56:45.001Z</time></trkpt><trkpt lat="45.59634724468244" lon="10.132146178034791"><ele>165.66666666666666</ele><time>2026-04-14T15:56:48.001Z</time></trkpt><trkpt lat="45.59640563497738" lon="10.132088985789677"><ele>166.0</ele><time>2026-04-14T15:56:51.001Z</time></trkpt><trkpt lat="45.59646946230458" lon="10.131996158239227"><ele>166.33333333333331</ele><time>2026-04-14T15:56:54.001Z</time></trkpt><trkpt lat="45.5965234497516" lon="10.13191255123071"><ele>166.66666666666666</ele><time>2026-04-14T15:56:57.001Z</time></trkpt><trkpt lat="45.59657905689331" lon="10.131833707219991"><ele>167.0</ele><time>2026-04-14T15:57:00.001Z</time></trkpt><trkpt lat="45.59661601476494" lon="10.131735731455423"><ele>167.0</ele><time>2026-04-14T15:57:03.001Z</time></trkpt><trkpt lat="45.59663309769803" lon="10.131633223423826"><ele>167.0</ele><time>2026-04-14T15:57:06.001Z</time></trkpt><trkpt lat="45.59666454647206" lon="10.131529121749358"><ele>167.0</ele><time>2026-04-14T15:57:09.001Z</time></trkpt><trkpt lat="45.59669119248192" lon="10.13142908355577"><ele>167.0</ele><time>2026-04-14T15:57:12.001Z</time></trkpt><trkpt lat="45.59671967377591" lon="10.131324025497088"><ele>167.0</ele><time>2026-04-14T15:57:15.001Z</time></trkpt><trkpt lat="45.59674273253945" lon="10.131219366917824"><ele>167.0</ele><time>2026-04-14T15:57:18.001Z</time></trkpt><trkpt lat="45.596770483819" lon="10.131114967551975"><ele>166.57142857142856</ele><time>2026-04-14T15:57:21.001Z</time></trkpt><trkpt lat="45.596783294630576" lon="10.131014550329967"><ele>166.14285714285714</ele><time>2026-04-14T15:57:24.002Z</time></trkpt><trkpt lat="45.59679279416811" lon="10.130913567747601"><ele>165.71428571428572</ele><time>2026-04-14T15:57:27.002Z</time></trkpt><trkpt lat="45.59680032681542" lon="10.130807797335523"><ele>165.28571428571428</ele><time>2026-04-14T15:57:30.002Z</time></trkpt><trkpt lat="45.59680460495019" lon="10.130705881583374"><ele>164.85714285714286</ele><time>2026-04-14T15:57:33.002Z</time></trkpt><trkpt lat="45.59680138048425" lon="10.130600344988045"><ele>164.42857142857142</ele><time>2026-04-14T15:57:36.002Z</time></trkpt><trkpt lat="45.59680152851893" lon="10.130493725647078"><ele>164.0</ele><time>2026-04-14T15:57:39.002Z</time></trkpt><trkpt lat="45.59680893494044" lon="10.130392000498546"><ele>163.85714285714283</ele><time>2026-04-14T15:57:42.002Z</time></trkpt><trkpt lat="45.5968082453867" lon="10.130288278236602"><ele>163.71428571428572</ele><time>2026-04-14T15:57:45.002Z</time></trkpt><trkpt lat="45.59681484487482" lon="10.13019325254107"><ele>163.57142857142856</ele><time>2026-04-14T15:57:48.002Z</time></trkpt><trkpt lat="45.59681603938112" lon="10.130091673485733"><ele>163.42857142857142</ele><time>2026-04-14T15:57:51.002Z</time></trkpt><trkpt lat="45.59682013575187" lon="10.129986311821334"><ele>163.28571428571428</ele><time>2026-04-14T15:57:54.002Z</time></trkpt><trkpt lat="45.596834935923816" lon="10.129896228865066"><ele>163.14285714285714</ele><time>2026-04-14T15:57:57.002Z</time></trkpt><trkpt lat="45.596839174363616" lon="10.129792367134794"><ele>163.0</ele><time>2026-04-14T15:58:00.002Z</time></trkpt><trkpt lat="45.59685075696057" lon="10.12968609031458"><ele>163.0</ele><time>2026-04-14T15:58:03.002Z</time></trkpt><trkpt lat="45.5968457266738" lon="10.129584373564489"><ele>163.0</ele><time>2026-04-14T15:58:06.002Z</time></trkpt><trkpt lat="45.596835136668474" lon="10.129486271479685"><ele>163.0</ele><time>2026-04-14T15:58:09.002Z</time></trkpt><trkpt lat="45.59681220171811" lon="10.129396713887775"><ele>163.0</ele><time>2026-04-14T15:58:12.002Z</time></trkpt><trkpt lat="45.59677526703085" lon="10.129304288508493"><ele>163.0</ele><time>2026-04-14T15:58:15.002Z</time></trkpt><trkpt lat="45.59673699089087" lon="10.129205254906585"><ele>163.0</ele><time>2026-04-14T15:58:18.002Z</time></trkpt><trkpt lat="45.596714741439705" lon="10.12909793416613"><ele>163.0</ele><time>2026-04-14T15:58:21.002Z</time></trkpt><trkpt lat="45.59669638915122" lon="10.128995579491889"><ele>162.71428571428572</ele><time>2026-04-14T15:58:24.002Z</time></trkpt><trkpt lat="45.596679096514976" lon="10.12889611889225"><ele>162.42857142857142</ele><time>2026-04-14T15:58:27.002Z</time></trkpt><trkpt lat="45.59666725992753" lon="10.128796010889658"><ele>162.14285714285714</ele><time>2026-04-14T15:58:30.002Z</time></trkpt><trkpt lat="45.59665203862249" lon="10.128691391426207"><ele>161.85714285714286</ele><time>2026-04-14T15:58:33.002Z</time></trkpt><trkpt lat="45.596638300716165" lon="10.12858919783131"><ele>161.57142857142856</ele><time>2026-04-14T15:58:36.002Z</time></trkpt><trkpt lat="45.5966242163944" lon="10.12848868124548"><ele>161.28571428571428</ele><time>2026-04-14T15:58:39.002Z</time></trkpt><trkpt lat="45.596607229063146" lon="10.12839269284319"><ele>161.0</ele><time>2026-04-14T15:58:42.002Z</time></trkpt><trkpt lat="45.59659735829133" lon="10.12828773817574"><ele>161.28571428571428</ele><time>2026-04-14T15:58:45.002Z</time></trkpt><trkpt lat="45.59658176597437" lon="10.128188422917612"><ele>161.57142857142856</ele><time>2026-04-14T15:58:48.002Z</time></trkpt><trkpt lat="45.596568295261086" lon="10.128088924692094"><ele>161.85714285714286</ele><time>2026-04-14T15:58:51.002Z</time></trkpt><trkpt lat="45.59655209338078" lon="10.12799160577256"><ele>162.14285714285714</ele><time>2026-04-14T15:58:54.002Z</time></trkpt><trkpt lat="45.59653633417215" lon="10.127896157431458"><ele>162.42857142857142</ele><time>2026-04-14T15:58:57.002Z</time></trkpt><trkpt lat="45.59652426206541" lon="10.127801809719411"><ele>162.71428571428572</ele><time>2026-04-14T15:59:00.002Z</time></trkpt><trkpt lat="45.59651356679346" lon="10.127700661961406"><ele>163.0</ele><time>2026-04-14T15:59:03.002Z</time></trkpt><trkpt lat="45.59649954822836" lon="10.127593862828803"><ele>163.0</ele><time>2026-04-14T15:59:07.002Z</time></trkpt><trkpt lat="45.596489068494606" lon="10.127490875082653"><ele>163.0</ele><time>2026-04-14T15:59:10.002Z</time></trkpt><trkpt lat="45.596474130244054" lon="10.12739609090718"><ele>163.0</ele><time>2026-04-14T15:59:13.002Z</time></trkpt><trkpt lat="45.596468992071024" lon="10.12727585469743"><ele>163.0</ele><time>2026-04-14T15:59:16.002Z</time></trkpt><trkpt lat="45.59647667717358" lon="10.127169991909168"><ele>163.0</ele><time>2026-04-14T15:59:19.002Z</time></trkpt><trkpt lat="45.596477861825925" lon="10.127064327390418"><ele>163.0</ele><time>2026-04-14T15:59:22.002Z</time></trkpt><trkpt lat="45.59648067353135" lon="10.126963917714813"><ele>163.0</ele><time>2026-04-14T15:59:25.002Z</time></trkpt><trkpt lat="45.59647454287871" lon="10.126861553543497"><ele>163.2857142857143</ele><time>2026-04-14T15:59:28.002Z</time></trkpt><trkpt lat="45.59647872994604" lon="10.126760128539196"><ele>163.57142857142856</ele><time>2026-04-14T15:59:31.002Z</time></trkpt><trkpt lat="45.59648137641039" lon="10.126669681592531"><ele>163.85714285714286</ele><time>2026-04-14T15:59:34.002Z</time></trkpt><trkpt lat="45.596497402898805" lon="10.126569720267273"><ele>164.14285714285717</ele><time>2026-04-14T15:59:37.002Z</time></trkpt><trkpt lat="45.59650748961947" lon="10.126471617722254"><ele>164.42857142857144</ele><time>2026-04-14T15:59:40.002Z</time></trkpt><trkpt lat="45.59651765623133" lon="10.1263755552658"><ele>164.71428571428572</ele><time>2026-04-14T15:59:43.002Z</time></trkpt><trkpt lat="45.59653079988077" lon="10.126270488278012"><ele>165.0</ele><time>2026-04-14T15:59:46.002Z</time></trkpt><trkpt lat="45.59653619638828" lon="10.126171446605843"><ele>165.5</ele><time>2026-04-14T15:59:49.002Z</time></trkpt><trkpt lat="45.596548914626275" lon="10.126075671764838"><ele>166.0</ele><time>2026-04-14T15:59:52.002Z</time></trkpt><trkpt lat="45.596557957013665" lon="10.125971587379539"><ele>166.5</ele><time>2026-04-14T15:59:55.003Z</time></trkpt><trkpt lat="45.596559848762354" lon="10.1258654187838"><ele>167.0</ele><time>2026-04-14T15:59:58.003Z</time></trkpt><trkpt lat="45.59656037893765" lon="10.125746815450189"><ele>167.5</ele><time>2026-04-14T16:00:01.003Z</time></trkpt><trkpt lat="45.59655370029946" lon="10.12563606467391"><ele>168.0</ele><time>2026-04-14T16:00:04.003Z</time></trkpt><trkpt lat="45.5965541614921" lon="10.125528237069151"><ele>168.0</ele><time>2026-04-14T16:00:07.003Z</time></trkpt><trkpt lat="45.59654291908816" lon="10.125432723503717"><ele>168.0</ele><time>2026-04-14T16:00:10.003Z</time></trkpt><trkpt lat="45.59657651870097" lon="10.125341510807898"><ele>168.0</ele><time>2026-04-14T16:00:13.003Z</time></trkpt><trkpt lat="45.5966068987534" lon="10.1252402244964"><ele>168.0</ele><time>2026-04-14T16:00:16.003Z</time></trkpt><trkpt lat="45.59661725449293" lon="10.125138735070026"><ele>168.0</ele><time>2026-04-14T16:00:19.003Z</time></trkpt><trkpt lat="45.59661817212191" lon="10.125044532703079"><ele>168.0</ele><time>2026-04-14T16:00:22.003Z</time></trkpt><trkpt lat="45.59663164038836" lon="10.124950387984853"><ele>168.0</ele><time>2026-04-14T16:00:25.003Z</time></trkpt><trkpt lat="45.596632212357086" lon="10.124842135619913"><ele>168.0</ele><time>2026-04-14T16:00:28.003Z</time></trkpt><trkpt lat="45.59664667005813" lon="10.124748979386046"><ele>168.0</ele><time>2026-04-14T16:00:31.003Z</time></trkpt><trkpt lat="45.5966501954657" lon="10.124655394901646"><ele>168.0</ele><time>2026-04-14T16:00:34.003Z</time></trkpt><trkpt lat="45.596648197660194" lon="10.124531916069083"><ele>168.0</ele><time>2026-04-14T16:00:38.003Z</time></trkpt><trkpt lat="45.59663974968841" lon="10.124432164591857"><ele>168.0</ele><time>2026-04-14T16:00:41.003Z</time></trkpt><trkpt lat="45.59663248733155" lon="10.124315684457244"><ele>168.0</ele><time>2026-04-14T16:00:45.003Z</time></trkpt><trkpt lat="45.59660962008337" lon="10.12421011606695"><ele>168.0</ele><time>2026-04-14T16:00:48.003Z</time></trkpt><trkpt lat="45.59656769149064" lon="10.124120357179313"><ele>168.0</ele><time>2026-04-14T16:00:51.003Z</time></trkpt><trkpt lat="45.5965485532419" lon="10.124024706679231"><ele>168.0</ele><time>2026-04-14T16:00:54.003Z</time></trkpt><trkpt lat="45.59655154054769" lon="10.123912568585757"><ele>168.0</ele><time>2026-04-14T16:00:57.003Z</time></trkpt><trkpt lat="45.59656659175644" lon="10.123793450577036"><ele>168.0</ele><time>2026-04-14T16:01:00.003Z</time></trkpt><trkpt lat="45.59657188019595" lon="10.123691826877801"><ele>168.0</ele><time>2026-04-14T16:01:03.003Z</time></trkpt><trkpt lat="45.596583959857604" lon="10.123582598961919"><ele>168.0</ele><time>2026-04-14T16:01:06.003Z</time></trkpt><trkpt lat="45.59658505071687" lon="10.12347295978409"><ele>168.0</ele><time>2026-04-14T16:01:09.003Z</time></trkpt><trkpt lat="45.596589144646316" lon="10.123359112355578"><ele>168.0</ele><time>2026-04-14T16:01:12.003Z</time></trkpt><trkpt lat="45.59658350630269" lon="10.123256077256237"><ele>168.0</ele><time>2026-04-14T16:01:15.003Z</time></trkpt><trkpt lat="45.59658828018593" lon="10.123147545423077"><ele>168.0</ele><time>2026-04-14T16:01:18.003Z</time></trkpt><trkpt lat="45.59658162924346" lon="10.123052153628464"><ele>168.0</ele><time>2026-04-14T16:01:21.003Z</time></trkpt><trkpt lat="45.59656952694171" lon="10.122954118432608"><ele>168.0</ele><time>2026-04-14T16:01:24.003Z</time></trkpt><trkpt lat="45.59655731119047" lon="10.122859002457464"><ele>168.0</ele><time>2026-04-14T16:01:27.003Z</time></trkpt><trkpt lat="45.59656567226433" lon="10.122751365138463"><ele>167.71428571428572</ele><time>2026-04-14T16:01:30.003Z</time></trkpt><trkpt lat="45.59658199228917" lon="10.122656348589198"><ele>167.42857142857144</ele><time>2026-04-14T16:01:33.003Z</time></trkpt><trkpt lat="45.59659449996096" lon="10.122562078122003"><ele>167.14285714285714</ele><time>2026-04-14T16:01:36.003Z</time></trkpt><trkpt lat="45.59661377917721" lon="10.12246548266551"><ele>166.85714285714286</ele><time>2026-04-14T16:01:39.003Z</time></trkpt><trkpt lat="45.59662165778194" lon="10.122365685734241"><ele>166.57142857142858</ele><time>2026-04-14T16:01:42.003Z</time></trkpt><trkpt lat="45.59666052403807" lon="10.1222680717007"><ele>166.28571428571428</ele><time>2026-04-14T16:01:45.003Z</time></trkpt><trkpt lat="45.59668443658912" lon="10.122171300563236"><ele>166.0</ele><time>2026-04-14T16:01:48.003Z</time></trkpt><trkpt lat="45.5967071630251" lon="10.122061429221308"><ele>165.83333333333334</ele><time>2026-04-14T16:01:51.003Z</time></trkpt><trkpt lat="45.59672711135605" lon="10.121957269192997"><ele>165.66666666666669</ele><time>2026-04-14T16:01:54.003Z</time></trkpt><trkpt lat="45.59673383883943" lon="10.12183901218737"><ele>165.5</ele><time>2026-04-14T16:01:57.003Z</time></trkpt><trkpt lat="45.59674792114685" lon="10.121736971386243"><ele>165.33333333333334</ele><time>2026-04-14T16:02:00.003Z</time></trkpt><trkpt lat="45.59675944102843" lon="10.121636306751876"><ele>165.16666666666666</ele><time>2026-04-14T16:02:03.003Z</time></trkpt><trkpt lat="45.59676867543024" lon="10.12153693389012"><ele>165.0</ele><time>2026-04-14T16:02:06.003Z</time></trkpt><trkpt lat="45.5967710367746" lon="10.121421010626106"><ele>165.00000000000003</ele><time>2026-04-14T16:02:09.003Z</time></trkpt><trkpt lat="45.59677906453388" lon="10.121328781044442"><ele>165.0</ele><time>2026-04-14T16:02:12.003Z</time></trkpt><trkpt lat="45.59678416630382" lon="10.121228410548829"><ele>165.0</ele><time>2026-04-14T16:02:15.003Z</time></trkpt><trkpt lat="45.596801002894" lon="10.121120671281664"><ele>165.0</ele><time>2026-04-14T16:02:18.003Z</time></trkpt><trkpt lat="45.596808515728284" lon="10.121027426910677"><ele>165.0</ele><time>2026-04-14T16:02:21.003Z</time></trkpt><trkpt lat="45.59681982103367" lon="10.120922376836752"><ele>165.00000000000003</ele><time>2026-04-14T16:02:24.004Z</time></trkpt><trkpt lat="45.596820094418156" lon="10.120823342841474"><ele>165.0</ele><time>2026-04-14T16:02:27.004Z</time></trkpt><trkpt lat="45.59683791782702" lon="10.12072555853489"><ele>165.14285714285717</ele><time>2026-04-14T16:02:30.004Z</time></trkpt><trkpt lat="45.59683905340616" lon="10.12062751129121"><ele>165.28571428571428</ele><time>2026-04-14T16:02:33.004Z</time></trkpt><trkpt lat="45.59685884438087" lon="10.120523157145579"><ele>165.42857142857144</ele><time>2026-04-14T16:02:36.004Z</time></trkpt><trkpt lat="45.59687297715143" lon="10.120408040676994"><ele>165.57142857142858</ele><time>2026-04-14T16:02:39.004Z</time></trkpt><trkpt lat="45.596880171059794" lon="10.120309744493598"><ele>165.71428571428572</ele><time>2026-04-14T16:02:42.004Z</time></trkpt><trkpt lat="45.59686281857788" lon="10.120193231462077"><ele>165.85714285714286</ele><time>2026-04-14T16:02:46.004Z</time></trkpt><trkpt lat="45.596870593043874" lon="10.120100746365273"><ele>166.0</ele><time>2026-04-14T16:02:48.004Z</time></trkpt><trkpt lat="45.59689558023681" lon="10.119997348360197"><ele>166.0</ele><time>2026-04-14T16:02:51.004Z</time></trkpt><trkpt lat="45.59690076551153" lon="10.119906776076304"><ele>166.0</ele><time>2026-04-14T16:02:54.004Z</time></trkpt><trkpt lat="45.59690509123231" lon="10.119812503279126"><ele>166.0</ele><time>2026-04-14T16:02:57.004Z</time></trkpt><trkpt lat="45.59690329817237" lon="10.119717575638917"><ele>166.0</ele><time>2026-04-14T16:03:00.004Z</time></trkpt><trkpt lat="45.5968995657708" lon="10.119606943524996"><ele>166.0</ele><time>2026-04-14T16:03:03.004Z</time></trkpt><trkpt lat="45.59690879499722" lon="10.11948823287974"><ele>166.0</ele><time>2026-04-14T16:03:06.004Z</time></trkpt><trkpt lat="45.59692463962737" lon="10.119387938055743"><ele>166.0</ele><time>2026-04-14T16:03:09.004Z</time></trkpt><trkpt lat="45.59692458814038" lon="10.119287247758063"><ele>166.28571428571428</ele><time>2026-04-14T16:03:12.004Z</time></trkpt><trkpt lat="45.596941547860204" lon="10.119182782056448"><ele>166.57142857142858</ele><time>2026-04-14T16:03:15.004Z</time></trkpt><trkpt lat="45.59696142530844" lon="10.119077591927415"><ele>166.85714285714286</ele><time>2026-04-14T16:03:18.004Z</time></trkpt><trkpt lat="45.596975439680975" lon="10.118970189525987"><ele>167.14285714285714</ele><time>2026-04-14T16:03:21.004Z</time></trkpt><trkpt lat="45.596976154353705" lon="10.118849605282515"><ele>167.42857142857144</ele><time>2026-04-14T16:03:25.004Z</time></trkpt><trkpt lat="45.5969932036001" lon="10.118757212733247"><ele>167.71428571428572</ele><time>2026-04-14T16:03:28.004Z</time></trkpt><trkpt lat="45.597017614284134" lon="10.118672048961633"><ele>168.0</ele><time>2026-04-14T16:03:31.004Z</time></trkpt><trkpt lat="45.59702316369739" lon="10.118569345187973"><ele>168.0</ele><time>2026-04-14T16:03:34.004Z</time></trkpt><trkpt lat="45.59703415962293" lon="10.118479100035717"><ele>168.0</ele><time>2026-04-14T16:03:37.004Z</time></trkpt><trkpt lat="45.597039621877464" lon="10.118386581579287"><ele>168.0</ele><time>2026-04-14T16:03:40.004Z</time></trkpt><trkpt lat="45.59703656574384" lon="10.118293915141326"><ele>168.0</ele><time>2026-04-14T16:03:43.004Z</time></trkpt><trkpt lat="45.59703427856496" lon="10.118190801131178"><ele>168.0</ele><time>2026-04-14T16:03:46.004Z</time></trkpt><trkpt lat="45.59704869712325" lon="10.118093233036598"><ele>168.0</ele><time>2026-04-14T16:03:49.004Z</time></trkpt><trkpt lat="45.597069364319765" lon="10.117984240634447"><ele>168.0</ele><time>2026-04-14T16:03:53.004Z</time></trkpt><trkpt lat="45.59708104020012" lon="10.11788389246347"><ele>168.33333333333334</ele><time>2026-04-14T16:03:56.004Z</time></trkpt><trkpt lat="45.59707568872181" lon="10.117776356427012"><ele>168.66666666666666</ele><time>2026-04-14T16:03:59.004Z</time></trkpt><trkpt lat="45.59709499804424" lon="10.117665206348462"><ele>169.0</ele><time>2026-04-14T16:04:02.004Z</time></trkpt><trkpt lat="45.597121973066955" lon="10.117562475682996"><ele>169.33333333333331</ele><time>2026-04-14T16:04:05.004Z</time></trkpt><trkpt lat="45.59713246453613" lon="10.117453823305786"><ele>169.66666666666666</ele><time>2026-04-14T16:04:08.004Z</time></trkpt><trkpt lat="45.597134145792396" lon="10.117337239659372"><ele>170.0</ele><time>2026-04-14T16:04:11.004Z</time></trkpt><trkpt lat="45.59712712563441" lon="10.117245176377773"><ele>170.16666666666666</ele><time>2026-04-14T16:04:13.004Z</time></trkpt><trkpt lat="45.597125450106994" lon="10.117129922391133"><ele>170.33333333333331</ele><time>2026-04-14T16:04:16.004Z</time></trkpt><trkpt lat="45.59712375375345" lon="10.117010687929705"><ele>170.5</ele><time>2026-04-14T16:04:19.004Z</time></trkpt><trkpt lat="45.597133774707096" lon="10.116910876177977"><ele>170.66666666666666</ele><time>2026-04-14T16:04:22.004Z</time></trkpt><trkpt lat="45.59713772280389" lon="10.11680005127372"><ele>170.83333333333334</ele><time>2026-04-14T16:04:25.004Z</time></trkpt><trkpt lat="45.59713668542594" lon="10.11667790133585"><ele>171.0</ele><time>2026-04-14T16:04:28.004Z</time></trkpt><trkpt lat="45.59713174295927" lon="10.116573260399006"><ele>171.16666666666666</ele><time>2026-04-14T16:04:31.004Z</time></trkpt><trkpt lat="45.597137448581165" lon="10.116454551103672"><ele>171.33333333333334</ele><time>2026-04-14T16:04:34.004Z</time></trkpt><trkpt lat="45.59712487942524" lon="10.116338118655928"><ele>171.5</ele><time>2026-04-14T16:04:37.004Z</time></trkpt><trkpt lat="45.59711910502266" lon="10.116230760983859"><ele>171.66666666666669</ele><time>2026-04-14T16:04:40.004Z</time></trkpt><trkpt lat="45.59712083234815" lon="10.116129441528058"><ele>171.83333333333334</ele><time>2026-04-14T16:04:43.004Z</time></trkpt><trkpt lat="45.59710515545784" lon="10.116029372753488"><ele>172.0</ele><time>2026-04-14T16:04:46.004Z</time></trkpt><trkpt lat="45.59708587371117" lon="10.115922266262208"><ele>172.00000000000003</ele><time>2026-04-14T16:04:49.004Z</time></trkpt><trkpt lat="45.597064052104436" lon="10.115817978081155"><ele>172.0</ele><time>2026-04-14T16:04:52.005Z</time></trkpt><trkpt lat="45.59705004540829" lon="10.115716467540738"><ele>172.0</ele><time>2026-04-14T16:04:55.005Z</time></trkpt><trkpt lat="45.597037909110384" lon="10.115615984869363"><ele>172.0</ele><time>2026-04-14T16:04:58.005Z</time></trkpt><trkpt lat="45.59702323624631" lon="10.115514424338064"><ele>172.0</ele><time>2026-04-14T16:05:01.005Z</time></trkpt><trkpt lat="45.59700644961853" lon="10.115424423964443"><ele>172.00000000000003</ele><time>2026-04-14T16:05:04.005Z</time></trkpt><trkpt lat="45.59699048255641" lon="10.115324910822375"><ele>172.0</ele><time>2026-04-14T16:05:07.005Z</time></trkpt><trkpt lat="45.59698894158621" lon="10.11522455632488"><ele>172.0</ele><time>2026-04-14T16:05:10.005Z</time></trkpt><trkpt lat="45.596967007273875" lon="10.115112506568828"><ele>172.0</ele><time>2026-04-14T16:05:13.005Z</time></trkpt><trkpt lat="45.596935949883765" lon="10.114994678039862"><ele>172.0</ele><time>2026-04-14T16:05:16.005Z</time></trkpt><trkpt lat="45.59691928328435" lon="10.11487886941847"><ele>172.0</ele><time>2026-04-14T16:05:19.005Z</time></trkpt><trkpt lat="45.596916869844236" lon="10.114759149356345"><ele>172.0</ele><time>2026-04-14T16:05:22.005Z</time></trkpt><trkpt lat="45.59689963505479" lon="10.11465495163372"><ele>172.0</ele><time>2026-04-14T16:05:25.005Z</time></trkpt><trkpt lat="45.59689352185173" lon="10.114557136309859"><ele>172.00000000000003</ele><time>2026-04-14T16:05:28.005Z</time></trkpt><trkpt lat="45.596878571177115" lon="10.114459337107048"><ele>172.0</ele><time>2026-04-14T16:05:31.005Z</time></trkpt><trkpt lat="45.596864449739996" lon="10.114358799263375"><ele>172.0</ele><time>2026-04-14T16:05:34.005Z</time></trkpt><trkpt lat="45.59685337945996" lon="10.114259837600269"><ele>172.0</ele><time>2026-04-14T16:05:37.005Z</time></trkpt><trkpt lat="45.59683938651648" lon="10.114159741793388"><ele>172.0</ele><time>2026-04-14T16:05:40.005Z</time></trkpt><trkpt lat="45.59682593111045" lon="10.114060638358588"><ele>172.00000000000003</ele><time>2026-04-14T16:05:43.005Z</time></trkpt><trkpt lat="45.596813183300306" lon="10.113960531258778"><ele>172.0</ele><time>2026-04-14T16:05:46.005Z</time></trkpt><trkpt lat="45.596795036344695" lon="10.113867243453086"><ele>172.14285714285717</ele><time>2026-04-14T16:05:49.005Z</time></trkpt><trkpt lat="45.59678345199194" lon="10.11376840404789"><ele>172.28571428571428</ele><time>2026-04-14T16:05:52.005Z</time></trkpt><trkpt lat="45.59677438353273" lon="10.113646182155254"><ele>172.42857142857144</ele><time>2026-04-14T16:05:56.005Z</time></trkpt><trkpt lat="45.59677831597117" lon="10.11355250632554"><ele>172.57142857142858</ele><time>2026-04-14T16:05:59.005Z</time></trkpt><trkpt lat="45.596785162328125" lon="10.11345516060318"><ele>172.71428571428572</ele><time>2026-04-14T16:06:02.005Z</time></trkpt><trkpt lat="45.59679468793188" lon="10.11335310746184"><ele>172.85714285714286</ele><time>2026-04-14T16:06:05.005Z</time></trkpt><trkpt lat="45.59680231589962" lon="10.113238868166212"><ele>173.0</ele><time>2026-04-14T16:06:09.005Z</time></trkpt><trkpt lat="45.59680869634499" lon="10.11313641154368"><ele>173.0</ele><time>2026-04-14T16:06:12.005Z</time></trkpt><trkpt lat="45.596818822628904" lon="10.113046889775756"><ele>173.0</ele><time>2026-04-14T16:06:15.005Z</time></trkpt><trkpt lat="45.596828981180806" lon="10.112950499804025"><ele>173.0</ele><time>2026-04-14T16:06:18.005Z</time></trkpt><trkpt lat="45.59683585819304" lon="10.112855174532612"><ele>173.0</ele><time>2026-04-14T16:06:21.005Z</time></trkpt><trkpt lat="45.596850823715954" lon="10.112752211217918"><ele>173.0</ele><time>2026-04-14T16:06:24.005Z</time></trkpt><trkpt lat="45.59686465667176" lon="10.112662206508109"><ele>173.0</ele><time>2026-04-14T16:06:27.005Z</time></trkpt><trkpt lat="45.59688045770299" lon="10.112567113622255"><ele>173.0</ele><time>2026-04-14T16:06:30.005Z</time></trkpt><trkpt lat="45.59689331930215" lon="10.112476482794472"><ele>173.28571428571428</ele><time>2026-04-14T16:06:33.005Z</time></trkpt><trkpt lat="45.59691473156297" lon="10.112357087298523"><ele>173.57142857142858</ele><time>2026-04-14T16:06:37.005Z</time></trkpt><trkpt lat="45.59695161380424" lon="10.112262941924255"><ele>173.85714285714286</ele><time>2026-04-14T16:06:41.005Z</time></trkpt><trkpt lat="45.59699193999317" lon="10.112176185456391"><ele>174.14285714285714</ele><time>2026-04-14T16:06:44.005Z</time></trkpt><trkpt lat="45.59703172316677" lon="10.11210124921872"><ele>174.42857142857144</ele><time>2026-04-14T16:06:47.005Z</time></trkpt><trkpt lat="45.597077050588325" lon="10.11200460573066"><ele>174.71428571428572</ele><time>2026-04-14T16:06:51.005Z</time></trkpt><trkpt lat="45.59712561174338" lon="10.111938365204486"><ele>175.0</ele><time>2026-04-14T16:06:54.005Z</time></trkpt><trkpt lat="45.597157714485085" lon="10.111844200592888"><ele>175.28571428571428</ele><time>2026-04-14T16:06:57.005Z</time></trkpt><trkpt lat="45.59718340263015" lon="10.111753719193462"><ele>175.57142857142856</ele><time>2026-04-14T16:07:00.005Z</time></trkpt><trkpt lat="45.59721068857378" lon="10.111668248116132"><ele>175.85714285714286</ele><time>2026-04-14T16:07:03.005Z</time></trkpt><trkpt lat="45.597221420206886" lon="10.111573634587234"><ele>176.14285714285714</ele><time>2026-04-14T16:07:06.005Z</time></trkpt><trkpt lat="45.59724772343801" lon="10.111488294051409"><ele>176.42857142857142</ele><time>2026-04-14T16:07:09.005Z</time></trkpt><trkpt lat="45.59728439559291" lon="10.111399168778092"><ele>176.71428571428572</ele><time>2026-04-14T16:07:12.005Z</time></trkpt><trkpt lat="45.59732741877327" lon="10.111320142931454"><ele>177.0</ele><time>2026-04-14T16:07:15.005Z</time></trkpt><trkpt lat="45.59738820492865" lon="10.111274019334136"><ele>177.0</ele><time>2026-04-14T16:07:18.005Z</time></trkpt><trkpt lat="45.59743313270867" lon="10.111205347707944"><ele>177.0</ele><time>2026-04-14T16:07:21.006Z</time></trkpt><trkpt lat="45.597488765616546" lon="10.111129104114404"><ele>177.0</ele><time>2026-04-14T16:07:24.006Z</time></trkpt><trkpt lat="45.597548179938435" lon="10.111053735723956"><ele>177.0</ele><time>2026-04-14T16:07:27.006Z</time></trkpt><trkpt lat="45.597592885334514" lon="10.110957897483843"><ele>177.0</ele><time>2026-04-14T16:07:30.006Z</time></trkpt><trkpt lat="45.597616228805485" lon="10.11085261693078"><ele>177.0</ele><time>2026-04-14T16:07:33.006Z</time></trkpt><trkpt lat="45.597627148135565" lon="10.11074943327094"><ele>177.0</ele><time>2026-04-14T16:07:36.006Z</time></trkpt><trkpt lat="45.597705728880925" lon="10.110721249865996"><ele>177.0</ele><time>2026-04-14T16:07:40.006Z</time></trkpt><trkpt lat="45.59777197159076" lon="10.110799528097973"><ele>177.0</ele><time>2026-04-14T16:07:43.006Z</time></trkpt><trkpt lat="45.59782959919016" lon="10.110869751054102"><ele>177.0</ele><time>2026-04-14T16:07:46.006Z</time></trkpt><trkpt lat="45.59789101492324" lon="10.11091754194319"><ele>177.0</ele><time>2026-04-14T16:07:49.006Z</time></trkpt><trkpt lat="45.59795502570034" lon="10.110958549809407"><ele>177.0</ele><time>2026-04-14T16:07:52.006Z</time></trkpt><trkpt lat="45.59802638322362" lon="10.110990550379015"><ele>176.57142857142858</ele><time>2026-04-14T16:07:55.006Z</time></trkpt><trkpt lat="45.59809572730732" lon="10.1110051245543"><ele>176.14285714285714</ele><time>2026-04-14T16:07:58.006Z</time></trkpt><trkpt lat="45.59816030844856" lon="10.111038929811484"><ele>175.71428571428572</ele><time>2026-04-14T16:08:01.006Z</time></trkpt><trkpt lat="45.598232924809565" lon="10.111094692625368"><ele>175.28571428571428</ele><time>2026-04-14T16:08:04.006Z</time></trkpt><trkpt lat="45.598296422063335" lon="10.11115140958592"><ele>174.85714285714286</ele><time>2026-04-14T16:08:07.006Z</time></trkpt><trkpt lat="45.59836922596477" lon="10.111177143561648"><ele>174.42857142857142</ele><time>2026-04-14T16:08:10.006Z</time></trkpt><trkpt lat="45.5984339124292" lon="10.111227507947936"><ele>174.0</ele><time>2026-04-14T16:08:13.006Z</time></trkpt><trkpt lat="45.5984965172058" lon="10.111285473284713"><ele>174.0</ele><time>2026-04-14T16:08:16.006Z</time></trkpt><trkpt lat="45.59856169411313" lon="10.111329244315918"><ele>174.0</ele><time>2026-04-14T16:08:19.006Z</time></trkpt><trkpt lat="45.598622660133806" lon="10.111383138740496"><ele>174.0</ele><time>2026-04-14T16:08:22.006Z</time></trkpt><trkpt lat="45.59869059899897" lon="10.111432807717094"><ele>174.0</ele><time>2026-04-14T16:08:25.006Z</time></trkpt><trkpt lat="45.59876151918778" lon="10.111474405412393"><ele>174.0</ele><time>2026-04-14T16:08:28.006Z</time></trkpt><trkpt lat="45.598835447512066" lon="10.111506312268945"><ele>174.0</ele><time>2026-04-14T16:08:31.006Z</time></trkpt><trkpt lat="45.59890178384436" lon="10.111539324440939"><ele>174.0</ele><time>2026-04-14T16:08:34.006Z</time></trkpt><trkpt lat="45.598971504027034" lon="10.111552943553328"><ele>174.14285714285714</ele><time>2026-04-14T16:08:37.006Z</time></trkpt><trkpt lat="45.59904589439443" lon="10.111549224712657"><ele>174.28571428571428</ele><time>2026-04-14T16:08:40.006Z</time></trkpt><trkpt lat="45.599117017657626" lon="10.11154725963636"><ele>174.42857142857144</ele><time>2026-04-14T16:08:43.006Z</time></trkpt><trkpt lat="45.599192464658394" lon="10.111543612444468"><ele>174.57142857142856</ele><time>2026-04-14T16:08:46.006Z</time></trkpt><trkpt lat="45.599265639456064" lon="10.111542171869292"><ele>174.71428571428572</ele><time>2026-04-14T16:08:49.006Z</time></trkpt><trkpt lat="45.59933784473295" lon="10.111522707606646"><ele>174.85714285714286</ele><time>2026-04-14T16:08:52.006Z</time></trkpt><trkpt lat="45.59941092092077" lon="10.111483675893233"><ele>175.0</ele><time>2026-04-14T16:08:55.006Z</time></trkpt><trkpt lat="45.59948188159247" lon="10.11144384695457"><ele>175.5</ele><time>2026-04-14T16:08:58.006Z</time></trkpt><trkpt lat="45.599541965420386" lon="10.111367161224805"><ele>176.0</ele><time>2026-04-14T16:09:01.006Z</time></trkpt><trkpt lat="45.59960497165657" lon="10.111289091655967"><ele>176.5</ele><time>2026-04-14T16:09:04.006Z</time></trkpt><trkpt lat="45.599661096692316" lon="10.11119605659674"><ele>177.0</ele><time>2026-04-14T16:09:07.006Z</time></trkpt><trkpt lat="45.599711754660134" lon="10.111099849483548"><ele>177.5</ele><time>2026-04-14T16:09:10.006Z</time></trkpt><trkpt lat="45.59976678428252" lon="10.111000697620963"><ele>178.0</ele><time>2026-04-14T16:09:13.006Z</time></trkpt><trkpt lat="45.59980843659035" lon="10.11091106000153"><ele>178.0</ele><time>2026-04-14T16:09:16.006Z</time></trkpt><trkpt lat="45.59986207921252" lon="10.110806220494494"><ele>178.0</ele><time>2026-04-14T16:09:19.006Z</time></trkpt><trkpt lat="45.59992657420898" lon="10.11072946237889"><ele>178.0</ele><time>2026-04-14T16:09:22.006Z</time></trkpt><trkpt lat="45.59998895666093" lon="10.110666572750539"><ele>178.0</ele><time>2026-04-14T16:09:25.006Z</time></trkpt><trkpt lat="45.600063559256284" lon="10.110628651459692"><ele>178.0</ele><time>2026-04-14T16:09:28.006Z</time></trkpt><trkpt lat="45.600144858792994" lon="10.110601123252437"><ele>178.0</ele><time>2026-04-14T16:09:31.006Z</time></trkpt><trkpt lat="45.600224746951696" lon="10.110599044537757"><ele>177.99999999999997</ele><time>2026-04-14T16:09:34.006Z</time></trkpt><trkpt lat="45.60030326706781" lon="10.110591323700195"><ele>178.0</ele><time>2026-04-14T16:09:37.006Z</time></trkpt><trkpt lat="45.60037880383381" lon="10.110590366067536"><ele>178.0</ele><time>2026-04-14T16:09:40.006Z</time></trkpt><trkpt lat="45.600448037081854" lon="10.110581019114884"><ele>178.0</ele><time>2026-04-14T16:09:43.006Z</time></trkpt><trkpt lat="45.600514241564795" lon="10.110569486285183"><ele>178.0</ele><time>2026-04-14T16:09:46.006Z</time></trkpt><trkpt lat="45.600585364957674" lon="10.110552923793186"><ele>177.99999999999997</ele><time>2026-04-14T16:09:49.006Z</time></trkpt><trkpt lat="45.60065803329336" lon="10.110571914364469"><ele>178.0</ele><time>2026-04-14T16:09:52.007Z</time></trkpt><trkpt lat="45.60073481985704" lon="10.110580956339719"><ele>177.83333333333334</ele><time>2026-04-14T16:09:55.007Z</time></trkpt><trkpt lat="45.60080642458304" lon="10.110592513024308"><ele>177.66666666666669</ele><time>2026-04-14T16:09:58.007Z</time></trkpt><trkpt lat="45.60088017738999" lon="10.110611106387276"><ele>177.5</ele><time>2026-04-14T16:10:01.007Z</time></trkpt><trkpt lat="45.600950965506684" lon="10.110636508217276"><ele>177.33333333333334</ele><time>2026-04-14T16:10:04.007Z</time></trkpt><trkpt lat="45.601027204237575" lon="10.110658493046298"><ele>177.16666666666666</ele><time>2026-04-14T16:10:07.007Z</time></trkpt><trkpt lat="45.601105246862346" lon="10.110694638478412"><ele>177.0</ele><time>2026-04-14T16:10:10.007Z</time></trkpt><trkpt lat="45.60117654937993" lon="10.11073678917589"><ele>177.85714285714286</ele><time>2026-04-14T16:10:13.007Z</time></trkpt><trkpt lat="45.60123828083689" lon="10.110797602514387"><ele>178.7142857142857</ele><time>2026-04-14T16:10:16.007Z</time></trkpt><trkpt lat="45.60128885405205" lon="10.110877077915674"><ele>179.57142857142856</ele><time>2026-04-14T16:10:19.007Z</time></trkpt><trkpt lat="45.60135327871647" lon="10.110935878109892"><ele>180.42857142857144</ele><time>2026-04-14T16:10:22.007Z</time></trkpt><trkpt lat="45.601407884901086" lon="10.1110211089397"><ele>181.28571428571428</ele><time>2026-04-14T16:10:26.007Z</time></trkpt><trkpt lat="45.60145100346456" lon="10.111095769529783"><ele>182.14285714285714</ele><time>2026-04-14T16:10:29.007Z</time></trkpt><trkpt lat="45.601482203933955" lon="10.111177146279124"><ele>183.0</ele><time>2026-04-14T16:10:32.007Z</time></trkpt><trkpt lat="45.60153481169351" lon="10.111234113294557"><ele>183.0</ele><time>2026-04-14T16:10:35.007Z</time></trkpt><trkpt lat="45.601596686569" lon="10.111280365510261"><ele>183.0</ele><time>2026-04-14T16:10:38.007Z</time></trkpt><trkpt lat="45.60167168407427" lon="10.111299359632085"><ele>183.0</ele><time>2026-04-14T16:10:41.007Z</time></trkpt><trkpt lat="45.60174000957437" lon="10.111307453124704"><ele>183.0</ele><time>2026-04-14T16:10:44.007Z</time></trkpt><trkpt lat="45.601810670957256" lon="10.111334583782485"><ele>183.0</ele><time>2026-04-14T16:10:47.007Z</time></trkpt><trkpt lat="45.60187427634977" lon="10.111392013442577"><ele>183.0</ele><time>2026-04-14T16:10:50.007Z</time></trkpt><trkpt lat="45.6019502341894" lon="10.111461951268835"><ele>183.16666666666666</ele><time>2026-04-14T16:10:53.007Z</time></trkpt><trkpt lat="45.602017895005616" lon="10.111547224688294"><ele>183.33333333333334</ele><time>2026-04-14T16:10:56.007Z</time></trkpt><trkpt lat="45.602083556655856" lon="10.111619303263625"><ele>183.5</ele><time>2026-04-14T16:10:59.007Z</time></trkpt><trkpt lat="45.60214420275955" lon="10.111689480533492"><ele>183.66666666666669</ele><time>2026-04-14T16:11:02.007Z</time></trkpt><trkpt lat="45.6021936257292" lon="10.11177003555086"><ele>183.83333333333334</ele><time>2026-04-14T16:11:05.007Z</time></trkpt><trkpt lat="45.602255075690664" lon="10.11184592166403"><ele>184.0</ele><time>2026-04-14T16:11:08.007Z</time></trkpt><trkpt lat="45.60231143503628" lon="10.111923256888376"><ele>184.0</ele><time>2026-04-14T16:11:11.007Z</time></trkpt><trkpt lat="45.602365913952134" lon="10.112000130746248"><ele>184.0</ele><time>2026-04-14T16:11:14.007Z</time></trkpt><trkpt lat="45.602421918797894" lon="10.112088582465999"><ele>184.0</ele><time>2026-04-14T16:11:17.007Z</time></trkpt><trkpt lat="45.60247734363657" lon="10.112156760626698"><ele>184.0</ele><time>2026-04-14T16:11:20.007Z</time></trkpt><trkpt lat="45.602516682806005" lon="10.112247954045342"><ele>184.0</ele><time>2026-04-14T16:11:23.007Z</time></trkpt><trkpt lat="45.60256307202478" lon="10.11233803967618"><ele>184.0</ele><time>2026-04-14T16:11:26.007Z</time></trkpt><trkpt lat="45.602610852779236" lon="10.112415122657492"><ele>183.14285714285714</ele><time>2026-04-14T16:11:29.007Z</time></trkpt><trkpt lat="45.60266601517555" lon="10.112488427604843"><ele>182.28571428571428</ele><time>2026-04-14T16:11:32.007Z</time></trkpt><trkpt lat="45.60271752480139" lon="10.112568362096907"><ele>181.42857142857142</ele><time>2026-04-14T16:11:35.007Z</time></trkpt><trkpt lat="45.60277613651771" lon="10.112634948635941"><ele>180.57142857142856</ele><time>2026-04-14T16:11:38.007Z</time></trkpt><trkpt lat="45.60282193236161" lon="10.112726706143503"><ele>179.71428571428572</ele><time>2026-04-14T16:11:41.007Z</time></trkpt><trkpt lat="45.60287266901122" lon="10.112782098559594"><ele>178.85714285714283</ele><time>2026-04-14T16:11:44.007Z</time></trkpt><trkpt lat="45.602929687869654" lon="10.112842416425547"><ele>178.0</ele><time>2026-04-14T16:11:47.007Z</time></trkpt><trkpt lat="45.6029862941759" lon="10.112904015242634"><ele>177.99999999999997</ele><time>2026-04-14T16:11:50.007Z</time></trkpt><trkpt lat="45.60304301780809" lon="10.112971546792185"><ele>178.0</ele><time>2026-04-14T16:11:53.007Z</time></trkpt><trkpt lat="45.60310582494843" lon="10.113024453349619"><ele>178.0</ele><time>2026-04-14T16:11:56.007Z</time></trkpt><trkpt lat="45.603165238511025" lon="10.11308636815071"><ele>178.0</ele><time>2026-04-14T16:11:59.007Z</time></trkpt><trkpt lat="45.603227958269706" lon="10.113146759997639"><ele>178.0</ele><time>2026-04-14T16:12:02.007Z</time></trkpt><trkpt lat="45.603285887359434" lon="10.11320842880373"><ele>177.99999999999997</ele><time>2026-04-14T16:12:05.002Z</time></trkpt><trkpt lat="45.603346753051305" lon="10.113269715766506"><ele>178.0</ele><time>2026-04-14T16:12:08.002Z</time></trkpt><trkpt lat="45.60340837443776" lon="10.113318962500928"><ele>178.33333333333334</ele><time>2026-04-14T16:12:11.002Z</time></trkpt><trkpt lat="45.60346539772407" lon="10.113389317187364"><ele>178.66666666666669</ele><time>2026-04-14T16:12:14.002Z</time></trkpt><trkpt lat="45.603529402466904" lon="10.113445346241821"><ele>179.0</ele><time>2026-04-14T16:12:17.002Z</time></trkpt><trkpt lat="45.60358757491286" lon="10.113508902360428"><ele>179.33333333333334</ele><time>2026-04-14T16:12:20.002Z</time></trkpt><trkpt lat="45.60364826598334" lon="10.113569098375633"><ele>179.66666666666666</ele><time>2026-04-14T16:12:23.002Z</time></trkpt><trkpt lat="45.603704439944536" lon="10.113639226774842"><ele>180.0</ele><time>2026-04-14T16:12:26.002Z</time></trkpt><trkpt lat="45.60376121909682" lon="10.113714675982834"><ele>180.28571428571428</ele><time>2026-04-14T16:12:29.002Z</time></trkpt><trkpt lat="45.60381867643249" lon="10.113780261206784"><ele>180.57142857142858</ele><time>2026-04-14T16:12:32.002Z</time></trkpt><trkpt lat="45.60387632641542" lon="10.113849165325705"><ele>180.85714285714286</ele><time>2026-04-14T16:12:35.002Z</time></trkpt><trkpt lat="45.60393908211644" lon="10.113909889877867"><ele>181.14285714285714</ele><time>2026-04-14T16:12:38.002Z</time></trkpt><trkpt lat="45.60399609675111" lon="10.113961402718163"><ele>181.42857142857144</ele><time>2026-04-14T16:12:41.002Z</time></trkpt><trkpt lat="45.60405962483828" lon="10.1140232435602"><ele>181.71428571428572</ele><time>2026-04-14T16:12:44.002Z</time></trkpt><trkpt lat="45.60411881191134" lon="10.114084047477126"><ele>182.0</ele><time>2026-04-14T16:12:47.002Z</time></trkpt><trkpt lat="45.60417582906547" lon="10.114144216786466"><ele>182.28571428571428</ele><time>2026-04-14T16:12:50.002Z</time></trkpt><trkpt lat="45.60423278936853" lon="10.114199397352134"><ele>182.57142857142856</ele><time>2026-04-14T16:12:53.003Z</time></trkpt><trkpt lat="45.60430318825712" lon="10.114233040294414"><ele>182.85714285714286</ele><time>2026-04-14T16:12:56.002Z</time></trkpt><trkpt lat="45.604368917205456" lon="10.114228026483266"><ele>183.14285714285714</ele><time>2026-04-14T16:12:59.002Z</time></trkpt><trkpt lat="45.60444615779917" lon="10.114271537094826"><ele>183.42857142857142</ele><time>2026-04-14T16:13:03.003Z</time></trkpt><trkpt lat="45.60446925454504" lon="10.114367600621584"><ele>183.71428571428572</ele><time>2026-04-14T16:13:06.003Z</time></trkpt><trkpt lat="45.60450016784725" lon="10.11445152258268"><ele>184.0</ele><time>2026-04-14T16:13:09.003Z</time></trkpt><trkpt lat="45.60454537101133" lon="10.11453272306087"><ele>184.0</ele><time>2026-04-14T16:13:12.003Z</time></trkpt><trkpt lat="45.6046019638406" lon="10.114595134813245"><ele>184.0</ele><time>2026-04-14T16:13:15.003Z</time></trkpt><trkpt lat="45.60466563918485" lon="10.114645008903352"><ele>184.0</ele><time>2026-04-14T16:13:18.003Z</time></trkpt><trkpt lat="45.604722385308435" lon="10.114694195153836"><ele>184.0</ele><time>2026-04-14T16:13:21.003Z</time></trkpt><trkpt lat="45.60478091053008" lon="10.114758291620895"><ele>184.0</ele><time>2026-04-14T16:13:24.003Z</time></trkpt><trkpt lat="45.60483242502383" lon="10.114817081887281"><ele>184.0</ele><time>2026-04-14T16:13:27.003Z</time></trkpt><trkpt lat="45.604884590131476" lon="10.114879719335542"><ele>184.0</ele><time>2026-04-14T16:13:30.003Z</time></trkpt><trkpt lat="45.60493610528901" lon="10.114940835049019"><ele>185.14285714285714</ele><time>2026-04-14T16:13:33.003Z</time></trkpt><trkpt lat="45.60498576014314" lon="10.11500453680388"><ele>186.28571428571428</ele><time>2026-04-14T16:13:36.003Z</time></trkpt><trkpt lat="45.605030987774924" lon="10.115080238714677"><ele>187.42857142857142</ele><time>2026-04-14T16:13:39.003Z</time></trkpt><trkpt lat="45.60508618652635" lon="10.115156070124895"><ele>188.57142857142856</ele><time>2026-04-14T16:13:42.003Z</time></trkpt><trkpt lat="45.60513085730695" lon="10.115245832391912"><ele>189.71428571428572</ele><time>2026-04-14T16:13:45.003Z</time></trkpt><trkpt lat="45.605173778126" lon="10.11533298323197"><ele>190.85714285714283</ele><time>2026-04-14T16:13:48.003Z</time></trkpt><trkpt lat="45.6052149933734" lon="10.115432549793313"><ele>192.0</ele><time>2026-04-14T16:13:51.003Z</time></trkpt><trkpt lat="45.60525507378723" lon="10.115520690683935"><ele>191.99999999999997</ele><time>2026-04-14T16:13:54.003Z</time></trkpt><trkpt lat="45.60529694333589" lon="10.115606818905492"><ele>192.0</ele><time>2026-04-14T16:13:57.003Z</time></trkpt><trkpt lat="45.60534337420505" lon="10.11569388754285"><ele>192.0</ele><time>2026-04-14T16:14:00.003Z</time></trkpt><trkpt lat="45.605378843622795" lon="10.115791427633281"><ele>192.0</ele><time>2026-04-14T16:14:03.003Z</time></trkpt><trkpt lat="45.605421497638226" lon="10.115871430861286"><ele>192.0</ele><time>2026-04-14T16:14:06.003Z</time></trkpt><trkpt lat="45.60545725130875" lon="10.115956816544708"><ele>191.99999999999997</ele><time>2026-04-14T16:14:09.003Z</time></trkpt><trkpt lat="45.60549742224479" lon="10.116029944740289"><ele>192.0</ele><time>2026-04-14T16:14:12.003Z</time></trkpt><trkpt lat="45.60553851660168" lon="10.116108273340506"><ele>192.16666666666666</ele><time>2026-04-14T16:14:15.003Z</time></trkpt><trkpt lat="45.60556363332989" lon="10.116206357711679"><ele>192.33333333333331</ele><time>2026-04-14T16:14:18.003Z</time></trkpt><trkpt lat="45.60559728823032" lon="10.116308435625001"><ele>192.5</ele><time>2026-04-14T16:14:21.003Z</time></trkpt><trkpt lat="45.60563975508477" lon="10.11639783481365"><ele>192.66666666666666</ele><time>2026-04-14T16:14:24.003Z</time></trkpt><trkpt lat="45.60568403367687" lon="10.116488015877701"><ele>192.83333333333331</ele><time>2026-04-14T16:14:27.003Z</time></trkpt><trkpt lat="45.605726398259286" lon="10.116596148068755"><ele>193.0</ele><time>2026-04-14T16:14:30.003Z</time></trkpt><trkpt lat="45.605710055268766" lon="10.116703319970767"><ele>193.00000000000003</ele><time>2026-04-14T16:14:33.003Z</time></trkpt><trkpt lat="45.60567327183417" lon="10.116788690610337"><ele>193.0</ele><time>2026-04-14T16:14:36.003Z</time></trkpt><trkpt lat="45.60564496354293" lon="10.116875594237897"><ele>193.0</ele><time>2026-04-14T16:14:39.003Z</time></trkpt><trkpt lat="45.60564788053235" lon="10.116972961973868"><ele>193.0</ele><time>2026-04-14T16:14:42.003Z</time></trkpt><trkpt lat="45.605666208616405" lon="10.11706764003355"><ele>193.0</ele><time>2026-04-14T16:14:45.003Z</time></trkpt><trkpt lat="45.60566765764173" lon="10.117168591431552"><ele>193.00000000000003</ele><time>2026-04-14T16:14:48.003Z</time></trkpt><trkpt lat="45.60566951731926" lon="10.117267132794543"><ele>193.0</ele><time>2026-04-14T16:14:51.003Z</time></trkpt><trkpt lat="45.60572343853651" lon="10.117331008213284"><ele>192.99999999999997</ele><time>2026-04-14T16:14:54.003Z</time></trkpt><trkpt lat="45.60580206738273" lon="10.117371266757553"><ele>193.0</ele><time>2026-04-14T16:14:57.003Z</time></trkpt><trkpt lat="45.605842769100775" lon="10.117457250744081"><ele>193.0</ele><time>2026-04-14T16:15:00.003Z</time></trkpt><trkpt lat="45.605879988141176" lon="10.117552844756835"><ele>193.0</ele><time>2026-04-14T16:15:03.003Z</time></trkpt><trkpt lat="45.60591351425042" lon="10.117650477009361"><ele>192.99999999999997</ele><time>2026-04-14T16:15:06.003Z</time></trkpt><trkpt lat="45.60595332847662" lon="10.117726264191889"><ele>193.0</ele><time>2026-04-14T16:15:09.003Z</time></trkpt><trkpt lat="45.60599664118402" lon="10.117814704657196"><ele>192.99999999999997</ele><time>2026-04-14T16:15:12.003Z</time></trkpt><trkpt lat="45.60605145853193" lon="10.1178904014523"><ele>193.0</ele><time>2026-04-14T16:15:15.003Z</time></trkpt><trkpt lat="45.606102683582016" lon="10.117965143496948"><ele>193.0</ele><time>2026-04-14T16:15:18.003Z</time></trkpt><trkpt lat="45.60616171506302" lon="10.118044219616925"><ele>193.0</ele><time>2026-04-14T16:15:21.003Z</time></trkpt><trkpt lat="45.60621420820747" lon="10.118109662943962"><ele>192.99999999999997</ele><time>2026-04-14T16:15:24.003Z</time></trkpt><trkpt lat="45.606272319392055" lon="10.118184425458708"><ele>193.0</ele><time>2026-04-14T16:15:27.003Z</time></trkpt><trkpt lat="45.60632344366735" lon="10.118260538413004"><ele>192.99999999999997</ele><time>2026-04-14T16:15:30.003Z</time></trkpt><trkpt lat="45.6063700840135" lon="10.118348860969403"><ele>193.0</ele><time>2026-04-14T16:15:33.003Z</time></trkpt><trkpt lat="45.606403927288596" lon="10.118441449609017"><ele>193.0</ele><time>2026-04-14T16:15:36.003Z</time></trkpt><trkpt lat="45.606461011031804" lon="10.11851668633363"><ele>193.0</ele><time>2026-04-14T16:15:39.003Z</time></trkpt><trkpt lat="45.606584957290316" lon="10.118538828796977"><ele>192.99999999999997</ele><time>2026-04-14T16:15:44.003Z</time></trkpt><trkpt lat="45.60665178343428" lon="10.118584431661297"><ele>193.0</ele><time>2026-04-14T16:15:47.003Z</time></trkpt><trkpt lat="45.606708475226625" lon="10.11864697823563"><ele>193.00000000000003</ele><time>2026-04-14T16:15:50.003Z</time></trkpt><trkpt lat="45.60676312543167" lon="10.118722490244384"><ele>193.0</ele><time>2026-04-14T16:15:53.003Z</time></trkpt><trkpt lat="45.606822916089186" lon="10.118779161254901"><ele>193.0</ele><time>2026-04-14T16:15:56.003Z</time></trkpt><trkpt lat="45.606874478404805" lon="10.118848383209384"><ele>193.0</ele><time>2026-04-14T16:15:59.003Z</time></trkpt><trkpt lat="45.606923783958635" lon="10.118919026985463"><ele>193.0</ele><time>2026-04-14T16:16:02.003Z</time></trkpt><trkpt lat="45.606979996622" lon="10.118984251748635"><ele>193.00000000000003</ele><time>2026-04-14T16:16:05.003Z</time></trkpt><trkpt lat="45.60703410872989" lon="10.119051909874852"><ele>193.0</ele><time>2026-04-14T16:16:08.003Z</time></trkpt><trkpt lat="45.60709851216799" lon="10.119091945672986"><ele>193.00000000000003</ele><time>2026-04-14T16:16:11.003Z</time></trkpt><trkpt lat="45.60716407268835" lon="10.119126689729255"><ele>193.0</ele><time>2026-04-14T16:16:14.003Z</time></trkpt><trkpt lat="45.60723147331128" lon="10.119133952939897"><ele>193.0</ele><time>2026-04-14T16:16:17.003Z</time></trkpt><trkpt lat="45.60730419157433" lon="10.119148043465234"><ele>193.0</ele><time>2026-04-14T16:16:20.003Z</time></trkpt><trkpt lat="45.607376976088105" lon="10.119168432632083"><ele>193.0</ele><time>2026-04-14T16:16:23.003Z</time></trkpt><trkpt lat="45.6074457893391" lon="10.119184442612834"><ele>193.00000000000003</ele><time>2026-04-14T16:16:26.003Z</time></trkpt><trkpt lat="45.60751522632918" lon="10.119208623427362"><ele>193.0</ele><time>2026-04-14T16:16:29.003Z</time></trkpt><trkpt lat="45.607584052940304" lon="10.119240105243751"><ele>193.00000000000003</ele><time>2026-04-14T16:16:32.003Z</time></trkpt><trkpt lat="45.607650937053286" lon="10.11928695573342"><ele>193.0</ele><time>2026-04-14T16:16:35.003Z</time></trkpt><trkpt lat="45.60771834629029" lon="10.119325663032765"><ele>193.0</ele><time>2026-04-14T16:16:38.003Z</time></trkpt><trkpt lat="45.607787714584035" lon="10.119342224524818"><ele>193.0</ele><time>2026-04-14T16:16:41.003Z</time></trkpt><trkpt lat="45.6078520070125" lon="10.119382027402478"><ele>193.0</ele><time>2026-04-14T16:16:44.003Z</time></trkpt><trkpt lat="45.607919393828574" lon="10.119415230199165"><ele>193.00000000000003</ele><time>2026-04-14T16:16:47.003Z</time></trkpt><trkpt lat="45.607982663483824" lon="10.119462627521143"><ele>193.0</ele><time>2026-04-14T16:16:50.003Z</time></trkpt><trkpt lat="45.60804584131766" lon="10.119514379923324"><ele>192.71428571428572</ele><time>2026-04-14T16:16:53.004Z</time></trkpt><trkpt lat="45.60810698144626" lon="10.119569376314248"><ele>192.42857142857144</ele><time>2026-04-14T16:16:56.004Z</time></trkpt><trkpt lat="45.60817093587553" lon="10.119608003033836"><ele>192.14285714285717</ele><time>2026-04-14T16:16:59.004Z</time></trkpt><trkpt lat="45.60824264446937" lon="10.119647833748065"><ele>191.85714285714286</ele><time>2026-04-14T16:17:02.004Z</time></trkpt><trkpt lat="45.6083126361832" lon="10.119683369211751"><ele>191.57142857142856</ele><time>2026-04-14T16:17:05.003Z</time></trkpt><trkpt lat="45.608377741104064" lon="10.11969956055032"><ele>191.2857142857143</ele><time>2026-04-14T16:17:08.003Z</time></trkpt><trkpt lat="45.60842120689027" lon="10.119622310182676"><ele>191.0</ele><time>2026-04-14T16:17:11.003Z</time></trkpt><trkpt lat="45.60843737125312" lon="10.119499772463698"><ele>191.0</ele><time>2026-04-14T16:17:14.003Z</time></trkpt><trkpt lat="45.608400213226076" lon="10.119405452161729"><ele>191.0</ele><time>2026-04-14T16:17:17.003Z</time></trkpt><trkpt lat="45.608339763432475" lon="10.119344511548444"><ele>191.0</ele><time>2026-04-14T16:17:20.003Z</time></trkpt><trkpt lat="45.608288846195016" lon="10.11926140753369"><ele>191.0</ele><time>2026-04-14T16:17:23.003Z</time></trkpt><trkpt lat="45.608272292991586" lon="10.119155959721141"><ele>191.0</ele><time>2026-04-14T16:17:26.003Z</time></trkpt><trkpt lat="45.60825885611527" lon="10.11905888609409"><ele>191.0</ele><time>2026-04-14T16:17:29.003Z</time></trkpt><trkpt lat="45.608245809057664" lon="10.11896982326546"><ele>191.0</ele><time>2026-04-14T16:17:33.004Z</time></trkpt><trkpt lat="45.60832638548306" lon="10.118922041989794"><ele>191.42857142857144</ele><time>2026-04-14T16:17:36.004Z</time></trkpt><trkpt lat="45.60840277071685" lon="10.118899068578646"><ele>191.85714285714283</ele><time>2026-04-14T16:17:39.004Z</time></trkpt><trkpt lat="45.608455280026114" lon="10.11883854532014"><ele>192.28571428571428</ele><time>2026-04-14T16:17:42.004Z</time></trkpt><trkpt lat="45.6084800795085" lon="10.11872897437786"><ele>192.71428571428572</ele><time>2026-04-14T16:17:45.004Z</time></trkpt><trkpt lat="45.60850346137145" lon="10.118620706924814"><ele>193.14285714285717</ele><time>2026-04-14T16:17:48.004Z</time></trkpt><trkpt lat="45.60852181457083" lon="10.118529447823382"><ele>193.57142857142856</ele><time>2026-04-14T16:17:51.004Z</time></trkpt><trkpt lat="45.60853661757047" lon="10.11842308611524"><ele>194.0</ele><time>2026-04-14T16:17:54.004Z</time></trkpt><trkpt lat="45.60854848400441" lon="10.118323962091857"><ele>194.42857142857142</ele><time>2026-04-14T16:17:57.004Z</time></trkpt><trkpt lat="45.608555918532254" lon="10.118219080863447"><ele>194.85714285714286</ele><time>2026-04-14T16:18:00.004Z</time></trkpt><trkpt lat="45.60857495903962" lon="10.118121134326628"><ele>195.28571428571428</ele><time>2026-04-14T16:18:03.004Z</time></trkpt><trkpt lat="45.60858862251612" lon="10.118029978537276"><ele>195.71428571428572</ele><time>2026-04-14T16:18:06.004Z</time></trkpt><trkpt lat="45.60860520401019" lon="10.117935361119548"><ele>196.14285714285717</ele><time>2026-04-14T16:18:09.004Z</time></trkpt><trkpt lat="45.60860211995022" lon="10.11783081511717"><ele>196.57142857142858</ele><time>2026-04-14T16:18:15.004Z</time></trkpt><trkpt lat="45.60862693054853" lon="10.117732998731428"><ele>197.0</ele><time>2026-04-14T16:18:19.004Z</time></trkpt><trkpt lat="45.60864897930012" lon="10.117613762532638"><ele>197.00000000000003</ele><time>2026-04-14T16:18:22.004Z</time></trkpt><trkpt lat="45.60860962837329" lon="10.117520786152571"><ele>197.0</ele><time>2026-04-14T16:18:24.004Z</time></trkpt><trkpt lat="45.608560054392406" lon="10.117449050691759"><ele>197.0</ele><time>2026-04-14T16:18:26.004Z</time></trkpt><trkpt lat="45.60849718784024" lon="10.117371768835602"><ele>197.0</ele><time>2026-04-14T16:18:29.004Z</time></trkpt><trkpt lat="45.60842991645116" lon="10.117295874996879"><ele>197.00000000000003</ele><time>2026-04-14T16:18:32.004Z</time></trkpt><trkpt lat="45.60836720001084" lon="10.117239074511609"><ele>197.0</ele><time>2026-04-14T16:18:35.004Z</time></trkpt><trkpt lat="45.60830333429847" lon="10.117181199686888"><ele>197.00000000000003</ele><time>2026-04-14T16:18:38.004Z</time></trkpt><trkpt lat="45.6082387915924" lon="10.117118750334795"><ele>197.0</ele><time>2026-04-14T16:18:41.004Z</time></trkpt><trkpt lat="45.60817041784196" lon="10.117054772103945"><ele>197.0</ele><time>2026-04-14T16:18:44.004Z</time></trkpt><trkpt lat="45.60810645467016" lon="10.116999734067678"><ele>197.0</ele><time>2026-04-14T16:18:47.004Z</time></trkpt><trkpt lat="45.608050406346344" lon="10.116920548452052"><ele>197.00000000000003</ele><time>2026-04-14T16:18:50.004Z</time></trkpt><trkpt lat="45.607987586485095" lon="10.116848321462152"><ele>197.0</ele><time>2026-04-14T16:18:53.004Z</time></trkpt><trkpt lat="45.607920707738934" lon="10.11680387473832"><ele>197.00000000000003</ele><time>2026-04-14T16:18:56.004Z</time></trkpt><trkpt lat="45.607860787936836" lon="10.116748507602882"><ele>197.0</ele><time>2026-04-14T16:18:59.004Z</time></trkpt><trkpt lat="45.60778970968328" lon="10.11670368784297"><ele>197.0</ele><time>2026-04-14T16:19:02.004Z</time></trkpt><trkpt lat="45.60772035284091" lon="10.116658360633986"><ele>197.0</ele><time>2026-04-14T16:19:05.004Z</time></trkpt><trkpt lat="45.60765066033227" lon="10.116620541065007"><ele>197.00000000000003</ele><time>2026-04-14T16:19:08.004Z</time></trkpt><trkpt lat="45.60760299451566" lon="10.116540063387788"><ele>197.0</ele><time>2026-04-14T16:19:11.004Z</time></trkpt><trkpt lat="45.60766073040072" lon="10.116465441385838"><ele>197.14285714285714</ele><time>2026-04-14T16:19:14.004Z</time></trkpt><trkpt lat="45.60772694298248" lon="10.116422465886325"><ele>197.28571428571428</ele><time>2026-04-14T16:19:17.004Z</time></trkpt><trkpt lat="45.60779275805722" lon="10.11638213671253"><ele>197.42857142857144</ele><time>2026-04-14T16:19:20.004Z</time></trkpt><trkpt lat="45.607858058947905" lon="10.116346009727904"><ele>197.57142857142856</ele><time>2026-04-14T16:19:23.004Z</time></trkpt><trkpt lat="45.607926203423524" lon="10.116318993112085"><ele>197.7142857142857</ele><time>2026-04-14T16:19:26.004Z</time></trkpt><trkpt lat="45.607991034995464" lon="10.116282827368863"><ele>197.85714285714286</ele><time>2026-04-14T16:19:29.004Z</time></trkpt><trkpt lat="45.608056839094125" lon="10.116262364003022"><ele>198.0</ele><time>2026-04-14T16:19:32.004Z</time></trkpt><trkpt lat="45.608128695616166" lon="10.11623863920259"><ele>198.0</ele><time>2026-04-14T16:19:35.004Z</time></trkpt><trkpt lat="45.60819743366633" lon="10.116216621515635"><ele>198.0</ele><time>2026-04-14T16:19:38.004Z</time></trkpt><trkpt lat="45.60825886957011" lon="10.116182107618448"><ele>198.0</ele><time>2026-04-14T16:19:41.004Z</time></trkpt><trkpt lat="45.608316868922806" lon="10.116115687324909"><ele>198.0</ele><time>2026-04-14T16:19:44.004Z</time></trkpt><trkpt lat="45.608382553246116" lon="10.116065031059428"><ele>198.0</ele><time>2026-04-14T16:19:47.004Z</time></trkpt><trkpt lat="45.60844765049455" lon="10.11602538615317"><ele>198.0</ele><time>2026-04-14T16:19:50.004Z</time></trkpt><trkpt lat="45.608519006939034" lon="10.116012887081078"><ele>198.0</ele><time>2026-04-14T16:19:53.004Z</time></trkpt><trkpt lat="45.60857546517255" lon="10.11595644060518"><ele>198.0</ele><time>2026-04-14T16:19:56.004Z</time></trkpt><trkpt lat="45.6085941310822" lon="10.115869081719055"><ele>198.0</ele><time>2026-04-14T16:19:59.004Z</time></trkpt><trkpt lat="45.608579513049605" lon="10.115775687448838"><ele>198.0</ele><time>2026-04-14T16:20:02.004Z</time></trkpt><trkpt lat="45.608536768852495" lon="10.115656496699387"><ele>198.0</ele><time>2026-04-14T16:20:05.004Z</time></trkpt><trkpt lat="45.608522405273675" lon="10.115537717105124"><ele>198.0</ele><time>2026-04-14T16:20:08.004Z</time></trkpt><trkpt lat="45.6085063116794" lon="10.115431074304844"><ele>198.0</ele><time>2026-04-14T16:20:11.004Z</time></trkpt><trkpt lat="45.608469276334496" lon="10.11532986423584"><ele>197.83333333333334</ele><time>2026-04-14T16:20:14.004Z</time></trkpt><trkpt lat="45.60843249483246" lon="10.115224451707315"><ele>197.66666666666669</ele><time>2026-04-14T16:20:17.004Z</time></trkpt><trkpt lat="45.60840008358498" lon="10.115118665502015"><ele>197.5</ele><time>2026-04-14T16:20:20.004Z</time></trkpt><trkpt lat="45.60836916902447" lon="10.115023288648215"><ele>197.33333333333334</ele><time>2026-04-14T16:20:23.004Z</time></trkpt><trkpt lat="45.60834342714537" lon="10.114912918587686"><ele>197.16666666666669</ele><time>2026-04-14T16:20:26.004Z</time></trkpt><trkpt lat="45.60830834316833" lon="10.114813159609213"><ele>197.0</ele><time>2026-04-14T16:20:29.004Z</time></trkpt><trkpt lat="45.60826622617848" lon="10.11471922847424"><ele>198.28571428571428</ele><time>2026-04-14T16:20:32.004Z</time></trkpt><trkpt lat="45.60822168483897" lon="10.114639866066554"><ele>199.57142857142858</ele><time>2026-04-14T16:20:35.004Z</time></trkpt><trkpt lat="45.60817074023455" lon="10.114567350224803"><ele>200.85714285714283</ele><time>2026-04-14T16:20:38.004Z</time></trkpt><trkpt lat="45.60811350094817" lon="10.11450045046847"><ele>202.14285714285714</ele><time>2026-04-14T16:20:41.004Z</time></trkpt><trkpt lat="45.60806586217891" lon="10.114426862467491"><ele>203.42857142857142</ele><time>2026-04-14T16:20:44.004Z</time></trkpt><trkpt lat="45.60800828963032" lon="10.114348076848403"><ele>204.7142857142857</ele><time>2026-04-14T16:20:47.004Z</time></trkpt><trkpt lat="45.60795484434201" lon="10.11427633603103"><ele>206.0</ele><time>2026-04-14T16:20:50.004Z</time></trkpt><trkpt lat="45.60790237868623" lon="10.114197183524578"><ele>205.99999999999997</ele><time>2026-04-14T16:20:53.004Z</time></trkpt><trkpt lat="45.60785390321804" lon="10.114116856677729"><ele>206.0</ele><time>2026-04-14T16:20:56.004Z</time></trkpt><trkpt lat="45.60779548923056" lon="10.114040120741096"><ele>206.0</ele><time>2026-04-14T16:20:59.004Z</time></trkpt><trkpt lat="45.60774198080999" lon="10.11396790102418"><ele>206.0</ele><time>2026-04-14T16:21:02.004Z</time></trkpt><trkpt lat="45.607705903329105" lon="10.113886870955856"><ele>206.0</ele><time>2026-04-14T16:21:05.004Z</time></trkpt><trkpt lat="45.6076622260991" lon="10.113809602041197"><ele>205.99999999999997</ele><time>2026-04-14T16:21:08.004Z</time></trkpt><trkpt lat="45.60761188113877" lon="10.113724917840647"><ele>206.0</ele><time>2026-04-14T16:21:11.004Z</time></trkpt><trkpt lat="45.607579698408934" lon="10.11364364563287"><ele>205.99999999999997</ele><time>2026-04-14T16:21:14.004Z</time></trkpt><trkpt lat="45.60753627591924" lon="10.113562500343718"><ele>206.0</ele><time>2026-04-14T16:21:17.004Z</time></trkpt><trkpt lat="45.60750371382891" lon="10.113476468234696"><ele>206.0</ele><time>2026-04-14T16:21:20.004Z</time></trkpt><trkpt lat="45.607464182287" lon="10.113401542701672"><ele>206.0</ele><time>2026-04-14T16:21:23.005Z</time></trkpt><trkpt lat="45.60743893704566" lon="10.113310164869738"><ele>206.0</ele><time>2026-04-14T16:21:26.004Z</time></trkpt><trkpt lat="45.60740491352289" lon="10.11321099581034"><ele>205.99999999999997</ele><time>2026-04-14T16:21:29.004Z</time></trkpt><trkpt lat="45.607372917362916" lon="10.113115972495947"><ele>206.0</ele><time>2026-04-14T16:21:32.004Z</time></trkpt><trkpt lat="45.6073428306267" lon="10.113016014720342"><ele>206.00000000000003</ele><time>2026-04-14T16:21:35.004Z</time></trkpt><trkpt lat="45.60730725420313" lon="10.112912579939797"><ele>206.0</ele><time>2026-04-14T16:21:38.005Z</time></trkpt><trkpt lat="45.60727825125375" lon="10.112805996966529"><ele>206.0</ele><time>2026-04-14T16:21:41.005Z</time></trkpt><trkpt lat="45.60726698916041" lon="10.112688055103646"><ele>206.0</ele><time>2026-04-14T16:21:44.005Z</time></trkpt><trkpt lat="45.60725292008689" lon="10.112571928560484"><ele>206.00000000000003</ele><time>2026-04-14T16:21:47.005Z</time></trkpt><trkpt lat="45.607248397105224" lon="10.112464627678008"><ele>206.0</ele><time>2026-04-14T16:21:50.005Z</time></trkpt><trkpt lat="45.60723768043117" lon="10.112359831374343"><ele>206.14285714285714</ele><time>2026-04-14T16:21:53.005Z</time></trkpt><trkpt lat="45.60723028913812" lon="10.112254951940807"><ele>206.28571428571428</ele><time>2026-04-14T16:21:56.005Z</time></trkpt><trkpt lat="45.60722484992256" lon="10.112149761517655"><ele>206.42857142857144</ele><time>2026-04-14T16:21:59.005Z</time></trkpt><trkpt lat="45.607217918422926" lon="10.112043749123504"><ele>206.57142857142856</ele><time>2026-04-14T16:22:02.005Z</time></trkpt><trkpt lat="45.60721012112578" lon="10.111947477334061"><ele>206.71428571428572</ele><time>2026-04-14T16:22:05.005Z</time></trkpt><trkpt lat="45.60719721720673" lon="10.111841877936891"><ele>206.85714285714286</ele><time>2026-04-14T16:22:08.005Z</time></trkpt><trkpt lat="45.60718544840687" lon="10.111743283627751"><ele>207.0</ele><time>2026-04-14T16:22:11.005Z</time></trkpt><trkpt lat="45.60715927803962" lon="10.11165215469365"><ele>206.14285714285717</ele><time>2026-04-14T16:22:14.005Z</time></trkpt><trkpt lat="45.607133532406834" lon="10.111556200087344"><ele>205.28571428571428</ele><time>2026-04-14T16:22:17.005Z</time></trkpt><trkpt lat="45.607116392761355" lon="10.111454234453932"><ele>204.42857142857144</ele><time>2026-04-14T16:22:20.005Z</time></trkpt><trkpt lat="45.607090612009486" lon="10.11135975373851"><ele>203.57142857142858</ele><time>2026-04-14T16:22:23.005Z</time></trkpt><trkpt lat="45.60706243532916" lon="10.111266777753642"><ele>202.71428571428572</ele><time>2026-04-14T16:22:26.005Z</time></trkpt><trkpt lat="45.60704015333534" lon="10.111164072288059"><ele>201.85714285714286</ele><time>2026-04-14T16:22:29.005Z</time></trkpt><trkpt lat="45.60701612436831" lon="10.111065534109027"><ele>201.0</ele><time>2026-04-14T16:22:32.005Z</time></trkpt><trkpt lat="45.6069951509075" lon="10.110978209869428"><ele>200.0</ele><time>2026-04-14T16:22:35.005Z</time></trkpt><trkpt lat="45.60696004233498" lon="10.110887278777478"><ele>199.0</ele><time>2026-04-14T16:22:38.005Z</time></trkpt><trkpt lat="45.60692331543158" lon="10.110795148138019"><ele>198.0</ele><time>2026-04-14T16:22:41.005Z</time></trkpt><trkpt lat="45.60687531839452" lon="10.110719446340864"><ele>197.0</ele><time>2026-04-14T16:22:44.005Z</time></trkpt><trkpt lat="45.60682805601851" lon="10.11065319314379"><ele>196.0</ele><time>2026-04-14T16:22:47.005Z</time></trkpt><trkpt lat="45.606777702350314" lon="10.110561852498273"><ele>195.0</ele><time>2026-04-14T16:22:51.005Z</time></trkpt><trkpt lat="45.60672567893098" lon="10.110500311743497"><ele>194.0</ele><time>2026-04-14T16:22:54.005Z</time></trkpt><trkpt lat="45.60666482782892" lon="10.110448015569453"><ele>194.0</ele><time>2026-04-14T16:22:57.005Z</time></trkpt><trkpt lat="45.606607285694565" lon="10.110403486041495"><ele>194.0</ele><time>2026-04-14T16:23:00.005Z</time></trkpt><trkpt lat="45.606546497284604" lon="10.110353538242661"><ele>194.0</ele><time>2026-04-14T16:23:03.005Z</time></trkpt><trkpt lat="45.60648230046116" lon="10.110300372946396"><ele>194.0</ele><time>2026-04-14T16:23:06.005Z</time></trkpt><trkpt lat="45.606428792446124" lon="10.110250398701934"><ele>194.0</ele><time>2026-04-14T16:23:09.005Z</time></trkpt><trkpt lat="45.60636139795058" lon="10.110209739616964"><ele>194.0</ele><time>2026-04-14T16:23:12.005Z</time></trkpt><trkpt lat="45.60628610812268" lon="10.110188877512025"><ele>194.0</ele><time>2026-04-14T16:23:15.005Z</time></trkpt><trkpt lat="45.60624888541333" lon="10.11008040786164"><ele>194.00000000000003</ele><time>2026-04-14T16:23:18.005Z</time></trkpt><trkpt lat="45.60622029541744" lon="10.109973146187585"><ele>194.0</ele><time>2026-04-14T16:23:21.005Z</time></trkpt><trkpt lat="45.60619072434151" lon="10.10985941208523"><ele>194.0</ele><time>2026-04-14T16:23:24.004Z</time></trkpt><trkpt lat="45.6061513619565" lon="10.109767558027768"><ele>194.0</ele><time>2026-04-14T16:23:27.005Z</time></trkpt><trkpt lat="45.606104246912736" lon="10.109697553568354"><ele>194.00000000000003</ele><time>2026-04-14T16:23:30.005Z</time></trkpt><trkpt lat="45.606034607880716" lon="10.109654019945587"><ele>194.0</ele><time>2026-04-14T16:23:33.005Z</time></trkpt><trkpt lat="45.60596429812714" lon="10.109615501933817"><ele>194.28571428571428</ele><time>2026-04-14T16:23:36.005Z</time></trkpt><trkpt lat="45.605902507776804" lon="10.109590476855148"><ele>194.57142857142858</ele><time>2026-04-14T16:23:39.005Z</time></trkpt><trkpt lat="45.605835788888236" lon="10.109574899134255"><ele>194.85714285714286</ele><time>2026-04-14T16:23:42.005Z</time></trkpt><trkpt lat="45.60576887240068" lon="10.109551874603403"><ele>195.14285714285714</ele><time>2026-04-14T16:23:45.005Z</time></trkpt><trkpt lat="45.60570066237801" lon="10.109500300911241"><ele>195.42857142857144</ele><time>2026-04-14T16:23:48.005Z</time></trkpt><trkpt lat="45.60563379303609" lon="10.109464166236082"><ele>195.71428571428572</ele><time>2026-04-14T16:23:51.005Z</time></trkpt><trkpt lat="45.60556697026306" lon="10.109401699027503"><ele>196.0</ele><time>2026-04-14T16:23:54.005Z</time></trkpt><trkpt lat="45.605496663557055" lon="10.109350640829572"><ele>195.99999999999997</ele><time>2026-04-14T16:23:57.005Z</time></trkpt><trkpt lat="45.605421627922816" lon="10.109316939132055"><ele>196.0</ele><time>2026-04-14T16:24:00.005Z</time></trkpt><trkpt lat="45.605342333565424" lon="10.109311418073835"><ele>196.0</ele><time>2026-04-14T16:24:03.005Z</time></trkpt><trkpt lat="45.605264322404864" lon="10.10934172458309"><ele>196.0</ele><time>2026-04-14T16:24:06.005Z</time></trkpt><trkpt lat="45.60519903391242" lon="10.109392131264075"><ele>195.99999999999997</ele><time>2026-04-14T16:24:09.005Z</time></trkpt><trkpt lat="45.60513096500322" lon="10.109434861529051"><ele>196.0</ele><time>2026-04-14T16:24:12.005Z</time></trkpt><trkpt lat="45.605060599502394" lon="10.109481403892287"><ele>194.66666666666666</ele><time>2026-04-14T16:24:15.005Z</time></trkpt><trkpt lat="45.60501647032372" lon="10.109577566499429"><ele>193.33333333333331</ele><time>2026-04-14T16:24:18.005Z</time></trkpt><trkpt lat="45.60498777800156" lon="10.10967511442259"><ele>192.0</ele><time>2026-04-14T16:24:21.005Z</time></trkpt><trkpt lat="45.604961864237744" lon="10.109781745743787"><ele>190.66666666666666</ele><time>2026-04-14T16:24:24.005Z</time></trkpt><trkpt lat="45.604938592196525" lon="10.109885298659044"><ele>189.33333333333331</ele><time>2026-04-14T16:24:27.005Z</time></trkpt><trkpt lat="45.604893444885256" lon="10.109973631564284"><ele>188.0</ele><time>2026-04-14T16:24:30.005Z</time></trkpt><trkpt lat="45.60484532080886" lon="10.110056414269426"><ele>187.57142857142856</ele><time>2026-04-14T16:24:33.005Z</time></trkpt><trkpt lat="45.6047930520551" lon="10.110134019271683"><ele>187.14285714285714</ele><time>2026-04-14T16:24:36.005Z</time></trkpt><trkpt lat="45.60474501148225" lon="10.110217292862218"><ele>186.71428571428572</ele><time>2026-04-14T16:24:39.005Z</time></trkpt><trkpt lat="45.604689493932256" lon="10.110285461631383"><ele>186.28571428571428</ele><time>2026-04-14T16:24:42.005Z</time></trkpt><trkpt lat="45.60463085732939" lon="10.11035819054799"><ele>185.85714285714286</ele><time>2026-04-14T16:24:45.005Z</time></trkpt><trkpt lat="45.60458242357891" lon="10.110441197521844"><ele>185.42857142857142</ele><time>2026-04-14T16:24:48.005Z</time></trkpt><trkpt lat="45.604546613137906" lon="10.110521325070026"><ele>185.0</ele><time>2026-04-14T16:24:51.005Z</time></trkpt><trkpt lat="45.60451221323512" lon="10.110619440311877"><ele>184.57142857142856</ele><time>2026-04-14T16:24:54.005Z</time></trkpt><trkpt lat="45.604488484613114" lon="10.110718904404994"><ele>184.14285714285714</ele><time>2026-04-14T16:24:57.005Z</time></trkpt><trkpt lat="45.6044613626596" lon="10.11081979536901"><ele>183.71428571428572</ele><time>2026-04-14T16:25:00.006Z</time></trkpt><trkpt lat="45.60443977636631" lon="10.110912244456044"><ele>183.28571428571428</ele><time>2026-04-14T16:25:03.006Z</time></trkpt><trkpt lat="45.60442176573036" lon="10.11100676377473"><ele>182.85714285714286</ele><time>2026-04-14T16:25:06.006Z</time></trkpt><trkpt lat="45.60440065319163" lon="10.111110126783199"><ele>182.42857142857142</ele><time>2026-04-14T16:25:10.006Z</time></trkpt><trkpt lat="45.60437460099101" lon="10.11121336048657"><ele>182.0</ele><time>2026-04-14T16:25:13.006Z</time></trkpt><trkpt lat="45.604350290260236" lon="10.111307920054752"><ele>182.0</ele><time>2026-04-14T16:25:16.006Z</time></trkpt><trkpt lat="45.604319448702704" lon="10.111400012287167"><ele>182.0</ele><time>2026-04-14T16:25:19.006Z</time></trkpt><trkpt lat="45.60429565004329" lon="10.111491528611566"><ele>182.0</ele><time>2026-04-14T16:25:22.006Z</time></trkpt><trkpt lat="45.604279025234284" lon="10.111584982408097"><ele>182.0</ele><time>2026-04-14T16:25:25.006Z</time></trkpt><trkpt lat="45.60425413825599" lon="10.1116964422068"><ele>182.0</ele><time>2026-04-14T16:25:29.006Z</time></trkpt><trkpt lat="45.60425622671481" lon="10.11180898888188"><ele>182.0</ele><time>2026-04-14T16:25:32.006Z</time></trkpt><trkpt lat="45.60423271036554" lon="10.111902335724993"><ele>182.0</ele><time>2026-04-14T16:25:35.006Z</time></trkpt><trkpt lat="45.60420662039413" lon="10.111993530186286"><ele>182.28571428571428</ele><time>2026-04-14T16:25:38.005Z</time></trkpt><trkpt lat="45.60418373457616" lon="10.112088822684571"><ele>182.57142857142856</ele><time>2026-04-14T16:25:41.005Z</time></trkpt><trkpt lat="45.604135452501076" lon="10.112148241025844"><ele>182.85714285714286</ele><time>2026-04-14T16:25:44.005Z</time></trkpt><trkpt lat="45.60405646627304" lon="10.112188147927593"><ele>183.14285714285714</ele><time>2026-04-14T16:25:47.005Z</time></trkpt><trkpt lat="45.6039883404353" lon="10.112235895893454"><ele>183.42857142857142</ele><time>2026-04-14T16:25:50.005Z</time></trkpt><trkpt lat="45.603922348932656" lon="10.112279776268887"><ele>183.71428571428572</ele><time>2026-04-14T16:25:53.005Z</time></trkpt><trkpt lat="45.60385901795251" lon="10.11228295422173"><ele>184.0</ele><time>2026-04-14T16:25:56.005Z</time></trkpt><trkpt lat="45.603781537716074" lon="10.112296173940535"><ele>184.0</ele><time>2026-04-14T16:25:59.005Z</time></trkpt><trkpt lat="45.60370115548907" lon="10.112273309567833"><ele>184.0</ele><time>2026-04-14T16:26:02.005Z</time></trkpt><trkpt lat="45.60363895917297" lon="10.112229804367672"><ele>184.0</ele><time>2026-04-14T16:26:05.005Z</time></trkpt><trkpt lat="45.60357777225767" lon="10.112179097703628"><ele>184.0</ele><time>2026-04-14T16:26:08.005Z</time></trkpt><trkpt lat="45.60351796946931" lon="10.112117782226736"><ele>184.0</ele><time>2026-04-14T16:26:11.005Z</time></trkpt><trkpt lat="45.60344220234874" lon="10.112094978224501"><ele>184.0</ele><time>2026-04-14T16:26:14.005Z</time></trkpt><trkpt lat="45.60337978282089" lon="10.112034255007478"><ele>184.0</ele><time>2026-04-14T16:26:17.005Z</time></trkpt><trkpt lat="45.6033016319638" lon="10.112017014485822"><ele>183.33333333333334</ele><time>2026-04-14T16:26:20.005Z</time></trkpt><trkpt lat="45.603233994711175" lon="10.111952680731102"><ele>182.66666666666669</ele><time>2026-04-14T16:26:23.005Z</time></trkpt><trkpt lat="45.60315789501535" lon="10.1119066552185"><ele>182.0</ele><time>2026-04-14T16:26:26.005Z</time></trkpt><trkpt lat="45.603086665286654" lon="10.111851873506257"><ele>181.33333333333334</ele><time>2026-04-14T16:26:29.005Z</time></trkpt><trkpt lat="45.60302024781872" lon="10.111803949299727"><ele>180.66666666666666</ele><time>2026-04-14T16:26:32.005Z</time></trkpt><trkpt lat="45.60294765585927" lon="10.111769400832655"><ele>180.0</ele><time>2026-04-14T16:26:35.005Z</time></trkpt><trkpt lat="45.60288402364582" lon="10.11171919888503"><ele>180.14285714285714</ele><time>2026-04-14T16:26:38.005Z</time></trkpt><trkpt lat="45.60281972163294" lon="10.111674558489165"><ele>180.2857142857143</ele><time>2026-04-14T16:26:41.006Z</time></trkpt><trkpt lat="45.60275552337372" lon="10.111627667544504"><ele>180.42857142857144</ele><time>2026-04-14T16:26:44.006Z</time></trkpt><trkpt lat="45.60269285801859" lon="10.111592855121794"><ele>180.57142857142856</ele><time>2026-04-14T16:26:47.006Z</time></trkpt><trkpt lat="45.602619829073454" lon="10.11153336578602"><ele>180.71428571428572</ele><time>2026-04-14T16:26:50.006Z</time></trkpt><trkpt lat="45.60255559554661" lon="10.111491430396295"><ele>180.85714285714286</ele><time>2026-04-14T16:26:53.006Z</time></trkpt><trkpt lat="45.60248280043649" lon="10.111443497311797"><ele>181.0</ele><time>2026-04-14T16:26:56.006Z</time></trkpt><trkpt lat="45.60241603969125" lon="10.111383253310077"><ele>181.0</ele><time>2026-04-14T16:26:59.006Z</time></trkpt><trkpt lat="45.602337887911986" lon="10.111327215753352"><ele>181.0</ele><time>2026-04-14T16:27:02.006Z</time></trkpt><trkpt lat="45.60227711698896" lon="10.1112777770357"><ele>181.0</ele><time>2026-04-14T16:27:05.006Z</time></trkpt><trkpt lat="45.602204032454566" lon="10.111235776417429"><ele>181.0</ele><time>2026-04-14T16:27:08.006Z</time></trkpt><trkpt lat="45.60214134775898" lon="10.11117504792316"><ele>181.0</ele><time>2026-04-14T16:27:11.006Z</time></trkpt><trkpt lat="45.60207391889748" lon="10.111114964297167"><ele>181.0</ele><time>2026-04-14T16:27:14.006Z</time></trkpt><trkpt lat="45.60199937235243" lon="10.111062263532189"><ele>181.33333333333334</ele><time>2026-04-14T16:27:17.006Z</time></trkpt><trkpt lat="45.60192527107794" lon="10.111024472054138"><ele>181.66666666666669</ele><time>2026-04-14T16:27:20.006Z</time></trkpt><trkpt lat="45.60185121689605" lon="10.11096184344346"><ele>182.0</ele><time>2026-04-14T16:27:23.006Z</time></trkpt><trkpt lat="45.60177679471236" lon="10.110912497104342"><ele>182.33333333333334</ele><time>2026-04-14T16:27:26.006Z</time></trkpt><trkpt lat="45.60170396066494" lon="10.110846263207337"><ele>182.66666666666666</ele><time>2026-04-14T16:27:29.006Z</time></trkpt><trkpt lat="45.6016284861855" lon="10.110798780225206"><ele>183.0</ele><time>2026-04-14T16:27:32.006Z</time></trkpt><trkpt lat="45.60155363401959" lon="10.110742230349844"><ele>182.66666666666666</ele><time>2026-04-14T16:27:35.005Z</time></trkpt><trkpt lat="45.60147738686991" lon="10.110694179500422"><ele>182.33333333333334</ele><time>2026-04-14T16:27:38.005Z</time></trkpt><trkpt lat="45.6013979208298" lon="10.110640735908069"><ele>182.0</ele><time>2026-04-14T16:27:41.006Z</time></trkpt><trkpt lat="45.60133453223515" lon="10.11059485831043"><ele>181.66666666666669</ele><time>2026-04-14T16:27:44.006Z</time></trkpt><trkpt lat="45.601273531817476" lon="10.110552579752229"><ele>181.33333333333334</ele><time>2026-04-14T16:27:47.006Z</time></trkpt><trkpt lat="45.6012082386007" lon="10.1104968867668"><ele>181.0</ele><time>2026-04-14T16:27:50.006Z</time></trkpt><trkpt lat="45.6011386354696" lon="10.110445341780753"><ele>180.33333333333334</ele><time>2026-04-14T16:27:53.006Z</time></trkpt><trkpt lat="45.60106606806883" lon="10.110414159437445"><ele>179.66666666666669</ele><time>2026-04-14T16:27:56.006Z</time></trkpt><trkpt lat="45.6010000800604" lon="10.11037742843225"><ele>179.0</ele><time>2026-04-14T16:27:59.006Z</time></trkpt><trkpt lat="45.60096496886524" lon="10.110292251333254"><ele>178.33333333333334</ele><time>2026-04-14T16:28:02.006Z</time></trkpt><trkpt lat="45.60097838610715" lon="10.110169301149233"><ele>177.66666666666666</ele><time>2026-04-14T16:28:05.006Z</time></trkpt><trkpt lat="45.60099430833686" lon="10.110064859631342"><ele>177.0</ele><time>2026-04-14T16:28:08.006Z</time></trkpt><trkpt lat="45.60100584183673" lon="10.109955008532475"><ele>176.85714285714286</ele><time>2026-04-14T16:28:11.006Z</time></trkpt><trkpt lat="45.601011458290806" lon="10.109843817354339"><ele>176.7142857142857</ele><time>2026-04-14T16:28:14.006Z</time></trkpt><trkpt lat="45.601010631708334" lon="10.109736264461308"><ele>176.57142857142856</ele><time>2026-04-14T16:28:17.006Z</time></trkpt><trkpt lat="45.60101856456386" lon="10.109637259290498"><ele>176.42857142857144</ele><time>2026-04-14T16:28:20.006Z</time></trkpt><trkpt lat="45.601042570850716" lon="10.109533654126196"><ele>176.28571428571428</ele><time>2026-04-14T16:28:23.006Z</time></trkpt><trkpt lat="45.60105995976468" lon="10.109444055157123"><ele>176.14285714285714</ele><time>2026-04-14T16:28:26.006Z</time></trkpt><trkpt lat="45.601093411460795" lon="10.10933642713312"><ele>176.0</ele><time>2026-04-14T16:28:29.006Z</time></trkpt><trkpt lat="45.601122228762655" lon="10.109241834009186"><ele>176.0</ele><time>2026-04-14T16:28:32.007Z</time></trkpt><trkpt lat="45.60113428952174" lon="10.109138568340146"><ele>176.0</ele><time>2026-04-14T16:28:35.007Z</time></trkpt><trkpt lat="45.60114498407604" lon="10.109024105216479"><ele>176.0</ele><time>2026-04-14T16:28:38.007Z</time></trkpt><trkpt lat="45.60115793456748" lon="10.108913571648024"><ele>176.0</ele><time>2026-04-14T16:28:41.007Z</time></trkpt><trkpt lat="45.60118168729868" lon="10.10880192697785"><ele>176.0</ele><time>2026-04-14T16:28:44.007Z</time></trkpt><trkpt lat="45.60119336856254" lon="10.108679598296614"><ele>176.0</ele><time>2026-04-14T16:28:47.007Z</time></trkpt><trkpt lat="45.601197823392006" lon="10.108561628878787"><ele>176.0</ele><time>2026-04-14T16:28:50.007Z</time></trkpt><trkpt lat="45.601205190743634" lon="10.10844482442322"><ele>176.0</ele><time>2026-04-14T16:28:53.007Z</time></trkpt><trkpt lat="45.60119328025143" lon="10.108346487318572"><ele>176.0</ele><time>2026-04-14T16:28:56.007Z</time></trkpt><trkpt lat="45.60111815011706" lon="10.108295576278545"><ele>176.0</ele><time>2026-04-14T16:28:59.007Z</time></trkpt><trkpt lat="45.60105277236438" lon="10.10825702363629"><ele>176.0</ele><time>2026-04-14T16:29:02.007Z</time></trkpt><trkpt lat="45.600987449857946" lon="10.108199913745036"><ele>176.0</ele><time>2026-04-14T16:29:05.007Z</time></trkpt><trkpt lat="45.600918580598076" lon="10.108147691563897"><ele>176.42857142857144</ele><time>2026-04-14T16:29:08.007Z</time></trkpt><trkpt lat="45.60085142763447" lon="10.108122197781078"><ele>176.85714285714286</ele><time>2026-04-14T16:29:11.007Z</time></trkpt><trkpt lat="45.60077874376742" lon="10.108114485998453"><ele>177.28571428571428</ele><time>2026-04-14T16:29:14.007Z</time></trkpt><trkpt lat="45.60070703584704" lon="10.108105776415686"><ele>177.71428571428572</ele><time>2026-04-14T16:29:17.007Z</time></trkpt><trkpt lat="45.60063104505216" lon="10.108067626218967"><ele>178.14285714285714</ele><time>2026-04-14T16:29:20.007Z</time></trkpt><trkpt lat="45.60057081058439" lon="10.108024493580075"><ele>178.57142857142858</ele><time>2026-04-14T16:29:23.007Z</time></trkpt><trkpt lat="45.60051797825723" lon="10.107949724043156"><ele>179.0</ele><time>2026-04-14T16:29:26.007Z</time></trkpt><trkpt lat="45.60045012481224" lon="10.107892717805571"><ele>179.0</ele><time>2026-04-14T16:29:29.007Z</time></trkpt><trkpt lat="45.600390793512325" lon="10.107834684872044"><ele>179.0</ele><time>2026-04-14T16:29:32.007Z</time></trkpt><trkpt lat="45.60032329414672" lon="10.107790116787474"><ele>179.0</ele><time>2026-04-14T16:29:35.007Z</time></trkpt><trkpt lat="45.60025620561247" lon="10.107715811006635"><ele>179.0</ele><time>2026-04-14T16:29:38.007Z</time></trkpt><trkpt lat="45.60019909467224" lon="10.107648873297451"><ele>179.0</ele><time>2026-04-14T16:29:41.006Z</time></trkpt><trkpt lat="45.600144591907565" lon="10.107581283060291"><ele>179.0</ele><time>2026-04-14T16:29:44.007Z</time></trkpt><trkpt lat="45.60007373403318" lon="10.107519978808433"><ele>178.83333333333331</ele><time>2026-04-14T16:29:47.006Z</time></trkpt><trkpt lat="45.60002116473012" lon="10.107466393648346"><ele>178.66666666666666</ele><time>2026-04-14T16:29:50.006Z</time></trkpt><trkpt lat="45.599932691727815" lon="10.107471180224795"><ele>178.5</ele><time>2026-04-14T16:29:53.006Z</time></trkpt><trkpt lat="45.59985728890953" lon="10.107428855562787"><ele>178.33333333333334</ele><time>2026-04-14T16:29:56.006Z</time></trkpt><trkpt lat="45.59977895613173" lon="10.107395659749937"><ele>178.16666666666669</ele><time>2026-04-14T16:29:59.006Z</time></trkpt><trkpt lat="45.59971206275465" lon="10.107339848739043"><ele>178.0</ele><time>2026-04-14T16:30:02.006Z</time></trkpt><trkpt lat="45.59965324553709" lon="10.107273423792446"><ele>178.0</ele><time>2026-04-14T16:30:05.006Z</time></trkpt><trkpt lat="45.59958286789999" lon="10.107218732038172"><ele>178.0</ele><time>2026-04-14T16:30:08.006Z</time></trkpt><trkpt lat="45.599522328415276" lon="10.107156575045869"><ele>178.0</ele><time>2026-04-14T16:30:11.006Z</time></trkpt><trkpt lat="45.59946665027427" lon="10.107076345676083"><ele>178.0</ele><time>2026-04-14T16:30:14.006Z</time></trkpt><trkpt lat="45.59940117752029" lon="10.10700331318713"><ele>178.0</ele><time>2026-04-14T16:30:17.006Z</time></trkpt><trkpt lat="45.5993390492667" lon="10.10693876374639"><ele>178.0</ele><time>2026-04-14T16:30:20.006Z</time></trkpt><trkpt lat="45.59926811161289" lon="10.106894578121361"><ele>177.99999999999997</ele><time>2026-04-14T16:30:23.006Z</time></trkpt><trkpt lat="45.59920305010194" lon="10.106846834867175"><ele>178.0</ele><time>2026-04-14T16:30:26.007Z</time></trkpt><trkpt lat="45.59914200133894" lon="10.106791955380816"><ele>178.0</ele><time>2026-04-14T16:30:29.007Z</time></trkpt><trkpt lat="45.59908424464465" lon="10.106735786525348"><ele>178.0</ele><time>2026-04-14T16:30:32.007Z</time></trkpt><trkpt lat="45.59902626188533" lon="10.106693884494733"><ele>178.0</ele><time>2026-04-14T16:30:35.007Z</time></trkpt><trkpt lat="45.598971043086685" lon="10.106632448807103"><ele>177.99999999999997</ele><time>2026-04-14T16:30:38.007Z</time></trkpt><trkpt lat="45.598885937766106" lon="10.106617486842307"><ele>178.0</ele><time>2026-04-14T16:30:41.007Z</time></trkpt><trkpt lat="45.59881028453353" lon="10.106581658970743"><ele>178.14285714285714</ele><time>2026-04-14T16:30:44.007Z</time></trkpt><trkpt lat="45.598748157017205" lon="10.106520070556474"><ele>178.28571428571428</ele><time>2026-04-14T16:30:47.007Z</time></trkpt><trkpt lat="45.59868330518729" lon="10.106466424807618"><ele>178.42857142857144</ele><time>2026-04-14T16:30:50.007Z</time></trkpt><trkpt lat="45.59861946285808" lon="10.10641676713846"><ele>178.57142857142856</ele><time>2026-04-14T16:30:53.007Z</time></trkpt><trkpt lat="45.59855748669881" lon="10.106363106183245"><ele>178.71428571428572</ele><time>2026-04-14T16:30:56.007Z</time></trkpt><trkpt lat="45.59849179901964" lon="10.106327029710451"><ele>178.85714285714286</ele><time>2026-04-14T16:30:59.007Z</time></trkpt><trkpt lat="45.59842136111179" lon="10.106295029693037"><ele>179.0</ele><time>2026-04-14T16:31:02.007Z</time></trkpt><trkpt lat="45.59833431243275" lon="10.106302066517994"><ele>179.0</ele><time>2026-04-14T16:31:05.007Z</time></trkpt><trkpt lat="45.59825242883335" lon="10.10629278220145"><ele>179.0</ele><time>2026-04-14T16:31:08.007Z</time></trkpt><trkpt lat="45.598174728157986" lon="10.106279044517981"><ele>179.0</ele><time>2026-04-14T16:31:11.007Z</time></trkpt><trkpt lat="45.598098907196636" lon="10.10625555086694"><ele>179.0</ele><time>2026-04-14T16:31:14.007Z</time></trkpt><trkpt lat="45.598020501439635" lon="10.106229597382297"><ele>179.0</ele><time>2026-04-14T16:31:17.007Z</time></trkpt><trkpt lat="45.59794714317477" lon="10.106207649792493"><ele>179.0</ele><time>2026-04-14T16:31:20.006Z</time></trkpt><trkpt lat="45.597891418782645" lon="10.106285745849773"><ele>179.0</ele><time>2026-04-14T16:31:23.006Z</time></trkpt><trkpt lat="45.597868485513914" lon="10.10639351112025"><ele>179.0</ele><time>2026-04-14T16:31:26.006Z</time></trkpt><trkpt lat="45.59784005485436" lon="10.10649360541469"><ele>179.0</ele><time>2026-04-14T16:31:29.005Z</time></trkpt><trkpt lat="45.59783374969966" lon="10.106594895097384"><ele>179.0</ele><time>2026-04-14T16:31:32.005Z</time></trkpt><trkpt lat="45.59780644317964" lon="10.106708182917872"><ele>179.0</ele><time>2026-04-14T16:31:35.005Z</time></trkpt><trkpt lat="45.59776701987462" lon="10.10682017773469"><ele>179.0</ele><time>2026-04-14T16:31:38.005Z</time></trkpt><trkpt lat="45.59774424835482" lon="10.10692649271073"><ele>178.33333333333331</ele><time>2026-04-14T16:31:41.005Z</time></trkpt><trkpt lat="45.59771312391022" lon="10.107026020144756"><ele>177.66666666666666</ele><time>2026-04-14T16:31:44.005Z</time></trkpt><trkpt lat="45.59768169730533" lon="10.107131564233239"><ele>177.0</ele><time>2026-04-14T16:31:47.005Z</time></trkpt><trkpt lat="45.59765835350582" lon="10.10724036632872"><ele>176.33333333333334</ele><time>2026-04-14T16:31:50.004Z</time></trkpt><trkpt lat="45.597635079348386" lon="10.107334870735388"><ele>175.66666666666669</ele><time>2026-04-14T16:31:53.005Z</time></trkpt><trkpt lat="45.59758579310397" lon="10.107424577258392"><ele>175.0</ele><time>2026-04-14T16:31:56.005Z</time></trkpt><trkpt lat="45.597524318287434" lon="10.107474336978903"><ele>174.66666666666669</ele><time>2026-04-14T16:31:58.004Z</time></trkpt><trkpt lat="45.59746321502702" lon="10.107567779821318"><ele>174.33333333333334</ele><time>2026-04-14T16:32:01.004Z</time></trkpt><trkpt lat="45.59741751818641" lon="10.107670323198723"><ele>174.0</ele><time>2026-04-14T16:32:04.004Z</time></trkpt><trkpt lat="45.59738787262855" lon="10.107787351920635"><ele>173.66666666666666</ele><time>2026-04-14T16:32:07.004Z</time></trkpt><trkpt lat="45.59735546390114" lon="10.10788711911259"><ele>173.33333333333331</ele><time>2026-04-14T16:32:10.004Z</time></trkpt><trkpt lat="45.59730763036205" lon="10.10797141596067"><ele>173.0</ele><time>2026-04-14T16:32:13.004Z</time></trkpt><trkpt lat="45.59726296656611" lon="10.108053749408846"><ele>173.0</ele><time>2026-04-14T16:32:16.004Z</time></trkpt><trkpt lat="45.597214803338495" lon="10.108141563719213"><ele>173.0</ele><time>2026-04-14T16:32:19.004Z</time></trkpt><trkpt lat="45.597161951198515" lon="10.108226287346687"><ele>173.0</ele><time>2026-04-14T16:32:22.004Z</time></trkpt><trkpt lat="45.59709751493514" lon="10.108304077562714"><ele>173.0</ele><time>2026-04-14T16:32:25.004Z</time></trkpt><trkpt lat="45.59703719196234" lon="10.108390529365753"><ele>173.0</ele><time>2026-04-14T16:32:28.004Z</time></trkpt><trkpt lat="45.59699136324516" lon="10.108454745582312"><ele>173.0</ele><time>2026-04-14T16:32:30.004Z</time></trkpt><trkpt lat="45.59693876355965" lon="10.108507131087757"><ele>173.16666666666666</ele><time>2026-04-14T16:32:32.004Z</time></trkpt><trkpt lat="45.59686647411604" lon="10.10857641665107"><ele>173.33333333333331</ele><time>2026-04-14T16:32:35.004Z</time></trkpt><trkpt lat="45.59678393303362" lon="10.108616506124031"><ele>173.5</ele><time>2026-04-14T16:32:38.004Z</time></trkpt><trkpt lat="45.596704803885316" lon="10.10865973458782"><ele>173.66666666666666</ele><time>2026-04-14T16:32:41.004Z</time></trkpt><trkpt lat="45.59664890951685" lon="10.108734996869236"><ele>173.83333333333334</ele><time>2026-04-14T16:32:44.004Z</time></trkpt><trkpt lat="45.59660428950051" lon="10.108804089142563"><ele>174.0</ele><time>2026-04-14T16:32:47.004Z</time></trkpt><trkpt lat="45.596532966231685" lon="10.1088136499248"><ele>174.0</ele><time>2026-04-14T16:32:50.004Z</time></trkpt><trkpt lat="45.5964496836773" lon="10.108791926592625"><ele>174.0</ele><time>2026-04-14T16:32:53.004Z</time></trkpt><trkpt lat="45.59636585620803" lon="10.10882043705299"><ele>174.0</ele><time>2026-04-14T16:32:56.004Z</time></trkpt><trkpt lat="45.59628615777666" lon="10.108822842962587"><ele>174.0</ele><time>2026-04-14T16:32:59.004Z</time></trkpt><trkpt lat="45.596205536320674" lon="10.10882995736169"><ele>174.0</ele><time>2026-04-14T16:33:02.004Z</time></trkpt><trkpt lat="45.59614440759788" lon="10.108892475121872"><ele>174.0</ele><time>2026-04-14T16:33:05.004Z</time></trkpt><trkpt lat="45.59607005956116" lon="10.108946043096065"><ele>174.14285714285714</ele><time>2026-04-14T16:33:09.004Z</time></trkpt><trkpt lat="45.59599950196243" lon="10.108979484299569"><ele>174.28571428571428</ele><time>2026-04-14T16:33:12.004Z</time></trkpt><trkpt lat="45.5959337322301" lon="10.109014422201005"><ele>174.42857142857144</ele><time>2026-04-14T16:33:15.004Z</time></trkpt><trkpt lat="45.59587486444934" lon="10.109046690610349"><ele>174.57142857142856</ele><time>2026-04-14T16:33:18.004Z</time></trkpt><trkpt lat="45.595809913704365" lon="10.109090927465559"><ele>174.71428571428572</ele><time>2026-04-14T16:33:21.004Z</time></trkpt><trkpt lat="45.59573783731834" lon="10.109119542642777"><ele>174.85714285714286</ele><time>2026-04-14T16:33:24.004Z</time></trkpt><trkpt lat="45.59566001402978" lon="10.109153708584488"><ele>175.0</ele><time>2026-04-14T16:33:27.004Z</time></trkpt><trkpt lat="45.595583039644886" lon="10.109160123407555"><ele>175.0</ele><time>2026-04-14T16:33:30.004Z</time></trkpt><trkpt lat="45.595533771659746" lon="10.109231836891533"><ele>175.0</ele><time>2026-04-14T16:33:33.005Z</time></trkpt><trkpt lat="45.59548898119109" lon="10.109321462222164"><ele>175.0</ele><time>2026-04-14T16:33:36.005Z</time></trkpt><trkpt lat="45.59542602661096" lon="10.109394424216132"><ele>175.0</ele><time>2026-04-14T16:33:39.005Z</time></trkpt><trkpt lat="45.5953568938673" lon="10.10946420360564"><ele>175.0</ele><time>2026-04-14T16:33:42.005Z</time></trkpt><trkpt lat="45.595306513347076" lon="10.109539871940667"><ele>175.0</ele><time>2026-04-14T16:33:45.005Z</time></trkpt><trkpt lat="45.59526976028273" lon="10.109621520347332"><ele>174.83333333333334</ele><time>2026-04-14T16:33:47.005Z</time></trkpt><trkpt lat="45.59522428915836" lon="10.109719743643064"><ele>174.66666666666669</ele><time>2026-04-14T16:33:50.005Z</time></trkpt><trkpt lat="45.59518169346339" lon="10.109812836176202"><ele>174.5</ele><time>2026-04-14T16:33:53.004Z</time></trkpt><trkpt lat="45.595151122926715" lon="10.109917369510582"><ele>174.33333333333334</ele><time>2026-04-14T16:33:56.005Z</time></trkpt><trkpt lat="45.59511066179942" lon="10.110001305788659"><ele>174.16666666666666</ele><time>2026-04-14T16:33:59.004Z</time></trkpt><trkpt lat="45.59507594126535" lon="10.110089933863751"><ele>174.0</ele><time>2026-04-14T16:34:02.005Z</time></trkpt><trkpt lat="45.59504168451992" lon="10.110179462014464"><ele>173.71428571428572</ele><time>2026-04-14T16:34:05.004Z</time></trkpt><trkpt lat="45.594983822552244" lon="10.110223330201388"><ele>173.42857142857144</ele><time>2026-04-14T16:34:07.004Z</time></trkpt><trkpt lat="45.594908468061725" lon="10.11025760997988"><ele>173.14285714285717</ele><time>2026-04-14T16:34:10.004Z</time></trkpt><trkpt lat="45.59483514119767" lon="10.110275552394915"><ele>172.85714285714286</ele><time>2026-04-14T16:34:13.004Z</time></trkpt><trkpt lat="45.5947707476548" lon="10.11030433960819"><ele>172.57142857142858</ele><time>2026-04-14T16:34:16.004Z</time></trkpt><trkpt lat="45.5947026508456" lon="10.110339014420466"><ele>172.2857142857143</ele><time>2026-04-14T16:34:19.004Z</time></trkpt><trkpt lat="45.59462988738216" lon="10.110392490489179"><ele>172.0</ele><time>2026-04-14T16:34:22.004Z</time></trkpt><trkpt lat="45.59455852290959" lon="10.110452231893001"><ele>172.0</ele><time>2026-04-14T16:34:25.004Z</time></trkpt><trkpt lat="45.594486278380664" lon="10.110509586169522"><ele>172.0</ele><time>2026-04-14T16:34:28.004Z</time></trkpt><trkpt lat="45.59441802130887" lon="10.110575827494385"><ele>172.0</ele><time>2026-04-14T16:34:31.004Z</time></trkpt><trkpt lat="45.594345130101644" lon="10.11063518670716"><ele>172.0</ele><time>2026-04-14T16:34:34.004Z</time></trkpt><trkpt lat="45.59428041664948" lon="10.110698483969824"><ele>172.0</ele><time>2026-04-14T16:34:37.004Z</time></trkpt><trkpt lat="45.594211042182884" lon="10.110745976569454"><ele>172.0</ele><time>2026-04-14T16:34:40.004Z</time></trkpt><trkpt lat="45.59413461210949" lon="10.110783627265835"><ele>171.83333333333334</ele><time>2026-04-14T16:34:43.004Z</time></trkpt><trkpt lat="45.594062830512776" lon="10.110824445302974"><ele>171.66666666666669</ele><time>2026-04-14T16:34:46.004Z</time></trkpt><trkpt lat="45.593989398397675" lon="10.110856072476611"><ele>171.5</ele><time>2026-04-14T16:34:49.004Z</time></trkpt><trkpt lat="45.59391233765945" lon="10.110893235570146"><ele>171.33333333333334</ele><time>2026-04-14T16:34:52.004Z</time></trkpt><trkpt lat="45.593837430504685" lon="10.110887211663092"><ele>171.16666666666666</ele><time>2026-04-14T16:34:55.004Z</time></trkpt><trkpt lat="45.59376539688326" lon="10.11088726437916"><ele>171.0</ele><time>2026-04-14T16:34:58.005Z</time></trkpt><trkpt lat="45.59369068658014" lon="10.110900210161372"><ele>170.99999999999997</ele><time>2026-04-14T16:35:01.005Z</time></trkpt><trkpt lat="45.59361784953673" lon="10.110886732547582"><ele>171.0</ele><time>2026-04-14T16:35:04.005Z</time></trkpt><trkpt lat="45.59354530667488" lon="10.110898027838312"><ele>171.0</ele><time>2026-04-14T16:35:07.005Z</time></trkpt><trkpt lat="45.593480100461086" lon="10.110900583929007"><ele>171.0</ele><time>2026-04-14T16:35:10.005Z</time></trkpt><trkpt lat="45.59340912365833" lon="10.110872769213016"><ele>171.0</ele><time>2026-04-14T16:35:13.005Z</time></trkpt><trkpt lat="45.593334788809955" lon="10.110890238395292"><ele>170.99999999999997</ele><time>2026-04-14T16:35:16.005Z</time></trkpt><trkpt lat="45.59326371218398" lon="10.110868569499381"><ele>171.0</ele><time>2026-04-14T16:35:19.005Z</time></trkpt><trkpt lat="45.59319076494478" lon="10.110878721980585"><ele>171.0</ele><time>2026-04-14T16:35:22.005Z</time></trkpt><trkpt lat="45.59311439732402" lon="10.110891923067554"><ele>171.0</ele><time>2026-04-14T16:35:25.005Z</time></trkpt><trkpt lat="45.5930454469383" lon="10.110880940590814"><ele>171.0</ele><time>2026-04-14T16:35:28.005Z</time></trkpt><trkpt lat="45.59295611800578" lon="10.110876230261026"><ele>171.0</ele><time>2026-04-14T16:35:31.005Z</time></trkpt><trkpt lat="45.592878514879565" lon="10.110884114862372"><ele>171.0</ele><time>2026-04-14T16:35:33.005Z</time></trkpt><trkpt lat="45.592809397329454" lon="10.110853562185923"><ele>171.0</ele><time>2026-04-14T16:35:35.005Z</time></trkpt><trkpt lat="45.59274181358155" lon="10.110824169766884"><ele>171.0</ele><time>2026-04-14T16:35:37.005Z</time></trkpt><trkpt lat="45.5926491065881" lon="10.110834060132397"><ele>171.0</ele><time>2026-04-14T16:35:40.005Z</time></trkpt><trkpt lat="45.59256804089053" lon="10.110815869849107"><ele>171.0</ele><time>2026-04-14T16:35:43.005Z</time></trkpt><trkpt lat="45.592494534506166" lon="10.110784244508139"><ele>171.0</ele><time>2026-04-14T16:35:46.005Z</time></trkpt><trkpt lat="45.592426517798735" lon="10.110733334258322"><ele>171.0</ele><time>2026-04-14T16:35:49.005Z</time></trkpt><trkpt lat="45.59235695408245" lon="10.110663710878551"><ele>171.0</ele><time>2026-04-14T16:35:52.005Z</time></trkpt><trkpt lat="45.59229640440982" lon="10.110601863170702"><ele>171.0</ele><time>2026-04-14T16:35:55.005Z</time></trkpt><trkpt lat="45.59223755586277" lon="10.110539387121323"><ele>171.0</ele><time>2026-04-14T16:35:58.005Z</time></trkpt><trkpt lat="45.59217343074955" lon="10.110489306919275"><ele>171.0</ele><time>2026-04-14T16:36:01.004Z</time></trkpt><trkpt lat="45.59211681108858" lon="10.110431786450526"><ele>171.0</ele><time>2026-04-14T16:36:04.005Z</time></trkpt><trkpt lat="45.592038554224985" lon="10.110376606046255"><ele>171.0</ele><time>2026-04-14T16:36:08.005Z</time></trkpt><trkpt lat="45.59197192647717" lon="10.110324439111194"><ele>171.0</ele><time>2026-04-14T16:36:11.005Z</time></trkpt><trkpt lat="45.59190878239752" lon="10.110276492892513"><ele>170.83333333333334</ele><time>2026-04-14T16:36:14.005Z</time></trkpt><trkpt lat="45.591855929894045" lon="10.110211031708811"><ele>170.66666666666666</ele><time>2026-04-14T16:36:17.005Z</time></trkpt><trkpt lat="45.5917689543355" lon="10.110210268519845"><ele>170.5</ele><time>2026-04-14T16:36:20.005Z</time></trkpt><trkpt lat="45.591697331330685" lon="10.110169704100658"><ele>170.33333333333331</ele><time>2026-04-14T16:36:23.005Z</time></trkpt><trkpt lat="45.59163121461813" lon="10.110142958696755"><ele>170.16666666666666</ele><time>2026-04-14T16:36:26.005Z</time></trkpt><trkpt lat="45.591556611137186" lon="10.11012976305662"><ele>170.0</ele><time>2026-04-14T16:36:29.005Z</time></trkpt><trkpt lat="45.59148521611752" lon="10.110151699712164"><ele>170.0</ele><time>2026-04-14T16:36:32.005Z</time></trkpt><trkpt lat="45.59141635867377" lon="10.110134215755174"><ele>170.0</ele><time>2026-04-14T16:36:35.005Z</time></trkpt><trkpt lat="45.59134148475233" lon="10.110125269346437"><ele>170.0</ele><time>2026-04-14T16:36:38.005Z</time></trkpt><trkpt lat="45.59126872209576" lon="10.110114074001658"><ele>170.0</ele><time>2026-04-14T16:36:41.005Z</time></trkpt><trkpt lat="45.59120239153161" lon="10.11011613806823"><ele>170.0</ele><time>2026-04-14T16:36:44.005Z</time></trkpt><trkpt lat="45.591122350762205" lon="10.11011823583503"><ele>170.0</ele><time>2026-04-14T16:36:47.005Z</time></trkpt><trkpt lat="45.59104718440026" lon="10.110105116732653"><ele>170.0</ele><time>2026-04-14T16:36:50.005Z</time></trkpt><trkpt lat="45.59096518947806" lon="10.110095331269015"><ele>169.83333333333331</ele><time>2026-04-14T16:36:53.005Z</time></trkpt><trkpt lat="45.59088350469573" lon="10.110092302410127"><ele>169.66666666666666</ele><time>2026-04-14T16:36:56.005Z</time></trkpt><trkpt lat="45.59079738028723" lon="10.11009302760348"><ele>169.5</ele><time>2026-04-14T16:36:59.005Z</time></trkpt><trkpt lat="45.59071339254759" lon="10.110098735762664"><ele>169.33333333333334</ele><time>2026-04-14T16:37:02.005Z</time></trkpt><trkpt lat="45.590633976403204" lon="10.110101662663716"><ele>169.16666666666669</ele><time>2026-04-14T16:37:05.005Z</time></trkpt><trkpt lat="45.59055276280224" lon="10.110101591504858"><ele>169.0</ele><time>2026-04-14T16:37:08.005Z</time></trkpt><trkpt lat="45.590469297617304" lon="10.11010901300012"><ele>169.0</ele><time>2026-04-14T16:37:11.005Z</time></trkpt><trkpt lat="45.590390600165314" lon="10.11012771911211"><ele>169.0</ele><time>2026-04-14T16:37:14.005Z</time></trkpt><trkpt lat="45.59031558346189" lon="10.110147183749708"><ele>169.0</ele><time>2026-04-14T16:37:17.005Z</time></trkpt><trkpt lat="45.59024474286263" lon="10.110176970934882"><ele>169.0</ele><time>2026-04-14T16:37:20.005Z</time></trkpt><trkpt lat="45.59016928795261" lon="10.11020007772672"><ele>169.0</ele><time>2026-04-14T16:37:23.005Z</time></trkpt><trkpt lat="45.59009072360209" lon="10.11021452295577"><ele>169.0</ele><time>2026-04-14T16:37:26.005Z</time></trkpt><trkpt lat="45.59001554603448" lon="10.11020839454452"><ele>168.83333333333334</ele><time>2026-04-14T16:37:29.005Z</time></trkpt><trkpt lat="45.58993174026641" lon="10.110196686975446"><ele>168.66666666666669</ele><time>2026-04-14T16:37:32.005Z</time></trkpt><trkpt lat="45.58985109927927" lon="10.110192719019867"><ele>168.5</ele><time>2026-04-14T16:37:35.005Z</time></trkpt><trkpt lat="45.58977823920583" lon="10.11020425429569"><ele>168.33333333333334</ele><time>2026-04-14T16:37:38.005Z</time></trkpt><trkpt lat="45.58970560448705" lon="10.110207261055086"><ele>168.16666666666666</ele><time>2026-04-14T16:37:41.005Z</time></trkpt><trkpt lat="45.58962508566039" lon="10.11020807927336"><ele>168.0</ele><time>2026-04-14T16:37:44.005Z</time></trkpt><trkpt lat="45.589544403602666" lon="10.110184898827006"><ele>167.5</ele><time>2026-04-14T16:37:47.005Z</time></trkpt><trkpt lat="45.589460913517875" lon="10.110192587621338"><ele>167.0</ele><time>2026-04-14T16:37:50.005Z</time></trkpt><trkpt lat="45.589383007500025" lon="10.11021049790982"><ele>166.5</ele><time>2026-04-14T16:37:53.005Z</time></trkpt><trkpt lat="45.58930422823959" lon="10.110237039893404"><ele>166.0</ele><time>2026-04-14T16:37:56.005Z</time></trkpt><trkpt lat="45.58922510754807" lon="10.11023835827039"><ele>165.5</ele><time>2026-04-14T16:37:59.006Z</time></trkpt><trkpt lat="45.58914888170171" lon="10.110254745315325"><ele>165.0</ele><time>2026-04-14T16:38:02.006Z</time></trkpt><trkpt lat="45.58907820520177" lon="10.11029342276631"><ele>165.0</ele><time>2026-04-14T16:38:05.006Z</time></trkpt><trkpt lat="45.589006633875876" lon="10.110330192537239"><ele>165.0</ele><time>2026-04-14T16:38:08.005Z</time></trkpt><trkpt lat="45.588928822334765" lon="10.110362502667149"><ele>165.0</ele><time>2026-04-14T16:38:11.005Z</time></trkpt><trkpt lat="45.588855109686776" lon="10.11040162980728"><ele>165.0</ele><time>2026-04-14T16:38:14.006Z</time></trkpt><trkpt lat="45.58879085727658" lon="10.110431446102721"><ele>165.0</ele><time>2026-04-14T16:38:17.005Z</time></trkpt><trkpt lat="45.58871964704085" lon="10.110464209604787"><ele>165.0</ele><time>2026-04-14T16:38:20.005Z</time></trkpt><trkpt lat="45.58864443654332" lon="10.110480041504713"><ele>164.66666666666666</ele><time>2026-04-14T16:38:23.005Z</time></trkpt><trkpt lat="45.58856427226954" lon="10.11050480606116"><ele>164.33333333333334</ele><time>2026-04-14T16:38:26.005Z</time></trkpt><trkpt lat="45.58848669304593" lon="10.11051107134231"><ele>164.0</ele><time>2026-04-14T16:38:29.005Z</time></trkpt><trkpt lat="45.588414148427184" lon="10.110519890389375"><ele>163.66666666666669</ele><time>2026-04-14T16:38:32.005Z</time></trkpt><trkpt lat="45.588344151667435" lon="10.110545285668707"><ele>163.33333333333334</ele><time>2026-04-14T16:38:35.005Z</time></trkpt><trkpt lat="45.58826563894221" lon="10.110538644132813"><ele>163.0</ele><time>2026-04-14T16:38:38.005Z</time></trkpt><trkpt lat="45.58818492409802" lon="10.110540066873115"><ele>163.0</ele><time>2026-04-14T16:38:41.005Z</time></trkpt><trkpt lat="45.58810366955941" lon="10.11054488095068"><ele>163.0</ele><time>2026-04-14T16:38:44.005Z</time></trkpt><trkpt lat="45.58802244592268" lon="10.110545911862522"><ele>163.0</ele><time>2026-04-14T16:38:47.005Z</time></trkpt><trkpt lat="45.58794873030838" lon="10.110538328747047"><ele>163.0</ele><time>2026-04-14T16:38:50.005Z</time></trkpt><trkpt lat="45.58787568933259" lon="10.110523622911495"><ele>163.0</ele><time>2026-04-14T16:38:53.005Z</time></trkpt><trkpt lat="45.58780237656283" lon="10.110516260609653"><ele>163.0</ele><time>2026-04-14T16:38:56.006Z</time></trkpt><trkpt lat="45.58773151125832" lon="10.110505340465311"><ele>163.14285714285714</ele><time>2026-04-14T16:38:59.006Z</time></trkpt><trkpt lat="45.58766023412159" lon="10.110494449676318"><ele>163.28571428571428</ele><time>2026-04-14T16:39:02.006Z</time></trkpt><trkpt lat="45.58758768860383" lon="10.110479243364802"><ele>163.42857142857142</ele><time>2026-04-14T16:39:05.006Z</time></trkpt><trkpt lat="45.58751843961666" lon="10.110446898990318"><ele>163.57142857142856</ele><time>2026-04-14T16:39:08.006Z</time></trkpt><trkpt lat="45.58745114472328" lon="10.110430297174254"><ele>163.71428571428572</ele><time>2026-04-14T16:39:11.006Z</time></trkpt><trkpt lat="45.58737728146948" lon="10.110406549740583"><ele>163.85714285714283</ele><time>2026-04-14T16:39:14.006Z</time></trkpt><trkpt lat="45.58730364660153" lon="10.110391340849985"><ele>164.0</ele><time>2026-04-14T16:39:17.006Z</time></trkpt><trkpt lat="45.58723279372234" lon="10.110368970704707"><ele>163.99999999999997</ele><time>2026-04-14T16:39:20.006Z</time></trkpt><trkpt lat="45.58716165013892" lon="10.110352359671325"><ele>164.0</ele><time>2026-04-14T16:39:23.006Z</time></trkpt><trkpt lat="45.5870923787998" lon="10.110337937703223"><ele>164.0</ele><time>2026-04-14T16:39:26.006Z</time></trkpt><trkpt lat="45.58702165393621" lon="10.110319495135322"><ele>164.0</ele><time>2026-04-14T16:39:29.006Z</time></trkpt><trkpt lat="45.586946686333626" lon="10.110293020868664"><ele>164.0</ele><time>2026-04-14T16:39:32.006Z</time></trkpt><trkpt lat="45.58687521501141" lon="10.110296503512384"><ele>163.99999999999997</ele><time>2026-04-14T16:39:35.006Z</time></trkpt><trkpt lat="45.586802200376674" lon="10.110278466272916"><ele>164.0</ele><time>2026-04-14T16:39:38.006Z</time></trkpt><trkpt lat="45.58672913036256" lon="10.110263547075743"><ele>163.83333333333331</ele><time>2026-04-14T16:39:41.006Z</time></trkpt><trkpt lat="45.58665365037141" lon="10.110212863239857"><ele>163.66666666666666</ele><time>2026-04-14T16:39:44.006Z</time></trkpt><trkpt lat="45.58657626010059" lon="10.110183550479642"><ele>163.5</ele><time>2026-04-14T16:39:47.006Z</time></trkpt><trkpt lat="45.58650403581469" lon="10.110163489372948"><ele>163.33333333333334</ele><time>2026-04-14T16:39:50.006Z</time></trkpt><trkpt lat="45.58643097380734" lon="10.110130071584933"><ele>163.16666666666669</ele><time>2026-04-14T16:39:53.006Z</time></trkpt><trkpt lat="45.58635988942067" lon="10.110109107053495"><ele>163.0</ele><time>2026-04-14T16:39:56.006Z</time></trkpt><trkpt lat="45.586289791296394" lon="10.1100901901356"><ele>163.0</ele><time>2026-04-14T16:39:59.006Z</time></trkpt><trkpt lat="45.5862178381096" lon="10.110070548125798"><ele>163.0</ele><time>2026-04-14T16:40:02.006Z</time></trkpt><trkpt lat="45.58614434239108" lon="10.110051542410336"><ele>163.0</ele><time>2026-04-14T16:40:05.006Z</time></trkpt><trkpt lat="45.58606972112714" lon="10.110024193434423"><ele>163.0</ele><time>2026-04-14T16:40:08.006Z</time></trkpt><trkpt lat="45.58599763426245" lon="10.109999151739796"><ele>163.0</ele><time>2026-04-14T16:40:11.006Z</time></trkpt><trkpt lat="45.585925874168666" lon="10.109966739377318"><ele>163.0</ele><time>2026-04-14T16:40:14.006Z</time></trkpt><trkpt lat="45.58584732670744" lon="10.109935063543507"><ele>162.85714285714286</ele><time>2026-04-14T16:40:17.005Z</time></trkpt><trkpt lat="45.58577593682198" lon="10.10994354159853"><ele>162.7142857142857</ele><time>2026-04-14T16:40:20.006Z</time></trkpt><trkpt lat="45.58570619531729" lon="10.109959935651132"><ele>162.57142857142856</ele><time>2026-04-14T16:40:23.006Z</time></trkpt><trkpt lat="45.5856405819664" lon="10.109929798131338"><ele>162.42857142857144</ele><time>2026-04-14T16:40:26.006Z</time></trkpt><trkpt lat="45.58557267784924" lon="10.109909740832776"><ele>162.28571428571428</ele><time>2026-04-14T16:40:29.006Z</time></trkpt><trkpt lat="45.58549990688912" lon="10.109874244196645"><ele>162.14285714285714</ele><time>2026-04-14T16:40:32.006Z</time></trkpt><trkpt lat="45.58542768179721" lon="10.109851476648744"><ele>162.0</ele><time>2026-04-14T16:40:35.006Z</time></trkpt><trkpt lat="45.585346775939456" lon="10.10986875303961"><ele>162.14285714285714</ele><time>2026-04-14T16:40:38.006Z</time></trkpt><trkpt lat="45.58528313204045" lon="10.109905588241224"><ele>162.28571428571428</ele><time>2026-04-14T16:40:41.006Z</time></trkpt><trkpt lat="45.58522119932823" lon="10.109946867121376"><ele>162.42857142857144</ele><time>2026-04-14T16:40:44.006Z</time></trkpt><trkpt lat="45.58517692907229" lon="10.110034198981555"><ele>162.57142857142856</ele><time>2026-04-14T16:40:47.006Z</time></trkpt><trkpt lat="45.58514034764665" lon="10.110129405494323"><ele>162.7142857142857</ele><time>2026-04-14T16:40:50.006Z</time></trkpt><trkpt lat="45.58509219578574" lon="10.11022324813376"><ele>162.85714285714286</ele><time>2026-04-14T16:40:53.006Z</time></trkpt><trkpt lat="45.585026948479396" lon="10.110285479216506"><ele>163.0</ele><time>2026-04-14T16:40:56.006Z</time></trkpt><trkpt lat="45.58495142325191" lon="10.11032232323915"><ele>162.66666666666669</ele><time>2026-04-14T16:40:59.006Z</time></trkpt><trkpt lat="45.58487069271014" lon="10.110332211950341"><ele>162.33333333333334</ele><time>2026-04-14T16:41:02.006Z</time></trkpt><trkpt lat="45.584794562750176" lon="10.110315733922628"><ele>162.0</ele><time>2026-04-14T16:41:05.006Z</time></trkpt><trkpt lat="45.584723584709046" lon="10.110296118688426"><ele>161.66666666666666</ele><time>2026-04-14T16:41:08.006Z</time></trkpt><trkpt lat="45.5846509293764" lon="10.11028598008359"><ele>161.33333333333331</ele><time>2026-04-14T16:41:11.006Z</time></trkpt><trkpt lat="45.58457808060722" lon="10.110273496381962"><ele>161.0</ele><time>2026-04-14T16:41:14.006Z</time></trkpt><trkpt lat="45.5845024778726" lon="10.110247442016707"><ele>161.0</ele><time>2026-04-14T16:41:17.006Z</time></trkpt><trkpt lat="45.58443368020685" lon="10.1102226034235"><ele>161.0</ele><time>2026-04-14T16:41:20.006Z</time></trkpt><trkpt lat="45.58435651447273" lon="10.110204343577093"><ele>161.0</ele><time>2026-04-14T16:41:23.006Z</time></trkpt><trkpt lat="45.584279726038616" lon="10.11018735683995"><ele>161.0</ele><time>2026-04-14T16:41:26.006Z</time></trkpt><trkpt lat="45.584207612958515" lon="10.110177242896828"><ele>161.0</ele><time>2026-04-14T16:41:29.006Z</time></trkpt><trkpt lat="45.58412715506766" lon="10.110173463876828"><ele>161.0</ele><time>2026-04-14T16:41:32.006Z</time></trkpt><trkpt lat="45.58405054343895" lon="10.11016543882285"><ele>161.0</ele><time>2026-04-14T16:41:35.006Z</time></trkpt><trkpt lat="45.583974221038375" lon="10.110162842675281"><ele>161.0</ele><time>2026-04-14T16:41:38.006Z</time></trkpt><trkpt lat="45.5838994248463" lon="10.110164157320598"><ele>161.0</ele><time>2026-04-14T16:41:41.006Z</time></trkpt><trkpt lat="45.5838231870657" lon="10.110158511127214"><ele>161.0</ele><time>2026-04-14T16:41:44.006Z</time></trkpt><trkpt lat="45.58374941126486" lon="10.110155463344759"><ele>161.0</ele><time>2026-04-14T16:41:47.006Z</time></trkpt><trkpt lat="45.58367502204172" lon="10.110159777047484"><ele>161.0</ele><time>2026-04-14T16:41:50.006Z</time></trkpt><trkpt lat="45.58360211480217" lon="10.110165754924095"><ele>161.0</ele><time>2026-04-14T16:41:53.006Z</time></trkpt><trkpt lat="45.58352715123599" lon="10.110195800449898"><ele>161.0</ele><time>2026-04-14T16:41:56.006Z</time></trkpt><trkpt lat="45.58345546041775" lon="10.110221892043024"><ele>161.0</ele><time>2026-04-14T16:41:59.006Z</time></trkpt><trkpt lat="45.58338551612404" lon="10.110255167322737"><ele>161.0</ele><time>2026-04-14T16:42:02.006Z</time></trkpt><trkpt lat="45.58331721378275" lon="10.110287438835835"><ele>161.0</ele><time>2026-04-14T16:42:05.006Z</time></trkpt><trkpt lat="45.58325026577589" lon="10.110335640910053"><ele>161.0</ele><time>2026-04-14T16:42:08.006Z</time></trkpt><trkpt lat="45.58319884916147" lon="10.110411636817965"><ele>161.0</ele><time>2026-04-14T16:42:11.006Z</time></trkpt><trkpt lat="45.58316342462851" lon="10.110493286212977"><ele>161.0</ele><time>2026-04-14T16:42:14.007Z</time></trkpt><trkpt lat="45.58312910246144" lon="10.110585707999574"><ele>161.0</ele><time>2026-04-14T16:42:17.006Z</time></trkpt><trkpt lat="45.58309788144517" lon="10.110689397329931"><ele>161.0</ele><time>2026-04-14T16:42:20.006Z</time></trkpt><trkpt lat="45.58306256779803" lon="10.110796045554661"><ele>161.0</ele><time>2026-04-14T16:42:23.006Z</time></trkpt><trkpt lat="45.58301862891414" lon="10.110910360445283"><ele>161.0</ele><time>2026-04-14T16:42:26.006Z</time></trkpt><trkpt lat="45.58298640334914" lon="10.111021326354194"><ele>161.0</ele><time>2026-04-14T16:42:29.006Z</time></trkpt><trkpt lat="45.58296667183294" lon="10.111135010143967"><ele>161.0</ele><time>2026-04-14T16:42:32.006Z</time></trkpt><trkpt lat="45.58294267240661" lon="10.111254469457178"><ele>160.85714285714286</ele><time>2026-04-14T16:42:35.006Z</time></trkpt><trkpt lat="45.582926786886034" lon="10.111371228610581"><ele>160.71428571428572</ele><time>2026-04-14T16:42:38.006Z</time></trkpt><trkpt lat="45.58291417498999" lon="10.11147535126865"><ele>160.57142857142856</ele><time>2026-04-14T16:42:41.006Z</time></trkpt><trkpt lat="45.58290368135794" lon="10.111566672035243"><ele>160.42857142857144</ele><time>2026-04-14T16:42:44.006Z</time></trkpt><trkpt lat="45.58288897099665" lon="10.111669091845641"><ele>160.28571428571428</ele><time>2026-04-14T16:42:47.006Z</time></trkpt><trkpt lat="45.58287076537256" lon="10.111771364222015"><ele>160.14285714285714</ele><time>2026-04-14T16:42:50.006Z</time></trkpt><trkpt lat="45.5828628353446" lon="10.11187285819694"><ele>160.0</ele><time>2026-04-14T16:42:53.006Z</time></trkpt><trkpt lat="45.58284918623596" lon="10.111977273645616"><ele>160.0</ele><time>2026-04-14T16:42:56.006Z</time></trkpt><trkpt lat="45.5828319240082" lon="10.112077528132213"><ele>160.0</ele><time>2026-04-14T16:42:59.006Z</time></trkpt><trkpt lat="45.58282489241874" lon="10.112183067310704"><ele>160.0</ele><time>2026-04-14T16:43:02.006Z</time></trkpt><trkpt lat="45.58280963253312" lon="10.112293429172125"><ele>160.0</ele><time>2026-04-14T16:43:05.006Z</time></trkpt><trkpt lat="45.58279146537694" lon="10.112399820946981"><ele>160.0</ele><time>2026-04-14T16:43:08.006Z</time></trkpt><trkpt lat="45.58278307184452" lon="10.112503311986147"><ele>160.0</ele><time>2026-04-14T16:43:11.006Z</time></trkpt><trkpt lat="45.582765235917805" lon="10.112604086825852"><ele>160.0</ele><time>2026-04-14T16:43:14.006Z</time></trkpt><trkpt lat="45.582754233449684" lon="10.112704552626608"><ele>160.0</ele><time>2026-04-14T16:43:17.006Z</time></trkpt><trkpt lat="45.58273839925764" lon="10.112801452870022"><ele>160.0</ele><time>2026-04-14T16:43:20.006Z</time></trkpt><trkpt lat="45.58272817633278" lon="10.112900196269868"><ele>160.0</ele><time>2026-04-14T16:43:23.006Z</time></trkpt><trkpt lat="45.58271546875817" lon="10.113005207258938"><ele>160.0</ele><time>2026-04-14T16:43:26.006Z</time></trkpt><trkpt lat="45.58270615483125" lon="10.113111581621414"><ele>160.0</ele><time>2026-04-14T16:43:29.006Z</time></trkpt><trkpt lat="45.5826878066164" lon="10.113220145554271"><ele>160.0</ele><time>2026-04-14T16:43:32.006Z</time></trkpt><trkpt lat="45.58267154683365" lon="10.113329941191031"><ele>160.0</ele><time>2026-04-14T16:43:35.006Z</time></trkpt><trkpt lat="45.582646644657466" lon="10.113430226191491"><ele>160.0</ele><time>2026-04-14T16:43:38.006Z</time></trkpt><trkpt lat="45.5826275635007" lon="10.113537202092484"><ele>160.0</ele><time>2026-04-14T16:43:41.006Z</time></trkpt><trkpt lat="45.58260732786767" lon="10.113632532440151"><ele>160.0</ele><time>2026-04-14T16:43:44.006Z</time></trkpt><trkpt lat="45.582590355958395" lon="10.1137427862831"><ele>160.0</ele><time>2026-04-14T16:43:47.006Z</time></trkpt><trkpt lat="45.582557806208506" lon="10.11384288106479"><ele>160.0</ele><time>2026-04-14T16:43:50.006Z</time></trkpt><trkpt lat="45.58252886252177" lon="10.113958338825588"><ele>160.0</ele><time>2026-04-14T16:43:53.006Z</time></trkpt><trkpt lat="45.58249614941767" lon="10.11406682545494"><ele>159.83333333333334</ele><time>2026-04-14T16:43:56.006Z</time></trkpt><trkpt lat="45.58247625844846" lon="10.114179377286407"><ele>159.66666666666669</ele><time>2026-04-14T16:43:59.006Z</time></trkpt><trkpt lat="45.58244759559323" lon="10.114291051636418"><ele>159.5</ele><time>2026-04-14T16:44:02.006Z</time></trkpt><trkpt lat="45.58242190729253" lon="10.114397911280447"><ele>159.33333333333334</ele><time>2026-04-14T16:44:05.006Z</time></trkpt><trkpt lat="45.58240475586082" lon="10.114506431299692"><ele>159.16666666666666</ele><time>2026-04-14T16:44:08.006Z</time></trkpt><trkpt lat="45.582382781628844" lon="10.114614026410091"><ele>159.0</ele><time>2026-04-14T16:44:11.006Z</time></trkpt><trkpt lat="45.582358202687615" lon="10.114716060037242"><ele>159.0</ele><time>2026-04-14T16:44:14.006Z</time></trkpt><trkpt lat="45.582334998320086" lon="10.11482779789832"><ele>159.0</ele><time>2026-04-14T16:44:17.006Z</time></trkpt><trkpt lat="45.582309573823004" lon="10.11493403985547"><ele>159.0</ele><time>2026-04-14T16:44:20.006Z</time></trkpt><trkpt lat="45.582281350640045" lon="10.115034097091918"><ele>159.0</ele><time>2026-04-14T16:44:23.006Z</time></trkpt><trkpt lat="45.582265053366875" lon="10.11512949369463"><ele>159.0</ele><time>2026-04-14T16:44:26.006Z</time></trkpt><trkpt lat="45.582255825632814" lon="10.115238854981127"><ele>159.0</ele><time>2026-04-14T16:44:29.007Z</time></trkpt><trkpt lat="45.58225330221571" lon="10.115349872796818"><ele>159.0</ele><time>2026-04-14T16:44:32.007Z</time></trkpt><trkpt lat="45.582246950958584" lon="10.115453412670671"><ele>159.0</ele><time>2026-04-14T16:44:35.007Z</time></trkpt><trkpt lat="45.58222982689888" lon="10.11555736397349"><ele>159.0</ele><time>2026-04-14T16:44:38.007Z</time></trkpt><trkpt lat="45.58222483397176" lon="10.115655604266438"><ele>159.0</ele><time>2026-04-14T16:44:41.007Z</time></trkpt><trkpt lat="45.58222212464053" lon="10.115769103553268"><ele>159.0</ele><time>2026-04-14T16:44:44.007Z</time></trkpt><trkpt lat="45.582207607312036" lon="10.115882669453907"><ele>159.0</ele><time>2026-04-14T16:44:47.007Z</time></trkpt><trkpt lat="45.582197211986426" lon="10.116004435172819"><ele>158.4</ele><time>2026-04-14T16:44:50.007Z</time></trkpt><trkpt lat="45.58219279349089" lon="10.116157633178393"><ele>157.8</ele><time>2026-04-14T16:44:54.007Z</time></trkpt><trkpt lat="45.582181224862325" lon="10.116273708823048"><ele>157.2</ele><time>2026-04-14T16:44:57.007Z</time></trkpt><trkpt lat="45.58217297663331" lon="10.116394227605555"><ele>156.6</ele><time>2026-04-14T16:45:00.007Z</time></trkpt><trkpt lat="45.58216097917075" lon="10.116524090127808"><ele>156.0</ele><time>2026-04-14T16:45:03.007Z</time></trkpt><trkpt lat="45.582160398834894" lon="10.11664437049655"><ele>156.0</ele><time>2026-04-14T16:45:06.007Z</time></trkpt><trkpt lat="45.582161283987915" lon="10.116756972134544"><ele>156.0</ele><time>2026-04-14T16:45:09.007Z</time></trkpt><trkpt lat="45.58215556585759" lon="10.116869430512581"><ele>156.0</ele><time>2026-04-14T16:45:12.007Z</time></trkpt><trkpt lat="45.58215261637804" lon="10.116987928633606"><ele>156.0</ele><time>2026-04-14T16:45:15.007Z</time></trkpt><trkpt lat="45.58215790968266" lon="10.117105488404874"><ele>156.0</ele><time>2026-04-14T16:45:18.007Z</time></trkpt><trkpt lat="45.58215452889348" lon="10.117222382413228"><ele>156.0</ele><time>2026-04-14T16:45:21.007Z</time></trkpt><trkpt lat="45.582164166333364" lon="10.117332507842052"><ele>155.83333333333334</ele><time>2026-04-14T16:45:24.007Z</time></trkpt><trkpt lat="45.58216919566329" lon="10.11744178257462"><ele>155.66666666666666</ele><time>2026-04-14T16:45:27.007Z</time></trkpt><trkpt lat="45.58217809592159" lon="10.117551795605577"><ele>155.5</ele><time>2026-04-14T16:45:30.007Z</time></trkpt><trkpt lat="45.58220261976891" lon="10.117659871332416"><ele>155.33333333333331</ele><time>2026-04-14T16:45:33.007Z</time></trkpt><trkpt lat="45.58225960192288" lon="10.117740263774289"><ele>155.16666666666666</ele><time>2026-04-14T16:45:36.007Z</time></trkpt><trkpt lat="45.58231749758691" lon="10.117807690893994"><ele>155.0</ele><time>2026-04-14T16:45:39.007Z</time></trkpt><trkpt lat="45.582365051937465" lon="10.117889711117954"><ele>155.0</ele><time>2026-04-14T16:45:42.007Z</time></trkpt><trkpt lat="45.58241821517467" lon="10.117966515303577"><ele>155.0</ele><time>2026-04-14T16:45:45.007Z</time></trkpt><trkpt lat="45.582421320004926" lon="10.118062671445436"><ele>155.0</ele><time>2026-04-14T16:45:48.007Z</time></trkpt><trkpt lat="45.582373151810806" lon="10.11814957209823"><ele>155.0</ele><time>2026-04-14T16:45:51.007Z</time></trkpt><trkpt lat="45.5823095781487" lon="10.118202336397141"><ele>155.0</ele><time>2026-04-14T16:45:55.007Z</time></trkpt><trkpt lat="45.582229043136415" lon="10.118257964108299"><ele>155.0</ele><time>2026-04-14T16:45:59.007Z</time></trkpt><trkpt lat="45.582156801371966" lon="10.11831644566189"><ele>155.0</ele><time>2026-04-14T16:46:02.007Z</time></trkpt><trkpt lat="45.58210237285766" lon="10.118406719503355"><ele>155.0</ele><time>2026-04-14T16:46:05.007Z</time></trkpt><trkpt lat="45.58207403400855" lon="10.118515958928883"><ele>155.0</ele><time>2026-04-14T16:46:08.007Z</time></trkpt><trkpt lat="45.58204333834615" lon="10.118623688886718"><ele>155.0</ele><time>2026-04-14T16:46:11.007Z</time></trkpt><trkpt lat="45.58201027524241" lon="10.118727482212593"><ele>155.0</ele><time>2026-04-14T16:46:14.007Z</time></trkpt><trkpt lat="45.58198936640462" lon="10.118838767209649"><ele>155.0</ele><time>2026-04-14T16:46:17.007Z</time></trkpt><trkpt lat="45.58196252804852" lon="10.118953189414002"><ele>155.0</ele><time>2026-04-14T16:46:20.007Z</time></trkpt><trkpt lat="45.5819370339051" lon="10.119058959655247"><ele>155.0</ele><time>2026-04-14T16:46:23.007Z</time></trkpt><trkpt lat="45.581920213922125" lon="10.119160937752174"><ele>155.0</ele><time>2026-04-14T16:46:26.007Z</time></trkpt><trkpt lat="45.581897342082186" lon="10.119293930750274"><ele>155.0</ele><time>2026-04-14T16:46:29.007Z</time></trkpt><trkpt lat="45.58188894342224" lon="10.11939856346309"><ele>155.0</ele><time>2026-04-14T16:46:32.007Z</time></trkpt><trkpt lat="45.58187000277055" lon="10.119503481670693"><ele>155.0</ele><time>2026-04-14T16:46:35.007Z</time></trkpt><trkpt lat="45.5818565093498" lon="10.1196083556826"><ele>155.0</ele><time>2026-04-14T16:46:38.006Z</time></trkpt><trkpt lat="45.58182293728263" lon="10.11972175605319"><ele>155.0</ele><time>2026-04-14T16:46:41.006Z</time></trkpt><trkpt lat="45.58180874044525" lon="10.119829636921073"><ele>155.0</ele><time>2026-04-14T16:46:44.006Z</time></trkpt><trkpt lat="45.58181177523867" lon="10.11994045875339"><ele>155.0</ele><time>2026-04-14T16:46:47.006Z</time></trkpt><trkpt lat="45.58182066786304" lon="10.120050708047941"><ele>155.0</ele><time>2026-04-14T16:46:50.006Z</time></trkpt><trkpt lat="45.58184162696288" lon="10.12017104740918"><ele>155.0</ele><time>2026-04-14T16:46:53.006Z</time></trkpt><trkpt lat="45.58186587888129" lon="10.12028875943464"><ele>155.0</ele><time>2026-04-14T16:46:56.006Z</time></trkpt><trkpt lat="45.58189564899678" lon="10.120372567919171"><ele>155.0</ele><time>2026-04-14T16:46:59.006Z</time></trkpt><trkpt lat="45.581931098832804" lon="10.120475244201728"><ele>155.0</ele><time>2026-04-14T16:47:02.006Z</time></trkpt><trkpt lat="45.58196563507679" lon="10.120578291687087"><ele>155.0</ele><time>2026-04-14T16:47:05.006Z</time></trkpt><trkpt lat="45.58200383946276" lon="10.120670249760623"><ele>155.0</ele><time>2026-04-14T16:47:08.006Z</time></trkpt><trkpt lat="45.58203479652163" lon="10.120755023988545"><ele>155.0</ele><time>2026-04-14T16:47:11.006Z</time></trkpt><trkpt lat="45.58206629719505" lon="10.120863460267895"><ele>154.83333333333331</ele><time>2026-04-14T16:47:14.006Z</time></trkpt><trkpt lat="45.582094859636996" lon="10.120978442336828"><ele>154.66666666666666</ele><time>2026-04-14T16:47:17.006Z</time></trkpt><trkpt lat="45.582118339376656" lon="10.121091237422885"><ele>154.5</ele><time>2026-04-14T16:47:21.006Z</time></trkpt><trkpt lat="45.58212926024494" lon="10.121195711712508"><ele>154.33333333333334</ele><time>2026-04-14T16:47:24.006Z</time></trkpt><trkpt lat="45.58212780586919" lon="10.121292061790898"><ele>154.16666666666669</ele><time>2026-04-14T16:47:26.006Z</time></trkpt><trkpt lat="45.58212941893438" lon="10.12141471422391"><ele>154.0</ele><time>2026-04-14T16:47:29.006Z</time></trkpt><trkpt lat="45.58212008444244" lon="10.121519872357503"><ele>154.28571428571428</ele><time>2026-04-14T16:47:32.007Z</time></trkpt><trkpt lat="45.58211227722911" lon="10.121623210678923"><ele>154.57142857142856</ele><time>2026-04-14T16:47:35.007Z</time></trkpt><trkpt lat="45.582105652962504" lon="10.121720146583007"><ele>154.85714285714286</ele><time>2026-04-14T16:47:38.007Z</time></trkpt><trkpt lat="45.58209979723215" lon="10.121828035578996"><ele>155.14285714285714</ele><time>2026-04-14T16:47:41.007Z</time></trkpt><trkpt lat="45.58210119057702" lon="10.121941087498092"><ele>155.42857142857142</ele><time>2026-04-14T16:47:44.007Z</time></trkpt><trkpt lat="45.582099804210436" lon="10.122045062018662"><ele>155.71428571428572</ele><time>2026-04-14T16:47:47.007Z</time></trkpt><trkpt lat="45.582101097384886" lon="10.12215835813387"><ele>156.0</ele><time>2026-04-14T16:47:50.007Z</time></trkpt><trkpt lat="45.5820957493887" lon="10.122259987403789"><ele>156.0</ele><time>2026-04-14T16:47:53.007Z</time></trkpt><trkpt lat="45.582087841436795" lon="10.122359955596318"><ele>156.0</ele><time>2026-04-14T16:47:56.007Z</time></trkpt><trkpt lat="45.58208048215032" lon="10.122463990617733"><ele>156.0</ele><time>2026-04-14T16:47:59.007Z</time></trkpt><trkpt lat="45.582061529036615" lon="10.122566189532169"><ele>156.0</ele><time>2026-04-14T16:48:02.007Z</time></trkpt><trkpt lat="45.58205481380678" lon="10.122679843902208"><ele>156.0</ele><time>2026-04-14T16:48:05.007Z</time></trkpt><trkpt lat="45.582045705912414" lon="10.1227884689769"><ele>156.0</ele><time>2026-04-14T16:48:08.007Z</time></trkpt><trkpt lat="45.5820269602361" lon="10.12290026605889"><ele>155.83333333333334</ele><time>2026-04-14T16:48:11.007Z</time></trkpt><trkpt lat="45.58201914212095" lon="10.123012622326295"><ele>155.66666666666666</ele><time>2026-04-14T16:48:14.007Z</time></trkpt><trkpt lat="45.582003467157534" lon="10.123128147368003"><ele>155.5</ele><time>2026-04-14T16:48:17.007Z</time></trkpt><trkpt lat="45.58199425761249" lon="10.123243674646831"><ele>155.33333333333331</ele><time>2026-04-14T16:48:20.007Z</time></trkpt><trkpt lat="45.5819986714953" lon="10.123353040763043"><ele>155.16666666666666</ele><time>2026-04-14T16:48:23.007Z</time></trkpt><trkpt lat="45.58198937666041" lon="10.123470179599336"><ele>155.0</ele><time>2026-04-14T16:48:26.007Z</time></trkpt><trkpt lat="45.58198169691206" lon="10.123579084960516"><ele>154.71428571428572</ele><time>2026-04-14T16:48:29.007Z</time></trkpt><trkpt lat="45.58197181213668" lon="10.123689342607731"><ele>154.42857142857142</ele><time>2026-04-14T16:48:32.007Z</time></trkpt><trkpt lat="45.58193381385038" lon="10.123787083704284"><ele>154.14285714285714</ele><time>2026-04-14T16:48:35.007Z</time></trkpt><trkpt lat="45.58187232012661" lon="10.123839531454086"><ele>153.85714285714286</ele><time>2026-04-14T16:48:38.007Z</time></trkpt><trkpt lat="45.581812453958584" lon="10.123869207242457"><ele>153.57142857142858</ele><time>2026-04-14T16:48:41.008Z</time></trkpt><trkpt lat="45.58172936699547" lon="10.123867401554362"><ele>153.28571428571428</ele><time>2026-04-14T16:48:44.007Z</time></trkpt><trkpt lat="45.58165866954022" lon="10.123842237913316"><ele>153.0</ele><time>2026-04-14T16:48:47.007Z</time></trkpt><trkpt lat="45.58157876099533" lon="10.123823909975263"><ele>153.0</ele><time>2026-04-14T16:48:50.007Z</time></trkpt><trkpt lat="45.581509212791474" lon="10.123806643460442"><ele>153.0</ele><time>2026-04-14T16:48:53.007Z</time></trkpt><trkpt lat="45.58142943730171" lon="10.123789277413268"><ele>153.0</ele><time>2026-04-14T16:48:56.007Z</time></trkpt><trkpt lat="45.581362744663146" lon="10.123768813835344"><ele>153.0</ele><time>2026-04-14T16:48:59.007Z</time></trkpt><trkpt lat="45.58128341387804" lon="10.123769523945194"><ele>153.0</ele><time>2026-04-14T16:49:02.007Z</time></trkpt><trkpt lat="45.581208656697555" lon="10.12377007335727"><ele>153.0</ele><time>2026-04-14T16:49:05.007Z</time></trkpt><trkpt lat="45.58114132894787" lon="10.123775738479209"><ele>153.0</ele><time>2026-04-14T16:49:07.007Z</time></trkpt><trkpt lat="45.58106211859572" lon="10.123771916134405"><ele>153.0</ele><time>2026-04-14T16:49:10.007Z</time></trkpt><trkpt lat="45.5809871962812" lon="10.123790160253803"><ele>153.0</ele><time>2026-04-14T16:49:13.007Z</time></trkpt><trkpt lat="45.58090576480345" lon="10.123791437906192"><ele>153.0</ele><time>2026-04-14T16:49:16.007Z</time></trkpt><trkpt lat="45.58082491000882" lon="10.12380347644788"><ele>153.0</ele><time>2026-04-14T16:49:19.007Z</time></trkpt><trkpt lat="45.58074667004893" lon="10.123806211282428"><ele>153.0</ele><time>2026-04-14T16:49:22.007Z</time></trkpt><trkpt lat="45.58066682117944" lon="10.123785681136551"><ele>153.0</ele><time>2026-04-14T16:49:25.007Z</time></trkpt><trkpt lat="45.58058824740969" lon="10.123790053720738"><ele>153.0</ele><time>2026-04-14T16:49:28.007Z</time></trkpt><trkpt lat="45.580507228799064" lon="10.123793566787315"><ele>153.0</ele><time>2026-04-14T16:49:31.007Z</time></trkpt><trkpt lat="45.58042596657913" lon="10.123808100910816"><ele>153.0</ele><time>2026-04-14T16:49:34.007Z</time></trkpt><trkpt lat="45.5803428929683" lon="10.123799655645596"><ele>153.0</ele><time>2026-04-14T16:49:37.007Z</time></trkpt><trkpt lat="45.580262576282855" lon="10.123793955517403"><ele>153.0</ele><time>2026-04-14T16:49:40.007Z</time></trkpt><trkpt lat="45.58018744915393" lon="10.12381207804583"><ele>153.0</ele><time>2026-04-14T16:49:43.007Z</time></trkpt><trkpt lat="45.58010456833123" lon="10.1238108747676"><ele>153.0</ele><time>2026-04-14T16:49:46.007Z</time></trkpt><trkpt lat="45.58002503494856" lon="10.12381905047971"><ele>153.0</ele><time>2026-04-14T16:49:49.007Z</time></trkpt><trkpt lat="45.579934513140046" lon="10.12379699076802"><ele>153.0</ele><time>2026-04-14T16:49:52.007Z</time></trkpt><trkpt lat="45.57985272267494" lon="10.12377293721767"><ele>153.0</ele><time>2026-04-14T16:49:55.007Z</time></trkpt><trkpt lat="45.579775132176245" lon="10.123761679039326"><ele>153.0</ele><time>2026-04-14T16:49:58.007Z</time></trkpt><trkpt lat="45.57969233273831" lon="10.12374974539946"><ele>153.0</ele><time>2026-04-14T16:50:01.007Z</time></trkpt><trkpt lat="45.57961264958241" lon="10.123752146495974"><ele>153.0</ele><time>2026-04-14T16:50:04.007Z</time></trkpt><trkpt lat="45.57953941870355" lon="10.123743159172408"><ele>153.0</ele><time>2026-04-14T16:50:07.007Z</time></trkpt><trkpt lat="45.57945642832763" lon="10.123761075134025"><ele>153.0</ele><time>2026-04-14T16:50:10.007Z</time></trkpt><trkpt lat="45.57937808364942" lon="10.123764593141292"><ele>153.0</ele><time>2026-04-14T16:50:13.008Z</time></trkpt><trkpt lat="45.5793013602621" lon="10.123761888162855"><ele>153.0</ele><time>2026-04-14T16:50:16.008Z</time></trkpt><trkpt lat="45.579221977218864" lon="10.123762109559294"><ele>153.0</ele><time>2026-04-14T16:50:19.008Z</time></trkpt><trkpt lat="45.57914172290844" lon="10.12376607345981"><ele>152.83333333333334</ele><time>2026-04-14T16:50:22.008Z</time></trkpt><trkpt lat="45.57906642768936" lon="10.123774728297919"><ele>152.66666666666666</ele><time>2026-04-14T16:50:25.008Z</time></trkpt><trkpt lat="45.57898078330733" lon="10.123769112162362"><ele>152.5</ele><time>2026-04-14T16:50:28.008Z</time></trkpt><trkpt lat="45.57890383688097" lon="10.123762754363685"><ele>152.33333333333331</ele><time>2026-04-14T16:50:31.008Z</time></trkpt><trkpt lat="45.578824353297975" lon="10.12376414669061"><ele>152.16666666666666</ele><time>2026-04-14T16:50:34.008Z</time></trkpt><trkpt lat="45.57875337773538" lon="10.123782709664214"><ele>152.0</ele><time>2026-04-14T16:50:37.008Z</time></trkpt><trkpt lat="45.57867487073411" lon="10.12380599092485"><ele>151.83333333333331</ele><time>2026-04-14T16:50:40.007Z</time></trkpt><trkpt lat="45.57859774043431" lon="10.12380380850566"><ele>151.66666666666666</ele><time>2026-04-14T16:50:43.007Z</time></trkpt><trkpt lat="45.57851865117043" lon="10.123808247650581"><ele>151.5</ele><time>2026-04-14T16:50:46.008Z</time></trkpt><trkpt lat="45.57843680083177" lon="10.123813815295172"><ele>151.33333333333334</ele><time>2026-04-14T16:50:49.008Z</time></trkpt><trkpt lat="45.57836550054909" lon="10.123812288090956"><ele>151.16666666666669</ele><time>2026-04-14T16:50:52.007Z</time></trkpt><trkpt lat="45.57829054296121" lon="10.123829823737319"><ele>151.0</ele><time>2026-04-14T16:50:55.007Z</time></trkpt><trkpt lat="45.578210035842766" lon="10.123846532277764"><ele>151.0</ele><time>2026-04-14T16:50:58.007Z</time></trkpt><trkpt lat="45.57813119985915" lon="10.123844927063692"><ele>151.0</ele><time>2026-04-14T16:51:01.007Z</time></trkpt><trkpt lat="45.57804865292688" lon="10.123847998824523"><ele>151.0</ele><time>2026-04-14T16:51:04.007Z</time></trkpt><trkpt lat="45.577964628983366" lon="10.12385442661682"><ele>151.0</ele><time>2026-04-14T16:51:07.007Z</time></trkpt><trkpt lat="45.577885267411446" lon="10.123863866358048"><ele>151.0</ele><time>2026-04-14T16:51:10.007Z</time></trkpt><trkpt lat="45.57779791617488" lon="10.123874781148167"><ele>151.0</ele><time>2026-04-14T16:51:13.007Z</time></trkpt><trkpt lat="45.5777148612924" lon="10.12387858416822"><ele>151.0</ele><time>2026-04-14T16:51:16.007Z</time></trkpt><trkpt lat="45.577639215078634" lon="10.123906266223262"><ele>151.0</ele><time>2026-04-14T16:51:19.007Z</time></trkpt><trkpt lat="45.57757273575445" lon="10.123907804383913"><ele>151.0</ele><time>2026-04-14T16:51:21.007Z</time></trkpt><trkpt lat="45.57748874065832" lon="10.12392974876722"><ele>151.0</ele><time>2026-04-14T16:51:24.007Z</time></trkpt><trkpt lat="45.5774083857365" lon="10.123953943869612"><ele>151.0</ele><time>2026-04-14T16:51:27.007Z</time></trkpt><trkpt lat="45.57734557703471" lon="10.124004283946784"><ele>151.0</ele><time>2026-04-14T16:51:30.007Z</time></trkpt><trkpt lat="45.57728649205104" lon="10.124068424487497"><ele>150.85714285714286</ele><time>2026-04-14T16:51:33.007Z</time></trkpt><trkpt lat="45.5772139531736" lon="10.124091169615724"><ele>150.71428571428572</ele><time>2026-04-14T16:51:36.007Z</time></trkpt><trkpt lat="45.57715576438806" lon="10.124133130322685"><ele>150.57142857142856</ele><time>2026-04-14T16:51:39.007Z</time></trkpt><trkpt lat="45.57708363181764" lon="10.12417344859133"><ele>150.42857142857144</ele><time>2026-04-14T16:51:42.007Z</time></trkpt><trkpt lat="45.577011182682874" lon="10.12419470341519"><ele>150.28571428571428</ele><time>2026-04-14T16:51:45.007Z</time></trkpt><trkpt lat="45.5769417163664" lon="10.124210402873116"><ele>150.14285714285714</ele><time>2026-04-14T16:51:48.007Z</time></trkpt><trkpt lat="45.57687609993232" lon="10.124239842582234"><ele>150.0</ele><time>2026-04-14T16:51:51.007Z</time></trkpt><trkpt lat="45.576802418485165" lon="10.124253021157438"><ele>149.83333333333334</ele><time>2026-04-14T16:51:54.007Z</time></trkpt><trkpt lat="45.57672577981011" lon="10.124282238693178"><ele>149.66666666666666</ele><time>2026-04-14T16:51:57.007Z</time></trkpt><trkpt lat="45.57666166040597" lon="10.12431342900817"><ele>149.5</ele><time>2026-04-14T16:52:00.007Z</time></trkpt><trkpt lat="45.57657390613575" lon="10.12431619740924"><ele>149.33333333333331</ele><time>2026-04-14T16:52:03.007Z</time></trkpt><trkpt lat="45.57648569549952" lon="10.124302506994828"><ele>149.16666666666666</ele><time>2026-04-14T16:52:06.007Z</time></trkpt><trkpt lat="45.576406091677526" lon="10.124335592887162"><ele>149.0</ele><time>2026-04-14T16:52:09.007Z</time></trkpt><trkpt lat="45.57632991025642" lon="10.124354187557792"><ele>149.0</ele><time>2026-04-14T16:52:12.007Z</time></trkpt><trkpt lat="45.57625216194397" lon="10.124368876013662"><ele>149.0</ele><time>2026-04-14T16:52:15.007Z</time></trkpt><trkpt lat="45.57618269743157" lon="10.124402734433154"><ele>149.0</ele><time>2026-04-14T16:52:18.007Z</time></trkpt><trkpt lat="45.57610181450614" lon="10.124403352777911"><ele>149.0</ele><time>2026-04-14T16:52:21.007Z</time></trkpt><trkpt lat="45.57602283511173" lon="10.12438559818762"><ele>149.0</ele><time>2026-04-14T16:52:24.007Z</time></trkpt><trkpt lat="45.57594033659933" lon="10.124382372534074"><ele>149.0</ele><time>2026-04-14T16:52:27.007Z</time></trkpt><trkpt lat="45.575864797384185" lon="10.124388805074213"><ele>148.83333333333331</ele><time>2026-04-14T16:52:30.007Z</time></trkpt><trkpt lat="45.57579349987191" lon="10.124407365397264"><ele>148.66666666666666</ele><time>2026-04-14T16:52:33.007Z</time></trkpt><trkpt lat="45.57572491389574" lon="10.124432069468673"><ele>148.5</ele><time>2026-04-14T16:52:36.008Z</time></trkpt><trkpt lat="45.57564522564786" lon="10.124435149554408"><ele>148.33333333333334</ele><time>2026-04-14T16:52:39.008Z</time></trkpt><trkpt lat="45.575564681798184" lon="10.124458210609221"><ele>148.16666666666669</ele><time>2026-04-14T16:52:42.008Z</time></trkpt><trkpt lat="45.57548750100607" lon="10.12449128428941"><ele>148.0</ele><time>2026-04-14T16:52:45.008Z</time></trkpt><trkpt lat="45.57540974453622" lon="10.124548780931567"><ele>148.0</ele><time>2026-04-14T16:52:48.008Z</time></trkpt><trkpt lat="45.57533614826064" lon="10.124624305989014"><ele>148.0</ele><time>2026-04-14T16:52:51.008Z</time></trkpt><trkpt lat="45.57527978810712" lon="10.124705352325337"><ele>148.0</ele><time>2026-04-14T16:52:54.008Z</time></trkpt><trkpt lat="45.575206900182316" lon="10.124769169837064"><ele>148.0</ele><time>2026-04-14T16:52:57.008Z</time></trkpt><trkpt lat="45.57513330447657" lon="10.124816418475065"><ele>148.0</ele><time>2026-04-14T16:53:00.008Z</time></trkpt><trkpt lat="45.575054371051074" lon="10.124849269538231"><ele>148.0</ele><time>2026-04-14T16:53:03.008Z</time></trkpt><trkpt lat="45.57497759986793" lon="10.12486959745868"><ele>148.0</ele><time>2026-04-14T16:53:06.008Z</time></trkpt><trkpt lat="45.57490316151738" lon="10.124875773768286"><ele>148.0</ele><time>2026-04-14T16:53:09.008Z</time></trkpt><trkpt lat="45.57482149812958" lon="10.124895572618357"><ele>148.0</ele><time>2026-04-14T16:53:12.008Z</time></trkpt><trkpt lat="45.57474225820257" lon="10.124929321655454"><ele>148.0</ele><time>2026-04-14T16:53:15.008Z</time></trkpt><trkpt lat="45.57467864942362" lon="10.12493787972211"><ele>148.0</ele><time>2026-04-14T16:53:17.008Z</time></trkpt><trkpt lat="45.574590056590935" lon="10.124953971725766"><ele>148.0</ele><time>2026-04-14T16:53:20.008Z</time></trkpt><trkpt lat="45.57450178765035" lon="10.124943588541544"><ele>147.66666666666669</ele><time>2026-04-14T16:53:23.008Z</time></trkpt><trkpt lat="45.57442535521179" lon="10.124942189426905"><ele>147.33333333333334</ele><time>2026-04-14T16:53:26.008Z</time></trkpt><trkpt lat="45.57435141461084" lon="10.124969702332965"><ele>147.0</ele><time>2026-04-14T16:53:29.008Z</time></trkpt><trkpt lat="45.57427400119824" lon="10.124994653563718"><ele>146.66666666666666</ele><time>2026-04-14T16:53:32.008Z</time></trkpt><trkpt lat="45.5741941405919" lon="10.125002415071299"><ele>146.33333333333331</ele><time>2026-04-14T16:53:35.008Z</time></trkpt><trkpt lat="45.574116022873305" lon="10.12498744151114"><ele>146.0</ele><time>2026-04-14T16:53:38.008Z</time></trkpt><trkpt lat="45.57402988298475" lon="10.124981129342109"><ele>146.0</ele><time>2026-04-14T16:53:41.008Z</time></trkpt><trkpt lat="45.573945579142446" lon="10.124992724963674"><ele>146.0</ele><time>2026-04-14T16:53:44.008Z</time></trkpt><trkpt lat="45.57386362129961" lon="10.125009432033213"><ele>146.0</ele><time>2026-04-14T16:53:47.008Z</time></trkpt><trkpt lat="45.57379086609454" lon="10.125066205110219"><ele>146.0</ele><time>2026-04-14T16:53:50.008Z</time></trkpt><trkpt lat="45.57372535561552" lon="10.125156846093624"><ele>146.0</ele><time>2026-04-14T16:53:53.008Z</time></trkpt><trkpt lat="45.573684126453564" lon="10.12522804384309"><ele>146.0</ele><time>2026-04-14T16:53:55.008Z</time></trkpt><trkpt lat="45.573636334471715" lon="10.125318822599054"><ele>146.0</ele><time>2026-04-14T16:53:58.008Z</time></trkpt><trkpt lat="45.573589026424024" lon="10.125407601378557"><ele>146.0</ele><time>2026-04-14T16:54:01.008Z</time></trkpt><trkpt lat="45.57355279944075" lon="10.125499013801319"><ele>146.0</ele><time>2026-04-14T16:54:04.008Z</time></trkpt><trkpt lat="45.57351509456051" lon="10.125574003806289"><ele>146.0</ele><time>2026-04-14T16:54:06.008Z</time></trkpt><trkpt lat="45.57348986663428" lon="10.125683343033986"><ele>146.0</ele><time>2026-04-14T16:54:09.008Z</time></trkpt><trkpt lat="45.57347755557083" lon="10.125797117598545"><ele>146.0</ele><time>2026-04-14T16:54:12.008Z</time></trkpt><trkpt lat="45.57345637945365" lon="10.125896704246458"><ele>145.83333333333331</ele><time>2026-04-14T16:54:14.008Z</time></trkpt><trkpt lat="45.5734561887278" lon="10.126021068668239"><ele>145.66666666666666</ele><time>2026-04-14T16:54:17.008Z</time></trkpt><trkpt lat="45.57345889413294" lon="10.126137692317545"><ele>145.5</ele><time>2026-04-14T16:54:20.008Z</time></trkpt><trkpt lat="45.573494242579" lon="10.126238756136765"><ele>145.33333333333334</ele><time>2026-04-14T16:54:23.008Z</time></trkpt><trkpt lat="45.57352057486504" lon="10.126335549226987"><ele>145.16666666666669</ele><time>2026-04-14T16:54:26.008Z</time></trkpt><trkpt lat="45.57353992038364" lon="10.12643874285172"><ele>145.0</ele><time>2026-04-14T16:54:29.008Z</time></trkpt><trkpt lat="45.57356887817606" lon="10.12654099686004"><ele>145.0</ele><time>2026-04-14T16:54:32.008Z</time></trkpt><trkpt lat="45.57353053779127" lon="10.126665098885587"><ele>145.0</ele><time>2026-04-14T16:54:35.008Z</time></trkpt><trkpt lat="45.57353705088577" lon="10.126777097494474"><ele>145.0</ele><time>2026-04-14T16:54:38.008Z</time></trkpt><trkpt lat="45.57351959269064" lon="10.126906324098952"><ele>145.0</ele><time>2026-04-14T16:54:41.008Z</time></trkpt><trkpt lat="45.57350105239581" lon="10.126994169150581"><ele>145.0</ele><time>2026-04-14T16:54:43.008Z</time></trkpt><trkpt lat="45.57351023844169" lon="10.12709785828856"><ele>145.0</ele><time>2026-04-14T16:54:46.008Z</time></trkpt><trkpt lat="45.57352929100256" lon="10.127203257434935"><ele>145.0</ele><time>2026-04-14T16:54:49.008Z</time></trkpt><trkpt lat="45.57354426316209" lon="10.127324407854482"><ele>145.0</ele><time>2026-04-14T16:54:52.008Z</time></trkpt><trkpt lat="45.57355291003077" lon="10.127439627780879"><ele>145.0</ele><time>2026-04-14T16:54:55.008Z</time></trkpt><trkpt lat="45.573559033135794" lon="10.127548109042023"><ele>145.0</ele><time>2026-04-14T16:54:58.009Z</time></trkpt><trkpt lat="45.573566121317626" lon="10.127663524082335"><ele>145.0</ele><time>2026-04-14T16:55:01.008Z</time></trkpt><trkpt lat="45.57356214632042" lon="10.127772801655695"><ele>145.0</ele><time>2026-04-14T16:55:04.008Z</time></trkpt><trkpt lat="45.57355802685146" lon="10.127894258476543"><ele>145.0</ele><time>2026-04-14T16:55:07.008Z</time></trkpt><trkpt lat="45.57357237995868" lon="10.12800078964647"><ele>145.0</ele><time>2026-04-14T16:55:10.008Z</time></trkpt><trkpt lat="45.57357816762539" lon="10.128122666034468"><ele>145.0</ele><time>2026-04-14T16:55:13.008Z</time></trkpt><trkpt lat="45.57357820546646" lon="10.12823800695846"><ele>145.0</ele><time>2026-04-14T16:55:16.008Z</time></trkpt><trkpt lat="45.573598497943415" lon="10.128351279411264"><ele>145.0</ele><time>2026-04-14T16:55:19.008Z</time></trkpt><trkpt lat="45.57361727051255" lon="10.128448789659933"><ele>145.0</ele><time>2026-04-14T16:55:22.008Z</time></trkpt><trkpt lat="45.57363290362284" lon="10.128553649030895"><ele>145.0</ele><time>2026-04-14T16:55:25.008Z</time></trkpt><trkpt lat="45.573650524432665" lon="10.128670964111308"><ele>145.0</ele><time>2026-04-14T16:55:28.008Z</time></trkpt><trkpt lat="45.57369336144171" lon="10.128778395642732"><ele>145.0</ele><time>2026-04-14T16:55:31.008Z</time></trkpt><trkpt lat="45.57371570388382" lon="10.128883935967357"><ele>145.0</ele><time>2026-04-14T16:55:34.008Z</time></trkpt><trkpt lat="45.57374072081772" lon="10.128993806757336"><ele>145.0</ele><time>2026-04-14T16:55:37.008Z</time></trkpt><trkpt lat="45.5737659720933" lon="10.129097760645173"><ele>145.0</ele><time>2026-04-14T16:55:40.008Z</time></trkpt><trkpt lat="45.57380967965274" lon="10.129190176775909"><ele>145.0</ele><time>2026-04-14T16:55:43.008Z</time></trkpt><trkpt lat="45.57387582600691" lon="10.129258396449051"><ele>145.0</ele><time>2026-04-14T16:55:46.008Z</time></trkpt><trkpt lat="45.57390912111832" lon="10.129375116334806"><ele>145.0</ele><time>2026-04-14T16:55:49.008Z</time></trkpt><trkpt lat="45.573906062975986" lon="10.129492787814108"><ele>145.0</ele><time>2026-04-14T16:55:52.008Z</time></trkpt><trkpt lat="45.57387975317029" lon="10.12958187738839"><ele>145.0</ele><time>2026-04-14T16:55:55.008Z</time></trkpt><trkpt lat="45.573790829744986" lon="10.12960938622964"><ele>145.0</ele><time>2026-04-14T16:55:58.008Z</time></trkpt><trkpt lat="45.573703628267225" lon="10.129594658201897"><ele>145.0</ele><time>2026-04-14T16:56:01.008Z</time></trkpt><trkpt lat="45.573631095533806" lon="10.12954298447181"><ele>145.0</ele><time>2026-04-14T16:56:04.008Z</time></trkpt><trkpt lat="45.57356605789096" lon="10.129508656445452"><ele>145.0</ele><time>2026-04-14T16:56:07.008Z</time></trkpt><trkpt lat="45.573473086199485" lon="10.129492567643432"><ele>145.0</ele><time>2026-04-14T16:56:10.008Z</time></trkpt><trkpt lat="45.573391132929736" lon="10.12949726520188"><ele>145.0</ele><time>2026-04-14T16:56:13.008Z</time></trkpt><trkpt lat="45.573306028282" lon="10.129510662141389"><ele>145.0</ele><time>2026-04-14T16:56:16.008Z</time></trkpt><trkpt lat="45.57322638558197" lon="10.129516444662343"><ele>145.0</ele><time>2026-04-14T16:56:19.009Z</time></trkpt><trkpt lat="45.57313127764893" lon="10.129530811467152"><ele>145.0</ele><time>2026-04-14T16:56:22.009Z</time></trkpt><trkpt lat="45.57304082864862" lon="10.129529306153053"><ele>145.0</ele><time>2026-04-14T16:56:25.009Z</time></trkpt><trkpt lat="45.57295102634976" lon="10.12955277561708"><ele>145.0</ele><time>2026-04-14T16:56:28.009Z</time></trkpt><trkpt lat="45.572856452055646" lon="10.129557745286515"><ele>145.0</ele><time>2026-04-14T16:56:31.009Z</time></trkpt><trkpt lat="45.572771052462194" lon="10.129564946628827"><ele>145.16666666666669</ele><time>2026-04-14T16:56:34.009Z</time></trkpt><trkpt lat="45.572697765295985" lon="10.129574145963733"><ele>145.33333333333334</ele><time>2026-04-14T16:56:37.009Z</time></trkpt><trkpt lat="45.5726262096138" lon="10.129597235591204"><ele>145.5</ele><time>2026-04-14T16:56:40.009Z</time></trkpt><trkpt lat="45.572544869438495" lon="10.129608665645923"><ele>145.66666666666666</ele><time>2026-04-14T16:56:43.009Z</time></trkpt><trkpt lat="45.57245299730428" lon="10.129615369346599"><ele>145.83333333333331</ele><time>2026-04-14T16:56:46.009Z</time></trkpt><trkpt lat="45.57236575337327" lon="10.129628948891067"><ele>146.0</ele><time>2026-04-14T16:56:49.009Z</time></trkpt><trkpt lat="45.57229124366227" lon="10.129666082176229"><ele>146.0</ele><time>2026-04-14T16:56:52.009Z</time></trkpt><trkpt lat="45.572213213018934" lon="10.12968329171209"><ele>146.0</ele><time>2026-04-14T16:56:55.009Z</time></trkpt><trkpt lat="45.572139725120564" lon="10.129712847091621"><ele>146.0</ele><time>2026-04-14T16:56:58.008Z</time></trkpt><trkpt lat="45.57205961582752" lon="10.12974486492589"><ele>146.0</ele><time>2026-04-14T16:57:01.009Z</time></trkpt><trkpt lat="45.57197962366763" lon="10.129764381806686"><ele>146.0</ele><time>2026-04-14T16:57:04.008Z</time></trkpt><trkpt lat="45.57190558945363" lon="10.129778004495833"><ele>146.0</ele><time>2026-04-14T16:57:07.009Z</time></trkpt><trkpt lat="45.57183796494062" lon="10.129803972690999"><ele>145.66666666666666</ele><time>2026-04-14T16:57:10.009Z</time></trkpt><trkpt lat="45.57176400252344" lon="10.129827691409183"><ele>145.33333333333331</ele><time>2026-04-14T16:57:13.009Z</time></trkpt><trkpt lat="45.57168781804594" lon="10.129854479120503"><ele>145.0</ele><time>2026-04-14T16:57:16.009Z</time></trkpt><trkpt lat="45.571600909989584" lon="10.129860085004553"><ele>144.66666666666666</ele><time>2026-04-14T16:57:19.009Z</time></trkpt><trkpt lat="45.57152561027604" lon="10.129879570734436"><ele>144.33333333333334</ele><time>2026-04-14T16:57:22.009Z</time></trkpt><trkpt lat="45.57144262661605" lon="10.12989786979634"><ele>144.0</ele><time>2026-04-14T16:57:25.009Z</time></trkpt><trkpt lat="45.571361403356036" lon="10.129927220415478"><ele>144.0</ele><time>2026-04-14T16:57:28.009Z</time></trkpt><trkpt lat="45.5712914955115" lon="10.129974043913927"><ele>144.0</ele><time>2026-04-14T16:57:31.009Z</time></trkpt><trkpt lat="45.57122628806432" lon="10.130025994586045"><ele>144.0</ele><time>2026-04-14T16:57:34.009Z</time></trkpt><trkpt lat="45.57124213985697" lon="10.130116827942341"><ele>144.0</ele><time>2026-04-14T16:57:36.009Z</time></trkpt><trkpt lat="45.57126076566441" lon="10.130227850291513"><ele>144.0</ele><time>2026-04-14T16:57:39.009Z</time></trkpt><trkpt lat="45.57130202154871" lon="10.130333750432767"><ele>144.0</ele><time>2026-04-14T16:57:42.009Z</time></trkpt><trkpt lat="45.5713397280161" lon="10.130449118897236"><ele>144.0</ele><time>2026-04-14T16:57:45.009Z</time></trkpt><trkpt lat="45.5713614057056" lon="10.130572786998584"><ele>144.0</ele><time>2026-04-14T16:57:48.009Z</time></trkpt><trkpt lat="45.57138039518155" lon="10.130688042682962"><ele>144.0</ele><time>2026-04-14T16:57:51.009Z</time></trkpt><trkpt lat="45.571414055392644" lon="10.130802371859845"><ele>144.0</ele><time>2026-04-14T16:57:54.009Z</time></trkpt><trkpt lat="45.57143639799732" lon="10.130919385415414"><ele>144.0</ele><time>2026-04-14T16:57:57.009Z</time></trkpt><trkpt lat="45.5714636070911" lon="10.131044901040271"><ele>144.0</ele><time>2026-04-14T16:58:00.009Z</time></trkpt><trkpt lat="45.57149044278185" lon="10.13117143371318"><ele>144.0</ele><time>2026-04-14T16:58:03.009Z</time></trkpt><trkpt lat="45.57151153621629" lon="10.131288376636197"><ele>144.0</ele><time>2026-04-14T16:58:06.009Z</time></trkpt><trkpt lat="45.57153925443667" lon="10.131405179586348"><ele>144.0</ele><time>2026-04-14T16:58:09.009Z</time></trkpt><trkpt lat="45.57155459863948" lon="10.131529321640373"><ele>144.0</ele><time>2026-04-14T16:58:12.009Z</time></trkpt><trkpt lat="45.57158222051341" lon="10.131643238172853"><ele>144.0</ele><time>2026-04-14T16:58:15.009Z</time></trkpt><trkpt lat="45.57160815177988" lon="10.131760262727923"><ele>144.0</ele><time>2026-04-14T16:58:18.009Z</time></trkpt><trkpt lat="45.57163385148799" lon="10.131883205216042"><ele>144.0</ele><time>2026-04-14T16:58:21.009Z</time></trkpt><trkpt lat="45.57166437719008" lon="10.13199179431963"><ele>144.0</ele><time>2026-04-14T16:58:24.009Z</time></trkpt><trkpt lat="45.57168930187488" lon="10.132106319991768"><ele>144.0</ele><time>2026-04-14T16:58:27.009Z</time></trkpt><trkpt lat="45.57171374182419" lon="10.132222005188103"><ele>144.0</ele><time>2026-04-14T16:58:30.009Z</time></trkpt><trkpt lat="45.57177437210924" lon="10.132291795529904"><ele>144.0</ele><time>2026-04-14T16:58:33.009Z</time></trkpt><trkpt lat="45.57185319924238" lon="10.132280096979272"><ele>144.0</ele><time>2026-04-14T16:58:36.009Z</time></trkpt><trkpt lat="45.571921337108975" lon="10.132259697772431"><ele>144.0</ele><time>2026-04-14T16:58:39.009Z</time></trkpt><trkpt lat="45.57199223573125" lon="10.132239272811542"><ele>144.0</ele><time>2026-04-14T16:58:42.009Z</time></trkpt><trkpt lat="45.572073717532874" lon="10.132221115576066"><ele>144.0</ele><time>2026-04-14T16:58:45.009Z</time></trkpt><trkpt lat="45.57215111149037" lon="10.132191716685146"><ele>144.0</ele><time>2026-04-14T16:58:48.009Z</time></trkpt><trkpt lat="45.57222768982462" lon="10.132184793053877"><ele>144.0</ele><time>2026-04-14T16:58:51.009Z</time></trkpt><trkpt lat="45.57230023938455" lon="10.13216650767096"><ele>144.0</ele><time>2026-04-14T16:58:54.009Z</time></trkpt><trkpt lat="45.57237335251192" lon="10.13215413472919"><ele>144.0</ele><time>2026-04-14T16:58:57.009Z</time></trkpt><trkpt lat="45.57244854511749" lon="10.132152579891788"><ele>144.0</ele><time>2026-04-14T16:59:00.009Z</time></trkpt><trkpt lat="45.57253542387139" lon="10.132145167646454"><ele>144.0</ele><time>2026-04-14T16:59:03.009Z</time></trkpt><trkpt lat="45.572609276120936" lon="10.132134036475678"><ele>144.0</ele><time>2026-04-14T16:59:06.009Z</time></trkpt><trkpt lat="45.57268409368422" lon="10.132151345935695"><ele>144.0</ele><time>2026-04-14T16:59:09.009Z</time></trkpt><trkpt lat="45.57276628245092" lon="10.132147269480054"><ele>144.0</ele><time>2026-04-14T16:59:12.009Z</time></trkpt><trkpt lat="45.572849022439414" lon="10.132139433295185"><ele>143.83333333333334</ele><time>2026-04-14T16:59:15.009Z</time></trkpt><trkpt lat="45.57293431890181" lon="10.132136202161686"><ele>143.66666666666666</ele><time>2026-04-14T16:59:18.009Z</time></trkpt><trkpt lat="45.573017082594745" lon="10.132124835982916"><ele>143.5</ele><time>2026-04-14T16:59:21.009Z</time></trkpt><trkpt lat="45.573097792450454" lon="10.132112210308378"><ele>143.33333333333331</ele><time>2026-04-14T16:59:24.009Z</time></trkpt><trkpt lat="45.57317544569485" lon="10.13210017820636"><ele>143.16666666666666</ele><time>2026-04-14T16:59:27.009Z</time></trkpt><trkpt lat="45.57324924146263" lon="10.132090793793436"><ele>143.0</ele><time>2026-04-14T16:59:30.01Z</time></trkpt><trkpt lat="45.573324442958935" lon="10.132064666995015"><ele>143.0</ele><time>2026-04-14T16:59:33.01Z</time></trkpt><trkpt lat="45.573402617216765" lon="10.132039235026602"><ele>143.0</ele><time>2026-04-14T16:59:36.01Z</time></trkpt><trkpt lat="45.57348284551533" lon="10.13201734051823"><ele>143.0</ele><time>2026-04-14T16:59:39.01Z</time></trkpt><trkpt lat="45.57355890927723" lon="10.131983635987302"><ele>143.0</ele><time>2026-04-14T16:59:42.01Z</time></trkpt><trkpt lat="45.57363376002527" lon="10.131946451595669"><ele>143.0</ele><time>2026-04-14T16:59:45.01Z</time></trkpt><trkpt lat="45.57370259055003" lon="10.13192906915133"><ele>143.0</ele><time>2026-04-14T16:59:48.01Z</time></trkpt><trkpt lat="45.57377765122561" lon="10.131901766841223"><ele>143.0</ele><time>2026-04-14T16:59:51.01Z</time></trkpt><trkpt lat="45.5738560200848" lon="10.131878391639342"><ele>143.0</ele><time>2026-04-14T16:59:54.01Z</time></trkpt><trkpt lat="45.5739335500691" lon="10.13186684739729"><ele>143.0</ele><time>2026-04-14T16:59:57.01Z</time></trkpt><trkpt lat="45.574010669603176" lon="10.131876057574146"><ele>143.0</ele><time>2026-04-14T17:00:00.01Z</time></trkpt><trkpt lat="45.574087141051415" lon="10.131896539768698"><ele>143.0</ele><time>2026-04-14T17:00:03.01Z</time></trkpt><trkpt lat="45.57415698129965" lon="10.131931592342879"><ele>143.0</ele><time>2026-04-14T17:00:06.01Z</time></trkpt><trkpt lat="45.574235140529" lon="10.131967988334521"><ele>143.0</ele><time>2026-04-14T17:00:09.01Z</time></trkpt><trkpt lat="45.57430582959854" lon="10.13200310258222"><ele>143.0</ele><time>2026-04-14T17:00:12.01Z</time></trkpt><trkpt lat="45.574377246140024" lon="10.132054628281"><ele>143.0</ele><time>2026-04-14T17:00:15.01Z</time></trkpt><trkpt lat="45.57445284937001" lon="10.132084547488123"><ele>143.0</ele><time>2026-04-14T17:00:18.01Z</time></trkpt><trkpt lat="45.574522065852776" lon="10.132128955012654"><ele>143.0</ele><time>2026-04-14T17:00:21.01Z</time></trkpt><trkpt lat="45.57459622331601" lon="10.132168505887169"><ele>143.0</ele><time>2026-04-14T17:00:24.01Z</time></trkpt><trkpt lat="45.57467458189111" lon="10.132210847946283"><ele>143.16666666666666</ele><time>2026-04-14T17:00:27.01Z</time></trkpt><trkpt lat="45.5747490281815" lon="10.132231969092777"><ele>143.33333333333331</ele><time>2026-04-14T17:00:30.01Z</time></trkpt><trkpt lat="45.57482274196536" lon="10.132269283722442"><ele>143.5</ele><time>2026-04-14T17:00:33.01Z</time></trkpt><trkpt lat="45.574901592134715" lon="10.132300577395815"><ele>143.66666666666666</ele><time>2026-04-14T17:00:36.01Z</time></trkpt><trkpt lat="45.57497922090454" lon="10.13233351388418"><ele>143.83333333333334</ele><time>2026-04-14T17:00:39.01Z</time></trkpt><trkpt lat="45.57505416376902" lon="10.132366701291213"><ele>144.0</ele><time>2026-04-14T17:00:42.01Z</time></trkpt><trkpt lat="45.57512946108188" lon="10.132379258921812"><ele>143.83333333333334</ele><time>2026-04-14T17:00:45.01Z</time></trkpt><trkpt lat="45.575206549179505" lon="10.132395728822155"><ele>143.66666666666666</ele><time>2026-04-14T17:00:48.01Z</time></trkpt><trkpt lat="45.575284881084094" lon="10.13243284963088"><ele>143.5</ele><time>2026-04-14T17:00:51.01Z</time></trkpt><trkpt lat="45.575380688912006" lon="10.13246095439915"><ele>143.33333333333331</ele><time>2026-04-14T17:00:55.01Z</time></trkpt><trkpt lat="45.57545520029155" lon="10.132501530431155"><ele>143.16666666666666</ele><time>2026-04-14T17:00:58.01Z</time></trkpt><trkpt lat="45.575533538098995" lon="10.132538857745164"><ele>143.0</ele><time>2026-04-14T17:01:01.01Z</time></trkpt><trkpt lat="45.57561537832102" lon="10.132568066259822"><ele>143.33333333333331</ele><time>2026-04-14T17:01:04.01Z</time></trkpt><trkpt lat="45.57570412344639" lon="10.132584155147205"><ele>143.66666666666666</ele><time>2026-04-14T17:01:07.01Z</time></trkpt><trkpt lat="45.57578361279377" lon="10.132597754491243"><ele>144.0</ele><time>2026-04-14T17:01:10.01Z</time></trkpt><trkpt lat="45.575865892214736" lon="10.132604081600778"><ele>144.33333333333334</ele><time>2026-04-14T17:01:13.01Z</time></trkpt><trkpt lat="45.57593945387838" lon="10.132606461914547"><ele>144.66666666666669</ele><time>2026-04-14T17:01:16.009Z</time></trkpt><trkpt lat="45.57601550435279" lon="10.132615554795091"><ele>145.0</ele><time>2026-04-14T17:01:19.01Z</time></trkpt><trkpt lat="45.57609997997152" lon="10.132625951249565"><ele>145.0</ele><time>2026-04-14T17:01:23.01Z</time></trkpt><trkpt lat="45.57617777743075" lon="10.132626166781183"><ele>145.0</ele><time>2026-04-14T17:01:26.01Z</time></trkpt><trkpt lat="45.576252251669004" lon="10.132624529613453"><ele>145.0</ele><time>2026-04-14T17:01:29.01Z</time></trkpt><trkpt lat="45.57632474293724" lon="10.132620978338267"><ele>145.0</ele><time>2026-04-14T17:01:32.01Z</time></trkpt><trkpt lat="45.57639511560328" lon="10.132625383674688"><ele>145.0</ele><time>2026-04-14T17:01:35.01Z</time></trkpt><trkpt lat="45.576473136534894" lon="10.132628170269978"><ele>145.0</ele><time>2026-04-14T17:01:38.01Z</time></trkpt><trkpt lat="45.57653798904989" lon="10.132647799826781"><ele>145.0</ele><time>2026-04-14T17:01:41.01Z</time></trkpt><trkpt lat="45.576618206676415" lon="10.132665044628968"><ele>145.0</ele><time>2026-04-14T17:01:44.01Z</time></trkpt><trkpt lat="45.57669405973056" lon="10.132694790218927"><ele>145.0</ele><time>2026-04-14T17:01:47.01Z</time></trkpt><trkpt lat="45.576776390341024" lon="10.132717830403223"><ele>145.0</ele><time>2026-04-14T17:01:50.01Z</time></trkpt><trkpt lat="45.576859852109166" lon="10.132750156729387"><ele>145.0</ele><time>2026-04-14T17:01:53.01Z</time></trkpt><trkpt lat="45.576944545592475" lon="10.132771564694142"><ele>145.0</ele><time>2026-04-14T17:01:56.01Z</time></trkpt><trkpt lat="45.57702490257354" lon="10.132802795153147"><ele>145.0</ele><time>2026-04-14T17:01:59.01Z</time></trkpt><trkpt lat="45.57710097921621" lon="10.13283372455121"><ele>145.0</ele><time>2026-04-14T17:02:02.01Z</time></trkpt><trkpt lat="45.57718096508481" lon="10.132857790112617"><ele>145.0</ele><time>2026-04-14T17:02:05.01Z</time></trkpt><trkpt lat="45.57725773011545" lon="10.132874365005279"><ele>145.0</ele><time>2026-04-14T17:02:08.01Z</time></trkpt><trkpt lat="45.57733696778854" lon="10.132879406051458"><ele>145.0</ele><time>2026-04-14T17:02:11.01Z</time></trkpt><trkpt lat="45.57741705365167" lon="10.13288709704788"><ele>145.0</ele><time>2026-04-14T17:02:14.01Z</time></trkpt><trkpt lat="45.577494677075904" lon="10.13289373069968"><ele>145.0</ele><time>2026-04-14T17:02:17.01Z</time></trkpt><trkpt lat="45.57757189228304" lon="10.13289638573984"><ele>145.0</ele><time>2026-04-14T17:02:20.01Z</time></trkpt><trkpt lat="45.57764231093886" lon="10.132902197277726"><ele>145.0</ele><time>2026-04-14T17:02:23.01Z</time></trkpt><trkpt lat="45.577716039183656" lon="10.132903233882688"><ele>145.0</ele><time>2026-04-14T17:02:26.01Z</time></trkpt><trkpt lat="45.57779148826239" lon="10.132908309524383"><ele>145.0</ele><time>2026-04-14T17:02:29.01Z</time></trkpt><trkpt lat="45.57786809969652" lon="10.132899058828784"><ele>145.0</ele><time>2026-04-14T17:02:32.01Z</time></trkpt><trkpt lat="45.57794180688007" lon="10.132888368706169"><ele>145.0</ele><time>2026-04-14T17:02:35.01Z</time></trkpt><trkpt lat="45.57801372079044" lon="10.132881970118264"><ele>145.0</ele><time>2026-04-14T17:02:38.01Z</time></trkpt><trkpt lat="45.57808604683035" lon="10.132866287113885"><ele>145.5</ele><time>2026-04-14T17:02:41.01Z</time></trkpt><trkpt lat="45.57816572186505" lon="10.13285557481744"><ele>146.0</ele><time>2026-04-14T17:02:44.01Z</time></trkpt><trkpt lat="45.5782412272669" lon="10.132853720056424"><ele>146.5</ele><time>2026-04-14T17:02:47.01Z</time></trkpt><trkpt lat="45.578316419095025" lon="10.132840989922231"><ele>147.0</ele><time>2026-04-14T17:02:50.01Z</time></trkpt><trkpt lat="45.5783996259181" lon="10.132830780550302"><ele>147.5</ele><time>2026-04-14T17:02:53.01Z</time></trkpt><trkpt lat="45.57847438790133" lon="10.13282812388792"><ele>148.0</ele><time>2026-04-14T17:02:56.01Z</time></trkpt><trkpt lat="45.57855290212119" lon="10.132815894437355"><ele>148.0</ele><time>2026-04-14T17:02:59.01Z</time></trkpt><trkpt lat="45.57862889626023" lon="10.132822201488406"><ele>148.0</ele><time>2026-04-14T17:03:02.01Z</time></trkpt><trkpt lat="45.57869834962519" lon="10.132808739459449"><ele>148.0</ele><time>2026-04-14T17:03:05.01Z</time></trkpt><trkpt lat="45.57877910149776" lon="10.132807231610375"><ele>148.0</ele><time>2026-04-14T17:03:08.01Z</time></trkpt><trkpt lat="45.578862023531464" lon="10.132810121915378"><ele>148.0</ele><time>2026-04-14T17:03:11.01Z</time></trkpt><trkpt lat="45.57894134776587" lon="10.132794893590477"><ele>148.0</ele><time>2026-04-14T17:03:14.01Z</time></trkpt><trkpt lat="45.57901871994225" lon="10.132772783802608"><ele>148.16666666666669</ele><time>2026-04-14T17:03:17.01Z</time></trkpt><trkpt lat="45.57910075052062" lon="10.132783778081567"><ele>148.33333333333334</ele><time>2026-04-14T17:03:20.009Z</time></trkpt><trkpt lat="45.579183313476605" lon="10.132763037650117"><ele>148.5</ele><time>2026-04-14T17:03:23.01Z</time></trkpt><trkpt lat="45.57927143910699" lon="10.132765288893184"><ele>148.66666666666666</ele><time>2026-04-14T17:03:26.01Z</time></trkpt><trkpt lat="45.57935634390294" lon="10.132752894909588"><ele>148.83333333333331</ele><time>2026-04-14T17:03:29.01Z</time></trkpt><trkpt lat="45.57942875958513" lon="10.132729482522127"><ele>149.0</ele><time>2026-04-14T17:03:32.01Z</time></trkpt><trkpt lat="45.579513592122524" lon="10.132703702018688"><ele>148.83333333333331</ele><time>2026-04-14T17:03:35.01Z</time></trkpt><trkpt lat="45.579589947799356" lon="10.132665152964362"><ele>148.66666666666666</ele><time>2026-04-14T17:03:38.01Z</time></trkpt><trkpt lat="45.57967028563675" lon="10.132615310459217"><ele>148.5</ele><time>2026-04-14T17:03:41.01Z</time></trkpt><trkpt lat="45.57974717624271" lon="10.132582198729148"><ele>148.33333333333334</ele><time>2026-04-14T17:03:44.01Z</time></trkpt><trkpt lat="45.579830488326984" lon="10.13254483793706"><ele>148.16666666666669</ele><time>2026-04-14T17:03:47.01Z</time></trkpt><trkpt lat="45.5799106555483" lon="10.13250727205598"><ele>148.0</ele><time>2026-04-14T17:03:50.01Z</time></trkpt><trkpt lat="45.579990499273435" lon="10.13246307352293"><ele>148.0</ele><time>2026-04-14T17:03:53.01Z</time></trkpt><trkpt lat="45.58007268026025" lon="10.132428919000123"><ele>148.0</ele><time>2026-04-14T17:03:56.01Z</time></trkpt><trkpt lat="45.58015376569878" lon="10.13238979372354"><ele>148.0</ele><time>2026-04-14T17:03:59.01Z</time></trkpt><trkpt lat="45.580232670939495" lon="10.132341512221862"><ele>148.0</ele><time>2026-04-14T17:04:02.01Z</time></trkpt><trkpt lat="45.58031336504295" lon="10.132302045866359"><ele>148.0</ele><time>2026-04-14T17:04:05.01Z</time></trkpt><trkpt lat="45.58038270626451" lon="10.13224171406103"><ele>148.0</ele><time>2026-04-14T17:04:08.01Z</time></trkpt><trkpt lat="45.58045402857842" lon="10.132185750817989"><ele>147.5</ele><time>2026-04-14T17:04:11.01Z</time></trkpt><trkpt lat="45.58052236131561" lon="10.132115748085345"><ele>147.0</ele><time>2026-04-14T17:04:14.01Z</time></trkpt><trkpt lat="45.580579352105374" lon="10.132043732014626"><ele>146.5</ele><time>2026-04-14T17:04:17.01Z</time></trkpt><trkpt lat="45.58065610926836" lon="10.131986180108168"><ele>146.0</ele><time>2026-04-14T17:04:20.01Z</time></trkpt><trkpt lat="45.580722043435046" lon="10.131921881731762"><ele>145.5</ele><time>2026-04-14T17:04:23.01Z</time></trkpt><trkpt lat="45.580790124197286" lon="10.131853017611151"><ele>145.0</ele><time>2026-04-14T17:04:26.01Z</time></trkpt><trkpt lat="45.58085272293068" lon="10.131781468253731"><ele>145.0</ele><time>2026-04-14T17:04:29.01Z</time></trkpt><trkpt lat="45.580925806937316" lon="10.131726706090841"><ele>145.0</ele><time>2026-04-14T17:04:32.01Z</time></trkpt><trkpt lat="45.580987843835885" lon="10.131663424221202"><ele>145.0</ele><time>2026-04-14T17:04:35.01Z</time></trkpt><trkpt lat="45.581059362571864" lon="10.13160673424764"><ele>145.0</ele><time>2026-04-14T17:04:38.01Z</time></trkpt><trkpt lat="45.58112457150457" lon="10.131538714327613"><ele>145.0</ele><time>2026-04-14T17:04:41.01Z</time></trkpt><trkpt lat="45.58118724578183" lon="10.131465166149539"><ele>145.0</ele><time>2026-04-14T17:04:44.01Z</time></trkpt><trkpt lat="45.58125545701207" lon="10.131397934281534"><ele>145.66666666666669</ele><time>2026-04-14T17:04:47.01Z</time></trkpt><trkpt lat="45.58132667506799" lon="10.13133304637868"><ele>146.33333333333334</ele><time>2026-04-14T17:04:50.01Z</time></trkpt><trkpt lat="45.581392453622655" lon="10.131265710430808"><ele>147.0</ele><time>2026-04-14T17:04:53.01Z</time></trkpt><trkpt lat="45.58145569895606" lon="10.131203514177804"><ele>147.66666666666666</ele><time>2026-04-14T17:04:56.01Z</time></trkpt><trkpt lat="45.5815178891367" lon="10.131120315199887"><ele>148.33333333333331</ele><time>2026-04-14T17:04:59.01Z</time></trkpt><trkpt lat="45.58158171295931" lon="10.131049055339222"><ele>149.0</ele><time>2026-04-14T17:05:02.01Z</time></trkpt><trkpt lat="45.58165207306048" lon="10.130990403445521"><ele>149.0</ele><time>2026-04-14T17:05:05.01Z</time></trkpt><trkpt lat="45.58172194078894" lon="10.130938323260214"><ele>149.0</ele><time>2026-04-14T17:05:08.01Z</time></trkpt><trkpt lat="45.581789630373194" lon="10.130880530968017"><ele>149.0</ele><time>2026-04-14T17:05:11.01Z</time></trkpt><trkpt lat="45.58186853840332" lon="10.130828156903496"><ele>149.0</ele><time>2026-04-14T17:05:14.01Z</time></trkpt><trkpt lat="45.581940047033" lon="10.130766413551667"><ele>149.0</ele><time>2026-04-14T17:05:17.01Z</time></trkpt><trkpt lat="45.582015080620586" lon="10.130719446689127"><ele>149.0</ele><time>2026-04-14T17:05:20.01Z</time></trkpt><trkpt lat="45.58209624282699" lon="10.13067261994449"><ele>149.66666666666666</ele><time>2026-04-14T17:05:23.01Z</time></trkpt><trkpt lat="45.582177755128775" lon="10.130658951609396"><ele>150.33333333333331</ele><time>2026-04-14T17:05:26.01Z</time></trkpt><trkpt lat="45.58226066637705" lon="10.130649634849966"><ele>151.0</ele><time>2026-04-14T17:05:29.01Z</time></trkpt><trkpt lat="45.58233880287105" lon="10.130644376164668"><ele>151.66666666666666</ele><time>2026-04-14T17:05:32.01Z</time></trkpt><trkpt lat="45.58241956177025" lon="10.130638050810065"><ele>152.33333333333334</ele><time>2026-04-14T17:05:35.01Z</time></trkpt><trkpt lat="45.582500371736316" lon="10.130630010434558"><ele>153.0</ele><time>2026-04-14T17:05:38.01Z</time></trkpt><trkpt lat="45.58258082186686" lon="10.130622002051423"><ele>153.0</ele><time>2026-04-14T17:05:41.01Z</time></trkpt><trkpt lat="45.582662752386035" lon="10.13060955645941"><ele>153.0</ele><time>2026-04-14T17:05:44.011Z</time></trkpt><trkpt lat="45.58274116250328" lon="10.13060443879366"><ele>153.0</ele><time>2026-04-14T17:05:47.011Z</time></trkpt><trkpt lat="45.58282148942763" lon="10.130597867735815"><ele>153.0</ele><time>2026-04-14T17:05:50.011Z</time></trkpt><trkpt lat="45.58289927457093" lon="10.13059745222117"><ele>153.0</ele><time>2026-04-14T17:05:53.011Z</time></trkpt><trkpt lat="45.58297940290693" lon="10.130587987233833"><ele>153.0</ele><time>2026-04-14T17:05:56.011Z</time></trkpt><trkpt lat="45.58305728849977" lon="10.13058435807408"><ele>152.66666666666666</ele><time>2026-04-14T17:05:59.011Z</time></trkpt><trkpt lat="45.583139635825326" lon="10.1305719293518"><ele>152.33333333333334</ele><time>2026-04-14T17:06:02.011Z</time></trkpt><trkpt lat="45.58322100641516" lon="10.1305648641251"><ele>152.0</ele><time>2026-04-14T17:06:05.011Z</time></trkpt><trkpt lat="45.58329874023047" lon="10.130550162736936"><ele>151.66666666666669</ele><time>2026-04-14T17:06:08.011Z</time></trkpt><trkpt lat="45.58338198497748" lon="10.130535579393495"><ele>151.33333333333334</ele><time>2026-04-14T17:06:11.011Z</time></trkpt><trkpt lat="45.58346030882725" lon="10.130504939202977"><ele>151.0</ele><time>2026-04-14T17:06:14.011Z</time></trkpt><trkpt lat="45.583535188968746" lon="10.130458578173222"><ele>151.0</ele><time>2026-04-14T17:06:17.011Z</time></trkpt><trkpt lat="45.58360740206565" lon="10.130407211280689"><ele>151.0</ele><time>2026-04-14T17:06:20.011Z</time></trkpt><trkpt lat="45.583678743318266" lon="10.1303570107691"><ele>151.0</ele><time>2026-04-14T17:06:23.011Z</time></trkpt><trkpt lat="45.583749301954214" lon="10.13030000574858"><ele>151.0</ele><time>2026-04-14T17:06:26.011Z</time></trkpt><trkpt lat="45.58382158682551" lon="10.130259392262472"><ele>151.0</ele><time>2026-04-14T17:06:29.011Z</time></trkpt><trkpt lat="45.58390174905661" lon="10.130250110775599"><ele>151.0</ele><time>2026-04-14T17:06:32.011Z</time></trkpt><trkpt lat="45.58393974421085" lon="10.130345753753796"><ele>151.0</ele><time>2026-04-14T17:06:35.011Z</time></trkpt><trkpt lat="45.583934508900114" lon="10.130453858209302"><ele>151.0</ele><time>2026-04-14T17:06:38.011Z</time></trkpt><trkpt lat="45.583937355374886" lon="10.13055326637098"><ele>151.0</ele><time>2026-04-14T17:06:41.011Z</time></trkpt><trkpt lat="45.5839404919811" lon="10.13065614945002"><ele>151.0</ele><time>2026-04-14T17:06:44.011Z</time></trkpt><trkpt lat="45.58393731660477" lon="10.130761201556577"><ele>151.0</ele><time>2026-04-14T17:06:47.011Z</time></trkpt><trkpt lat="45.583942431764484" lon="10.130876357254433"><ele>151.0</ele><time>2026-04-14T17:06:50.011Z</time></trkpt><trkpt lat="45.583945550426506" lon="10.13099468576073"><ele>151.0</ele><time>2026-04-14T17:06:53.011Z</time></trkpt><trkpt lat="45.58394738143303" lon="10.131109080088484"><ele>151.0</ele><time>2026-04-14T17:06:56.011Z</time></trkpt><trkpt lat="45.58394273211052" lon="10.131238477189367"><ele>151.0</ele><time>2026-04-14T17:06:59.011Z</time></trkpt><trkpt lat="45.583941141192504" lon="10.131361015338502"><ele>151.0</ele><time>2026-04-14T17:07:02.011Z</time></trkpt><trkpt lat="45.583940673739804" lon="10.131487714230817"><ele>151.0</ele><time>2026-04-14T17:07:05.011Z</time></trkpt><trkpt lat="45.58394466440456" lon="10.131608641710562"><ele>151.0</ele><time>2026-04-14T17:07:08.011Z</time></trkpt><trkpt lat="45.58394415221365" lon="10.131722462150956"><ele>151.16666666666669</ele><time>2026-04-14T17:07:11.011Z</time></trkpt><trkpt lat="45.583944218134704" lon="10.13183963876498"><ele>151.33333333333334</ele><time>2026-04-14T17:07:14.011Z</time></trkpt><trkpt lat="45.58394210740395" lon="10.131957142367396"><ele>151.5</ele><time>2026-04-14T17:07:17.011Z</time></trkpt><trkpt lat="45.58394998477361" lon="10.132080633485785"><ele>151.66666666666666</ele><time>2026-04-14T17:07:20.011Z</time></trkpt><trkpt lat="45.58395889843989" lon="10.132198466549891"><ele>151.83333333333331</ele><time>2026-04-14T17:07:23.011Z</time></trkpt><trkpt lat="45.583960994351536" lon="10.132315020802746"><ele>152.0</ele><time>2026-04-14T17:07:26.011Z</time></trkpt><trkpt lat="45.58396547353977" lon="10.132434624194238"><ele>152.16666666666666</ele><time>2026-04-14T17:07:29.01Z</time></trkpt><trkpt lat="45.58398029417537" lon="10.13254755847265"><ele>152.33333333333331</ele><time>2026-04-14T17:07:32.01Z</time></trkpt><trkpt lat="45.58398566517583" lon="10.132669055149261"><ele>152.5</ele><time>2026-04-14T17:07:35.01Z</time></trkpt><trkpt lat="45.58399363637627" lon="10.1327953125915"><ele>152.66666666666666</ele><time>2026-04-14T17:07:38.01Z</time></trkpt><trkpt lat="45.58400280349548" lon="10.132913712665749"><ele>152.83333333333334</ele><time>2026-04-14T17:07:41.011Z</time></trkpt><trkpt lat="45.583984067770096" lon="10.13303446559531"><ele>153.0</ele><time>2026-04-14T17:07:44.011Z</time></trkpt><trkpt lat="45.58395526818823" lon="10.133137414501126"><ele>152.83333333333334</ele><time>2026-04-14T17:07:47.011Z</time></trkpt><trkpt lat="45.58393308154505" lon="10.133247650286814"><ele>152.66666666666666</ele><time>2026-04-14T17:07:50.011Z</time></trkpt><trkpt lat="45.583911522014326" lon="10.133360525179523"><ele>152.5</ele><time>2026-04-14T17:07:53.011Z</time></trkpt><trkpt lat="45.58388713832308" lon="10.133469182023234"><ele>152.33333333333331</ele><time>2026-04-14T17:07:56.011Z</time></trkpt><trkpt lat="45.58387122335336" lon="10.133587751574291"><ele>152.16666666666666</ele><time>2026-04-14T17:07:59.011Z</time></trkpt><trkpt lat="45.58386809573602" lon="10.13370605684659"><ele>152.0</ele><time>2026-04-14T17:08:02.011Z</time></trkpt><trkpt lat="45.58385521541083" lon="10.13382038989997"><ele>152.0</ele><time>2026-04-14T17:08:05.011Z</time></trkpt><trkpt lat="45.583835949146675" lon="10.133948342731845"><ele>152.0</ele><time>2026-04-14T17:08:08.011Z</time></trkpt><trkpt lat="45.58382235990245" lon="10.134069382117891"><ele>152.0</ele><time>2026-04-14T17:08:11.011Z</time></trkpt><trkpt lat="45.58380276161356" lon="10.134185718648359"><ele>152.0</ele><time>2026-04-14T17:08:14.011Z</time></trkpt><trkpt lat="45.58379023467337" lon="10.134304097616353"><ele>152.0</ele><time>2026-04-14T17:08:17.011Z</time></trkpt><trkpt lat="45.58377386551468" lon="10.134425422983316"><ele>152.0</ele><time>2026-04-14T17:08:20.011Z</time></trkpt><trkpt lat="45.58375662790193" lon="10.134540344347068"><ele>151.66666666666666</ele><time>2026-04-14T17:08:23.011Z</time></trkpt><trkpt lat="45.58374298144211" lon="10.134651570964156"><ele>151.33333333333331</ele><time>2026-04-14T17:08:26.011Z</time></trkpt><trkpt lat="45.5837253084156" lon="10.13476650843241"><ele>151.0</ele><time>2026-04-14T17:08:29.011Z</time></trkpt><trkpt lat="45.58370253753101" lon="10.134869571098836"><ele>150.66666666666666</ele><time>2026-04-14T17:08:32.011Z</time></trkpt><trkpt lat="45.583679611617775" lon="10.134985028529396"><ele>150.33333333333334</ele><time>2026-04-14T17:08:35.011Z</time></trkpt><trkpt lat="45.583659295495686" lon="10.135099496816245"><ele>150.0</ele><time>2026-04-14T17:08:38.011Z</time></trkpt><trkpt lat="45.58363959485359" lon="10.135205124593202"><ele>149.99999999999997</ele><time>2026-04-14T17:08:41.011Z</time></trkpt><trkpt lat="45.583618311599814" lon="10.135295596734448"><ele>150.0</ele><time>2026-04-14T17:08:44.011Z</time></trkpt><trkpt lat="45.58358997389925" lon="10.135385904197319"><ele>150.0</ele><time>2026-04-14T17:08:47.011Z</time></trkpt><trkpt lat="45.58355838974355" lon="10.135477933265037"><ele>150.0</ele><time>2026-04-14T17:08:50.011Z</time></trkpt><trkpt lat="45.58352668905579" lon="10.135574951852977"><ele>150.0</ele><time>2026-04-14T17:08:53.011Z</time></trkpt><trkpt lat="45.58350818232225" lon="10.135679463805587"><ele>149.99999999999997</ele><time>2026-04-14T17:08:56.011Z</time></trkpt><trkpt lat="45.583486794084166" lon="10.135784113931873"><ele>150.0</ele><time>2026-04-14T17:08:59.011Z</time></trkpt><trkpt lat="45.58347794641046" lon="10.135885490134557"><ele>149.83333333333334</ele><time>2026-04-14T17:09:02.011Z</time></trkpt><trkpt lat="45.58346172038611" lon="10.135987225082639"><ele>149.66666666666666</ele><time>2026-04-14T17:09:05.011Z</time></trkpt><trkpt lat="45.58344681959324" lon="10.136094824626593"><ele>149.5</ele><time>2026-04-14T17:09:08.011Z</time></trkpt><trkpt lat="45.583438788595025" lon="10.136202427640455"><ele>149.33333333333331</ele><time>2026-04-14T17:09:11.011Z</time></trkpt><trkpt lat="45.583422222729745" lon="10.136314876693081"><ele>149.16666666666666</ele><time>2026-04-14T17:09:14.011Z</time></trkpt><trkpt lat="45.58339924925591" lon="10.136414116982678"><ele>149.0</ele><time>2026-04-14T17:09:17.011Z</time></trkpt><trkpt lat="45.58337731289958" lon="10.136533728280341"><ele>148.83333333333331</ele><time>2026-04-14T17:09:20.011Z</time></trkpt><trkpt lat="45.58336844362313" lon="10.136638883510804"><ele>148.66666666666666</ele><time>2026-04-14T17:09:23.011Z</time></trkpt><trkpt lat="45.583360849101204" lon="10.136736958790102"><ele>148.5</ele><time>2026-04-14T17:09:26.011Z</time></trkpt><trkpt lat="45.58334510184103" lon="10.136847134300568"><ele>148.33333333333334</ele><time>2026-04-14T17:09:29.011Z</time></trkpt><trkpt lat="45.58331133177826" lon="10.136957207103872"><ele>148.16666666666669</ele><time>2026-04-14T17:09:32.011Z</time></trkpt><trkpt lat="45.58328714196417" lon="10.137077879558168"><ele>148.0</ele><time>2026-04-14T17:09:35.011Z</time></trkpt><trkpt lat="45.58324983729435" lon="10.137182900817647"><ele>148.0</ele><time>2026-04-14T17:09:38.01Z</time></trkpt><trkpt lat="45.583222696586446" lon="10.137301512929753"><ele>148.0</ele><time>2026-04-14T17:09:41.011Z</time></trkpt><trkpt lat="45.58320545642273" lon="10.137389498786037"><ele>148.0</ele><time>2026-04-14T17:09:43.011Z</time></trkpt><trkpt lat="45.583173959596664" lon="10.137508313287062"><ele>148.0</ele><time>2026-04-14T17:09:46.011Z</time></trkpt><trkpt lat="45.583148459299196" lon="10.137613904131076"><ele>148.0</ele><time>2026-04-14T17:09:49.011Z</time></trkpt><trkpt lat="45.58311933884344" lon="10.137694377204046"><ele>148.0</ele><time>2026-04-14T17:09:51.011Z</time></trkpt><trkpt lat="45.58309070678695" lon="10.137808093180896"><ele>148.0</ele><time>2026-04-14T17:09:54.011Z</time></trkpt><trkpt lat="45.58305472992629" lon="10.137924075826124"><ele>148.0</ele><time>2026-04-14T17:09:57.011Z</time></trkpt><trkpt lat="45.58299760325908" lon="10.138032754783072"><ele>148.0</ele><time>2026-04-14T17:10:00.011Z</time></trkpt><trkpt lat="45.58294839565465" lon="10.138133243611655"><ele>148.0</ele><time>2026-04-14T17:10:03.011Z</time></trkpt><trkpt lat="45.58290572903078" lon="10.138230252018001"><ele>148.0</ele><time>2026-04-14T17:10:06.011Z</time></trkpt><trkpt lat="45.58286191646646" lon="10.138329274034552"><ele>148.0</ele><time>2026-04-14T17:10:09.011Z</time></trkpt><trkpt lat="45.58281713518562" lon="10.138421922347394"><ele>147.83333333333334</ele><time>2026-04-14T17:10:12.011Z</time></trkpt><trkpt lat="45.582780389073974" lon="10.138514530874428"><ele>147.66666666666669</ele><time>2026-04-14T17:10:15.011Z</time></trkpt><trkpt lat="45.582739436643884" lon="10.138597165739558"><ele>147.5</ele><time>2026-04-14T17:10:18.011Z</time></trkpt><trkpt lat="45.582686654927095" lon="10.13868812238461"><ele>147.33333333333334</ele><time>2026-04-14T17:10:21.011Z</time></trkpt><trkpt lat="45.5826453388729" lon="10.138784646652049"><ele>147.16666666666666</ele><time>2026-04-14T17:10:24.011Z</time></trkpt><trkpt lat="45.582624048445716" lon="10.138886119786388"><ele>147.0</ele><time>2026-04-14T17:10:27.011Z</time></trkpt><trkpt lat="45.58258860836537" lon="10.138979192590222"><ele>147.16666666666666</ele><time>2026-04-14T17:10:30.011Z</time></trkpt><trkpt lat="45.58256156832765" lon="10.13908563216527"><ele>147.33333333333334</ele><time>2026-04-14T17:10:33.011Z</time></trkpt><trkpt lat="45.582536940410186" lon="10.139199738382274"><ele>147.5</ele><time>2026-04-14T17:10:36.011Z</time></trkpt><trkpt lat="45.58250989925732" lon="10.13931322176753"><ele>147.66666666666669</ele><time>2026-04-14T17:10:39.011Z</time></trkpt><trkpt lat="45.58247965751363" lon="10.139394468052629"><ele>147.83333333333334</ele><time>2026-04-14T17:10:41.011Z</time></trkpt><trkpt lat="45.5824500385323" lon="10.139514211899124"><ele>148.0</ele><time>2026-04-14T17:10:44.011Z</time></trkpt><trkpt lat="45.58243186939117" lon="10.13963548778222"><ele>148.0</ele><time>2026-04-14T17:10:47.011Z</time></trkpt><trkpt lat="45.582410807046855" lon="10.139751474726966"><ele>148.0</ele><time>2026-04-14T17:10:50.011Z</time></trkpt><trkpt lat="45.58239086698657" lon="10.139863399476654"><ele>148.0</ele><time>2026-04-14T17:10:53.011Z</time></trkpt><trkpt lat="45.58236565450715" lon="10.139979474428598"><ele>148.0</ele><time>2026-04-14T17:10:56.011Z</time></trkpt><trkpt lat="45.582342550046015" lon="10.140101614408897"><ele>148.0</ele><time>2026-04-14T17:10:59.011Z</time></trkpt><trkpt lat="45.582318200130445" lon="10.1402165266185"><ele>148.0</ele><time>2026-04-14T17:11:02.011Z</time></trkpt><trkpt lat="45.58229547632587" lon="10.1403379675221"><ele>148.0</ele><time>2026-04-14T17:11:05.011Z</time></trkpt><trkpt lat="45.58227766989231" lon="10.140461996966922"><ele>148.0</ele><time>2026-04-14T17:11:08.011Z</time></trkpt><trkpt lat="45.58225911438319" lon="10.140578121278661"><ele>148.0</ele><time>2026-04-14T17:11:11.011Z</time></trkpt><trkpt lat="45.582240864399836" lon="10.140702007392694"><ele>148.0</ele><time>2026-04-14T17:11:14.011Z</time></trkpt><trkpt lat="45.58222592037375" lon="10.140821972181866"><ele>148.0</ele><time>2026-04-14T17:11:17.011Z</time></trkpt><trkpt lat="45.582215204594746" lon="10.140937753295306"><ele>148.0</ele><time>2026-04-14T17:11:20.011Z</time></trkpt><trkpt lat="45.582209255321025" lon="10.141054530308821"><ele>148.0</ele><time>2026-04-14T17:11:23.011Z</time></trkpt><trkpt lat="45.58221063365525" lon="10.141173217668522"><ele>148.0</ele><time>2026-04-14T17:11:26.011Z</time></trkpt><trkpt lat="45.582206615546795" lon="10.141291516060322"><ele>148.0</ele><time>2026-04-14T17:11:29.011Z</time></trkpt><trkpt lat="45.58219960405557" lon="10.141418595146632"><ele>148.0</ele><time>2026-04-14T17:11:32.011Z</time></trkpt><trkpt lat="45.582198428740284" lon="10.141531923271712"><ele>148.0</ele><time>2026-04-14T17:11:35.011Z</time></trkpt><trkpt lat="45.58219261810091" lon="10.141646214276282"><ele>148.0</ele><time>2026-04-14T17:11:38.011Z</time></trkpt><trkpt lat="45.58219467556094" lon="10.14175796727642"><ele>147.83333333333334</ele><time>2026-04-14T17:11:41.011Z</time></trkpt><trkpt lat="45.582186418402884" lon="10.141884704181605"><ele>147.66666666666669</ele><time>2026-04-14T17:11:44.011Z</time></trkpt><trkpt lat="45.58217854021247" lon="10.142008587261746"><ele>147.5</ele><time>2026-04-14T17:11:47.011Z</time></trkpt><trkpt lat="45.582178704390365" lon="10.142129111276267"><ele>147.33333333333334</ele><time>2026-04-14T17:11:50.011Z</time></trkpt><trkpt lat="45.58217134910856" lon="10.14224019806617"><ele>147.16666666666666</ele><time>2026-04-14T17:11:53.011Z</time></trkpt><trkpt lat="45.58216531709214" lon="10.14235494163497"><ele>147.0</ele><time>2026-04-14T17:11:56.011Z</time></trkpt><trkpt lat="45.582153510333164" lon="10.1424710854778"><ele>146.83333333333334</ele><time>2026-04-14T17:11:59.011Z</time></trkpt><trkpt lat="45.58213949236832" lon="10.14259121116764"><ele>146.66666666666666</ele><time>2026-04-14T17:12:02.011Z</time></trkpt><trkpt lat="45.582128533733965" lon="10.142712952975863"><ele>146.5</ele><time>2026-04-14T17:12:05.011Z</time></trkpt><trkpt lat="45.58211666406276" lon="10.142822409681253"><ele>146.33333333333331</ele><time>2026-04-14T17:12:08.011Z</time></trkpt><trkpt lat="45.58210427791775" lon="10.142937952643528"><ele>146.16666666666666</ele><time>2026-04-14T17:12:11.011Z</time></trkpt><trkpt lat="45.582091316831516" lon="10.143057756311567"><ele>146.0</ele><time>2026-04-14T17:12:14.011Z</time></trkpt><trkpt lat="45.5820801156829" lon="10.14317360089669"><ele>145.66666666666666</ele><time>2026-04-14T17:12:17.011Z</time></trkpt><trkpt lat="45.582066708916244" lon="10.143286429481428"><ele>145.33333333333331</ele><time>2026-04-14T17:12:20.011Z</time></trkpt><trkpt lat="45.58205022905489" lon="10.14340124076682"><ele>145.0</ele><time>2026-04-14T17:12:23.011Z</time></trkpt><trkpt lat="45.58203769364553" lon="10.143516915054244"><ele>144.66666666666666</ele><time>2026-04-14T17:12:26.011Z</time></trkpt><trkpt lat="45.5820270272994" lon="10.14362586785922"><ele>144.33333333333334</ele><time>2026-04-14T17:12:29.011Z</time></trkpt><trkpt lat="45.582018942392956" lon="10.14373449387193"><ele>144.0</ele><time>2026-04-14T17:12:32.011Z</time></trkpt><trkpt lat="45.58200641701477" lon="10.143843201983215"><ele>144.00000000000003</ele><time>2026-04-14T17:12:35.011Z</time></trkpt><trkpt lat="45.582003649522285" lon="10.143942122542947"><ele>144.0</ele><time>2026-04-14T17:12:38.011Z</time></trkpt><trkpt lat="45.582010044361446" lon="10.14404906531097"><ele>144.0</ele><time>2026-04-14T17:12:41.011Z</time></trkpt><trkpt lat="45.58200897176432" lon="10.144150133647674"><ele>144.0</ele><time>2026-04-14T17:12:44.011Z</time></trkpt><trkpt lat="45.58201860737234" lon="10.144245759882104"><ele>144.0</ele><time>2026-04-14T17:12:47.011Z</time></trkpt><trkpt lat="45.582022051005225" lon="10.144347761339027"><ele>144.00000000000003</ele><time>2026-04-14T17:12:50.011Z</time></trkpt><trkpt lat="45.582029646060064" lon="10.144452127784291"><ele>144.0</ele><time>2026-04-14T17:12:53.011Z</time></trkpt><trkpt lat="45.582042612422555" lon="10.144563746433835"><ele>144.16666666666666</ele><time>2026-04-14T17:12:56.011Z</time></trkpt><trkpt lat="45.58204431416822" lon="10.144682425699571"><ele>144.33333333333334</ele><time>2026-04-14T17:12:59.011Z</time></trkpt><trkpt lat="45.58204793730595" lon="10.144792542264884"><ele>144.5</ele><time>2026-04-14T17:13:02.011Z</time></trkpt><trkpt lat="45.582049838648715" lon="10.144909532616841"><ele>144.66666666666669</ele><time>2026-04-14T17:13:05.011Z</time></trkpt><trkpt lat="45.58205040501683" lon="10.145033901460021"><ele>144.83333333333334</ele><time>2026-04-14T17:13:08.011Z</time></trkpt><trkpt lat="45.58205767790432" lon="10.145144753255458"><ele>145.0</ele><time>2026-04-14T17:13:11.011Z</time></trkpt><trkpt lat="45.58207321224549" lon="10.145232907476903"><ele>145.33333333333334</ele><time>2026-04-14T17:13:13.011Z</time></trkpt><trkpt lat="45.58214610137785" lon="10.145319568659684"><ele>145.66666666666669</ele><time>2026-04-14T17:13:16.011Z</time></trkpt><trkpt lat="45.58222232376719" lon="10.1453875370302"><ele>146.0</ele><time>2026-04-14T17:13:19.011Z</time></trkpt><trkpt lat="45.582282204350754" lon="10.145467726342106"><ele>146.33333333333334</ele><time>2026-04-14T17:13:22.011Z</time></trkpt><trkpt lat="45.58234407538955" lon="10.145558473585869"><ele>146.66666666666666</ele><time>2026-04-14T17:13:25.011Z</time></trkpt><trkpt lat="45.582397212043475" lon="10.145657326803674"><ele>147.0</ele><time>2026-04-14T17:13:28.011Z</time></trkpt><trkpt lat="45.582437089052775" lon="10.145756738582866"><ele>147.0</ele><time>2026-04-14T17:13:31.011Z</time></trkpt><trkpt lat="45.58248245809889" lon="10.145851998909315"><ele>147.0</ele><time>2026-04-14T17:13:34.011Z</time></trkpt><trkpt lat="45.582531648988166" lon="10.145954717304871"><ele>147.0</ele><time>2026-04-14T17:13:37.011Z</time></trkpt><trkpt lat="45.58257188276197" lon="10.146053597315472"><ele>147.0</ele><time>2026-04-14T17:13:40.011Z</time></trkpt><trkpt lat="45.582612116934975" lon="10.146156431265194"><ele>147.0</ele><time>2026-04-14T17:13:43.011Z</time></trkpt><trkpt lat="45.58264472290159" lon="10.146268494558756"><ele>147.0</ele><time>2026-04-14T17:13:46.011Z</time></trkpt><trkpt lat="45.58267468970273" lon="10.146369999549313"><ele>147.0</ele><time>2026-04-14T17:13:49.012Z</time></trkpt><trkpt lat="45.58270648019592" lon="10.146492547040037"><ele>147.0</ele><time>2026-04-14T17:13:53.012Z</time></trkpt><trkpt lat="45.5827302207742" lon="10.14660670078222"><ele>147.0</ele><time>2026-04-14T17:13:56.012Z</time></trkpt><trkpt lat="45.58275761155155" lon="10.14671474784726"><ele>147.0</ele><time>2026-04-14T17:13:59.011Z</time></trkpt><trkpt lat="45.58278275408329" lon="10.146821527303144"><ele>147.0</ele><time>2026-04-14T17:14:02.011Z</time></trkpt><trkpt lat="45.58281333528887" lon="10.146934758731653"><ele>147.0</ele><time>2026-04-14T17:14:05.011Z</time></trkpt><trkpt lat="45.58284435135584" lon="10.147052584474505"><ele>147.0</ele><time>2026-04-14T17:14:08.011Z</time></trkpt><trkpt lat="45.58288512655915" lon="10.147162123316223"><ele>147.0</ele><time>2026-04-14T17:14:11.011Z</time></trkpt><trkpt lat="45.58295598098787" lon="10.147216184686036"><ele>147.0</ele><time>2026-04-14T17:14:14.011Z</time></trkpt><trkpt lat="45.583027198832504" lon="10.147275816076816"><ele>147.0</ele><time>2026-04-14T17:14:17.011Z</time></trkpt><trkpt lat="45.58310072607096" lon="10.147322900258995"><ele>147.0</ele><time>2026-04-14T17:14:20.011Z</time></trkpt><trkpt lat="45.58318093126542" lon="10.14735491582269"><ele>147.0</ele><time>2026-04-14T17:14:23.011Z</time></trkpt><trkpt lat="45.5832507324371" lon="10.147423748873786"><ele>147.0</ele><time>2026-04-14T17:14:26.011Z</time></trkpt><trkpt lat="45.58324618522493" lon="10.14752345479479"><ele>147.0</ele><time>2026-04-14T17:14:29.011Z</time></trkpt><trkpt lat="45.58326592875942" lon="10.147639179829188"><ele>147.0</ele><time>2026-04-14T17:14:32.011Z</time></trkpt><trkpt lat="45.58331166291807" lon="10.147732988921344"><ele>147.0</ele><time>2026-04-14T17:14:35.011Z</time></trkpt><trkpt lat="45.58335524579615" lon="10.147823430461676"><ele>147.0</ele><time>2026-04-14T17:14:38.011Z</time></trkpt><trkpt lat="45.58340969622426" lon="10.14789949103004"><ele>147.0</ele><time>2026-04-14T17:14:41.011Z</time></trkpt><trkpt lat="45.58345530178721" lon="10.147994713206552"><ele>147.0</ele><time>2026-04-14T17:14:44.011Z</time></trkpt><trkpt lat="45.58351212812057" lon="10.148086242023277"><ele>147.0</ele><time>2026-04-14T17:14:47.011Z</time></trkpt><trkpt lat="45.58357211890326" lon="10.148166814708745"><ele>147.0</ele><time>2026-04-14T17:14:50.011Z</time></trkpt><trkpt lat="45.583662218385" lon="10.148240111403963"><ele>147.0</ele><time>2026-04-14T17:14:54.011Z</time></trkpt><trkpt lat="45.58372549287879" lon="10.148303919083622"><ele>147.0</ele><time>2026-04-14T17:14:57.011Z</time></trkpt><trkpt lat="45.58379150584714" lon="10.14836961666957"><ele>147.0</ele><time>2026-04-14T17:15:00.011Z</time></trkpt><trkpt lat="45.58385650915138" lon="10.148442633179544"><ele>148.0</ele><time>2026-04-14T17:15:03.011Z</time></trkpt><trkpt lat="45.583920784167674" lon="10.148524001558984"><ele>149.0</ele><time>2026-04-14T17:15:06.011Z</time></trkpt><trkpt lat="45.583980440031226" lon="10.148599470939745"><ele>150.0</ele><time>2026-04-14T17:15:09.011Z</time></trkpt><trkpt lat="45.58405107075152" lon="10.148666757138862"><ele>151.0</ele><time>2026-04-14T17:15:12.011Z</time></trkpt><trkpt lat="45.58408325199328" lon="10.148744535744697"><ele>152.0</ele><time>2026-04-14T17:15:14.011Z</time></trkpt><trkpt lat="45.584154212832715" lon="10.148824454181396"><ele>153.0</ele><time>2026-04-14T17:15:17.011Z</time></trkpt><trkpt lat="45.58422669789986" lon="10.148901656785455"><ele>153.0</ele><time>2026-04-14T17:15:20.011Z</time></trkpt><trkpt lat="45.5842897361733" lon="10.148952411317033"><ele>153.0</ele><time>2026-04-14T17:15:23.011Z</time></trkpt><trkpt lat="45.58436111155625" lon="10.149004042597952"><ele>153.0</ele><time>2026-04-14T17:15:26.012Z</time></trkpt><trkpt lat="45.5844403151673" lon="10.149028103652416"><ele>153.0</ele><time>2026-04-14T17:15:29.012Z</time></trkpt><trkpt lat="45.584519178393414" lon="10.149037108028937"><ele>153.0</ele><time>2026-04-14T17:15:32.012Z</time></trkpt><trkpt lat="45.58459840250984" lon="10.149057411591613"><ele>153.0</ele><time>2026-04-14T17:15:35.012Z</time></trkpt><trkpt lat="45.584674435249475" lon="10.149077269683277"><ele>153.16666666666666</ele><time>2026-04-14T17:15:38.012Z</time></trkpt><trkpt lat="45.58474997906344" lon="10.149090455102433"><ele>153.33333333333334</ele><time>2026-04-14T17:15:41.012Z</time></trkpt><trkpt lat="45.584834034578215" lon="10.149110940836886"><ele>153.5</ele><time>2026-04-14T17:15:44.012Z</time></trkpt><trkpt lat="45.58491709664891" lon="10.149108904594812"><ele>153.66666666666669</ele><time>2026-04-14T17:15:47.012Z</time></trkpt><trkpt lat="45.5849937756076" lon="10.149105420659291"><ele>153.83333333333334</ele><time>2026-04-14T17:15:50.012Z</time></trkpt><trkpt lat="45.585078386149775" lon="10.149109854427891"><ele>154.0</ele><time>2026-04-14T17:15:53.012Z</time></trkpt><trkpt lat="45.58514982939161" lon="10.149125870560402"><ele>154.0</ele><time>2026-04-14T17:15:56.012Z</time></trkpt><trkpt lat="45.58523037011545" lon="10.149134381333646"><ele>154.0</ele><time>2026-04-14T17:15:59.012Z</time></trkpt><trkpt lat="45.58531164108555" lon="10.149131462504133"><ele>154.0</ele><time>2026-04-14T17:16:02.012Z</time></trkpt><trkpt lat="45.58539116933968" lon="10.149130884500067"><ele>154.0</ele><time>2026-04-14T17:16:05.012Z</time></trkpt><trkpt lat="45.585472333174" lon="10.149123935400665"><ele>154.0</ele><time>2026-04-14T17:16:08.012Z</time></trkpt><trkpt lat="45.58555841784113" lon="10.149129113138864"><ele>154.0</ele><time>2026-04-14T17:16:11.012Z</time></trkpt><trkpt lat="45.585637114374165" lon="10.149137748088064"><ele>154.16666666666669</ele><time>2026-04-14T17:16:14.012Z</time></trkpt><trkpt lat="45.58571670994591" lon="10.149164311260622"><ele>154.33333333333334</ele><time>2026-04-14T17:16:17.012Z</time></trkpt><trkpt lat="45.58579492446146" lon="10.14917518055193"><ele>154.5</ele><time>2026-04-14T17:16:20.012Z</time></trkpt><trkpt lat="45.585869679360584" lon="10.149185806853156"><ele>154.66666666666666</ele><time>2026-04-14T17:16:23.012Z</time></trkpt><trkpt lat="45.585948544078406" lon="10.149211991121858"><ele>154.83333333333331</ele><time>2026-04-14T17:16:26.012Z</time></trkpt><trkpt lat="45.58602604909658" lon="10.149224445045066"><ele>155.0</ele><time>2026-04-14T17:16:29.012Z</time></trkpt><trkpt lat="45.58609943350236" lon="10.149242154524062"><ele>154.66666666666666</ele><time>2026-04-14T17:16:31.944Z</time></trkpt><trkpt lat="45.58617915427371" lon="10.149261780706075"><ele>154.33333333333331</ele><time>2026-04-14T17:16:34.944Z</time></trkpt><trkpt lat="45.58626009076044" lon="10.149276817062622"><ele>154.0</ele><time>2026-04-14T17:16:37.944Z</time></trkpt><trkpt lat="45.58634185320279" lon="10.149273439457463"><ele>153.66666666666666</ele><time>2026-04-14T17:16:40.944Z</time></trkpt><trkpt lat="45.586421824277025" lon="10.149265926523151"><ele>153.33333333333334</ele><time>2026-04-14T17:16:43.944Z</time></trkpt><trkpt lat="45.586494700580324" lon="10.149243414336205"><ele>153.0</ele><time>2026-04-14T17:16:46.944Z</time></trkpt><trkpt lat="45.58657278688237" lon="10.149195697091344"><ele>153.0</ele><time>2026-04-14T17:16:49.944Z</time></trkpt><trkpt lat="45.58665001903859" lon="10.149155903272646"><ele>153.0</ele><time>2026-04-14T17:16:52.944Z</time></trkpt><trkpt lat="45.5867245441461" lon="10.149114712639498"><ele>153.0</ele><time>2026-04-14T17:16:55.944Z</time></trkpt><trkpt lat="45.58680003172103" lon="10.149085988215342"><ele>153.0</ele><time>2026-04-14T17:16:58.944Z</time></trkpt><trkpt lat="45.58687496472974" lon="10.149051846308508"><ele>153.0</ele><time>2026-04-14T17:17:01.944Z</time></trkpt><trkpt lat="45.586960295437706" lon="10.149034460288577"><ele>153.0</ele><time>2026-04-14T17:17:04.944Z</time></trkpt><trkpt lat="45.5870310076148" lon="10.149021524045244"><ele>153.33333333333334</ele><time>2026-04-14T17:17:07.944Z</time></trkpt><trkpt lat="45.58709039402131" lon="10.148981182423674"><ele>153.66666666666666</ele><time>2026-04-14T17:17:10.944Z</time></trkpt><trkpt lat="45.58715671380932" lon="10.149000167910694"><ele>154.0</ele><time>2026-04-14T17:17:12.944Z</time></trkpt><trkpt lat="45.58724479330795" lon="10.148997207780727"><ele>154.33333333333331</ele><time>2026-04-14T17:17:15.944Z</time></trkpt><trkpt lat="45.58733004643104" lon="10.149030477226441"><ele>154.66666666666666</ele><time>2026-04-14T17:17:18.944Z</time></trkpt><trkpt lat="45.58741374174323" lon="10.149058704699014"><ele>155.0</ele><time>2026-04-14T17:17:21.944Z</time></trkpt><trkpt lat="45.5874875707412" lon="10.149072031683081"><ele>155.0</ele><time>2026-04-14T17:17:24.944Z</time></trkpt><trkpt lat="45.58756975332951" lon="10.14906894123493"><ele>155.0</ele><time>2026-04-14T17:17:27.944Z</time></trkpt><trkpt lat="45.587651315541336" lon="10.14906584519443"><ele>155.0</ele><time>2026-04-14T17:17:30.944Z</time></trkpt><trkpt lat="45.58773166579532" lon="10.149033025553662"><ele>155.0</ele><time>2026-04-14T17:17:33.944Z</time></trkpt><trkpt lat="45.58780752463888" lon="10.149005427844829"><ele>155.0</ele><time>2026-04-14T17:17:36.944Z</time></trkpt><trkpt lat="45.58788764764425" lon="10.148983869891415"><ele>155.0</ele><time>2026-04-14T17:17:39.944Z</time></trkpt><trkpt lat="45.58795722887268" lon="10.148941927012858"><ele>156.14285714285714</ele><time>2026-04-14T17:17:42.944Z</time></trkpt><trkpt lat="45.58803218974728" lon="10.148900219135871"><ele>157.28571428571428</ele><time>2026-04-14T17:17:45.943Z</time></trkpt><trkpt lat="45.58809850686394" lon="10.148871641518276"><ele>158.42857142857144</ele><time>2026-04-14T17:17:48.943Z</time></trkpt><trkpt lat="45.58816301845579" lon="10.148844284185904"><ele>159.57142857142856</ele><time>2026-04-14T17:17:51.943Z</time></trkpt><trkpt lat="45.58822543456789" lon="10.148793531535047"><ele>160.7142857142857</ele><time>2026-04-14T17:17:54.943Z</time></trkpt><trkpt lat="45.58829150261138" lon="10.148753216356715"><ele>161.85714285714286</ele><time>2026-04-14T17:17:57.999Z</time></trkpt><trkpt lat="45.58834919400867" lon="10.148711355404933"><ele>163.0</ele><time>2026-04-14T17:18:00.999Z</time></trkpt><trkpt lat="45.58842389897041" lon="10.148652737857201"><ele>163.0</ele><time>2026-04-14T17:18:05Z</time></trkpt><trkpt lat="45.58848613446081" lon="10.148611275373582"><ele>163.0</ele><time>2026-04-14T17:18:08Z</time></trkpt><trkpt lat="45.58853861581413" lon="10.1485552644843"><ele>163.0</ele><time>2026-04-14T17:18:11Z</time></trkpt><trkpt lat="45.58860208297432" lon="10.148524289936034"><ele>163.0</ele><time>2026-04-14T17:18:14Z</time></trkpt><trkpt lat="45.58868458928789" lon="10.148534963462234"><ele>163.0</ele><time>2026-04-14T17:18:17Z</time></trkpt><trkpt lat="45.588759993918345" lon="10.148544867385157"><ele>163.0</ele><time>2026-04-14T17:18:20Z</time></trkpt><trkpt lat="45.58883937750069" lon="10.148547797182129"><ele>163.0</ele><time>2026-04-14T17:18:24Z</time></trkpt><trkpt lat="45.588919040969074" lon="10.148590339490953"><ele>164.14285714285714</ele><time>2026-04-14T17:18:28Z</time></trkpt><trkpt lat="45.58899618487921" lon="10.148641455785862"><ele>165.28571428571428</ele><time>2026-04-14T17:18:32Z</time></trkpt><trkpt lat="45.589056845600915" lon="10.148694898768902"><ele>166.42857142857142</ele><time>2026-04-14T17:18:35Z</time></trkpt><trkpt lat="45.58912480999082" lon="10.148720124690062"><ele>167.57142857142856</ele><time>2026-04-14T17:18:38Z</time></trkpt><trkpt lat="45.58918918514726" lon="10.148750100638898"><ele>168.71428571428572</ele><time>2026-04-14T17:18:41Z</time></trkpt><trkpt lat="45.58924587715221" lon="10.148802464995985"><ele>169.85714285714283</ele><time>2026-04-14T17:18:44Z</time></trkpt><trkpt lat="45.58928513756771" lon="10.148882542768323"><ele>171.0</ele><time>2026-04-14T17:18:47Z</time></trkpt><trkpt lat="45.589315030840986" lon="10.148971686320376"><ele>171.85714285714283</ele><time>2026-04-14T17:18:50Z</time></trkpt><trkpt lat="45.5893475258113" lon="10.149059402402264"><ele>172.71428571428572</ele><time>2026-04-14T17:18:53Z</time></trkpt><trkpt lat="45.58939450735831" lon="10.149130168770803"><ele>173.57142857142856</ele><time>2026-04-14T17:18:56Z</time></trkpt><trkpt lat="45.58944936996808" lon="10.149183833901846"><ele>174.42857142857142</ele><time>2026-04-14T17:18:59Z</time></trkpt><trkpt lat="45.589501662984155" lon="10.149246945724599"><ele>175.28571428571428</ele><time>2026-04-14T17:19:02Z</time></trkpt><trkpt lat="45.589548101283846" lon="10.149321098155085"><ele>176.14285714285714</ele><time>2026-04-14T17:19:05Z</time></trkpt><trkpt lat="45.58959113691168" lon="10.149390977712672"><ele>177.0</ele><time>2026-04-14T17:19:08Z</time></trkpt><trkpt lat="45.58964701025603" lon="10.149458656361714"><ele>177.0</ele><time>2026-04-14T17:19:11Z</time></trkpt><trkpt lat="45.58967840711829" lon="10.149546898621114"><ele>177.0</ele><time>2026-04-14T17:19:14Z</time></trkpt><trkpt lat="45.589681211917735" lon="10.1496445606822"><ele>177.0</ele><time>2026-04-14T17:19:17Z</time></trkpt><trkpt lat="45.58966597757859" lon="10.149747593898345"><ele>177.0</ele><time>2026-04-14T17:19:20Z</time></trkpt><trkpt lat="45.58965272546821" lon="10.149844243476979"><ele>177.0</ele><time>2026-04-14T17:19:23Z</time></trkpt><trkpt lat="45.58962448269469" lon="10.149955407493021"><ele>177.0</ele><time>2026-04-14T17:19:26Z</time></trkpt><trkpt lat="45.58960471724319" lon="10.150072745283934"><ele>177.0</ele><time>2026-04-14T17:19:29Z</time></trkpt><trkpt lat="45.58959659218634" lon="10.150175537810194"><ele>177.71428571428572</ele><time>2026-04-14T17:19:32Z</time></trkpt><trkpt lat="45.589567620557716" lon="10.150275480904606"><ele>178.42857142857142</ele><time>2026-04-14T17:19:35Z</time></trkpt><trkpt lat="45.589540871398974" lon="10.150373929519645"><ele>179.14285714285714</ele><time>2026-04-14T17:19:38Z</time></trkpt><trkpt lat="45.5895382175573" lon="10.150471386226085"><ele>179.85714285714286</ele><time>2026-04-14T17:19:41Z</time></trkpt><trkpt lat="45.589589099047956" lon="10.1505530819467"><ele>180.57142857142856</ele><time>2026-04-14T17:19:44Z</time></trkpt><trkpt lat="45.58964218272891" lon="10.150614386080349"><ele>181.28571428571428</ele><time>2026-04-14T17:19:47Z</time></trkpt><trkpt lat="45.58968554721518" lon="10.15068169254606"><ele>182.0</ele><time>2026-04-14T17:19:50Z</time></trkpt><trkpt lat="45.58974213070774" lon="10.150745315844446"><ele>182.0</ele><time>2026-04-14T17:19:53Z</time></trkpt><trkpt lat="45.589803602082085" lon="10.15079787134647"><ele>182.0</ele><time>2026-04-14T17:19:56Z</time></trkpt><trkpt lat="45.589847969751396" lon="10.150877048208585"><ele>182.0</ele><time>2026-04-14T17:19:59Z</time></trkpt><trkpt lat="45.58988699865515" lon="10.150964632225515"><ele>182.0</ele><time>2026-04-14T17:20:02Z</time></trkpt><trkpt lat="45.58991526283127" lon="10.151055104030535"><ele>182.0</ele><time>2026-04-14T17:20:05Z</time></trkpt><trkpt lat="45.58997667139943" lon="10.151122912832045"><ele>182.0</ele><time>2026-04-14T17:20:08Z</time></trkpt><trkpt lat="45.59003867168611" lon="10.151184357385398"><ele>182.0</ele><time>2026-04-14T17:20:11Z</time></trkpt><trkpt lat="45.59008796234242" lon="10.151259692070061"><ele>182.0</ele><time>2026-04-14T17:20:14Z</time></trkpt><trkpt lat="45.5901422947603" lon="10.151335391850429"><ele>182.0</ele><time>2026-04-14T17:20:17Z</time></trkpt><trkpt lat="45.590192788396905" lon="10.151404165330703"><ele>182.0</ele><time>2026-04-14T17:20:20Z</time></trkpt><trkpt lat="45.59025675281229" lon="10.151479667801192"><ele>182.0</ele><time>2026-04-14T17:20:23Z</time></trkpt><trkpt lat="45.59031280516848" lon="10.151541286443447"><ele>182.0</ele><time>2026-04-14T17:20:26Z</time></trkpt><trkpt lat="45.59036843613671" lon="10.151594624943806"><ele>182.0</ele><time>2026-04-14T17:20:29Z</time></trkpt><trkpt lat="45.59042595858561" lon="10.151651598411162"><ele>182.0</ele><time>2026-04-14T17:20:32Z</time></trkpt><trkpt lat="45.59049219635982" lon="10.151682120586159"><ele>182.28571428571428</ele><time>2026-04-14T17:20:35Z</time></trkpt><trkpt lat="45.59056237699689" lon="10.151715767964816"><ele>182.57142857142856</ele><time>2026-04-14T17:20:38Z</time></trkpt><trkpt lat="45.590621331310295" lon="10.151766402739323"><ele>182.85714285714286</ele><time>2026-04-14T17:20:41Z</time></trkpt><trkpt lat="45.59068264960862" lon="10.151812717167735"><ele>183.14285714285714</ele><time>2026-04-14T17:20:44Z</time></trkpt><trkpt lat="45.59076312201828" lon="10.151805790023854"><ele>183.42857142857142</ele><time>2026-04-14T17:20:47Z</time></trkpt><trkpt lat="45.59082663219442" lon="10.151813891230105"><ele>183.71428571428572</ele><time>2026-04-14T17:20:50Z</time></trkpt><trkpt lat="45.59089329830032" lon="10.151843216704291"><ele>184.0</ele><time>2026-04-14T17:20:53Z</time></trkpt><trkpt lat="45.59097001086984" lon="10.151843240296516"><ele>184.0</ele><time>2026-04-14T17:20:56Z</time></trkpt><trkpt lat="45.59102764636168" lon="10.151891980799403"><ele>184.0</ele><time>2026-04-14T17:20:59Z</time></trkpt><trkpt lat="45.59109326395108" lon="10.151941072705787"><ele>184.0</ele><time>2026-04-14T17:21:02Z</time></trkpt><trkpt lat="45.59116433431866" lon="10.151939812408216"><ele>184.0</ele><time>2026-04-14T17:21:05Z</time></trkpt><trkpt lat="45.591232230288774" lon="10.15193876792789"><ele>184.0</ele><time>2026-04-14T17:21:08Z</time></trkpt><trkpt lat="45.59130192343638" lon="10.15195021693421"><ele>184.0</ele><time>2026-04-14T17:21:11Z</time></trkpt><trkpt lat="45.591367620591285" lon="10.151982533253188"><ele>184.0</ele><time>2026-04-14T17:21:14Z</time></trkpt><trkpt lat="45.59143055013423" lon="10.151986404187664"><ele>184.5</ele><time>2026-04-14T17:21:17Z</time></trkpt><trkpt lat="45.5914957455179" lon="10.152015391218892"><ele>185.0</ele><time>2026-04-14T17:21:20Z</time></trkpt><trkpt lat="45.59156630869681" lon="10.152043214729364"><ele>185.5</ele><time>2026-04-14T17:21:23Z</time></trkpt><trkpt lat="45.591644567768796" lon="10.152095577002656"><ele>186.0</ele><time>2026-04-14T17:21:26Z</time></trkpt><trkpt lat="45.591730230244934" lon="10.152123812891178"><ele>186.5</ele><time>2026-04-14T17:21:29Z</time></trkpt><trkpt lat="45.59179734024082" lon="10.152178558649398"><ele>187.0</ele><time>2026-04-14T17:21:32Z</time></trkpt><trkpt lat="45.591858853623485" lon="10.152227274289727"><ele>187.0</ele><time>2026-04-14T17:21:35Z</time></trkpt><trkpt lat="45.591917266004366" lon="10.152291442254965"><ele>187.0</ele><time>2026-04-14T17:21:38Z</time></trkpt><trkpt lat="45.591996436271685" lon="10.152291192937628"><ele>187.0</ele><time>2026-04-14T17:21:41Z</time></trkpt><trkpt lat="45.5920661315474" lon="10.152287855473915"><ele>187.0</ele><time>2026-04-14T17:21:44Z</time></trkpt><trkpt lat="45.592140163173575" lon="10.152306065977186"><ele>187.0</ele><time>2026-04-14T17:21:47.001Z</time></trkpt><trkpt lat="45.59221089173922" lon="10.152347469595558"><ele>187.0</ele><time>2026-04-14T17:21:50Z</time></trkpt><trkpt lat="45.59224528948365" lon="10.15246901308632"><ele>186.0</ele><time>2026-04-14T17:21:53Z</time></trkpt><trkpt lat="45.592307872993935" lon="10.15255299507493"><ele>185.0</ele><time>2026-04-14T17:21:56Z</time></trkpt><trkpt lat="45.592383829919314" lon="10.152565347690999"><ele>184.0</ele><time>2026-04-14T17:21:59Z</time></trkpt><trkpt lat="45.59245553888575" lon="10.152562445689808"><ele>183.0</ele><time>2026-04-14T17:22:02Z</time></trkpt><trkpt lat="45.59252185949365" lon="10.15255991246296"><ele>182.0</ele><time>2026-04-14T17:22:05Z</time></trkpt><trkpt lat="45.59259471124271" lon="10.15260752285264"><ele>181.0</ele><time>2026-04-14T17:22:08Z</time></trkpt><trkpt lat="45.59267592244142" lon="10.152632047765419"><ele>181.0</ele><time>2026-04-14T17:22:11Z</time></trkpt><trkpt lat="45.59280758280667" lon="10.152629225699046"><ele>181.0</ele><time>2026-04-14T17:22:16Z</time></trkpt><trkpt lat="45.592886147093985" lon="10.152622229899592"><ele>181.0</ele><time>2026-04-14T17:22:19Z</time></trkpt><trkpt lat="45.592995405704215" lon="10.15262666758748"><ele>181.0</ele><time>2026-04-14T17:22:23Z</time></trkpt><trkpt lat="45.59306726553189" lon="10.15258280778359"><ele>181.0</ele><time>2026-04-14T17:22:26Z</time></trkpt><trkpt lat="45.59313474834232" lon="10.152544022649613"><ele>181.0</ele><time>2026-04-14T17:22:29Z</time></trkpt><trkpt lat="45.5932176868983" lon="10.152587295021423"><ele>181.0</ele><time>2026-04-14T17:22:32Z</time></trkpt><trkpt lat="45.59328559249677" lon="10.152581741277666"><ele>181.0</ele><time>2026-04-14T17:22:35Z</time></trkpt><trkpt lat="45.59334360118583" lon="10.15253330539067"><ele>181.0</ele><time>2026-04-14T17:22:38Z</time></trkpt><trkpt lat="45.59341824063183" lon="10.152529874930053"><ele>181.0</ele><time>2026-04-14T17:22:42Z</time></trkpt><trkpt lat="45.593463002658986" lon="10.152458176241444"><ele>181.0</ele><time>2026-04-14T17:22:47Z</time></trkpt><trkpt lat="45.59345373951068" lon="10.15232706824772"><ele>180.83333333333334</ele><time>2026-04-14T17:22:49Z</time></trkpt><trkpt lat="45.59343445562455" lon="10.152193063122324"><ele>180.66666666666669</ele><time>2026-04-14T17:22:51Z</time></trkpt><trkpt lat="45.593391560091874" lon="10.15208432068194"><ele>180.5</ele><time>2026-04-14T17:22:53Z</time></trkpt><trkpt lat="45.5933952202677" lon="10.151962052917673"><ele>180.33333333333334</ele><time>2026-04-14T17:22:56Z</time></trkpt><trkpt lat="45.59341293147886" lon="10.151867459180432"><ele>180.16666666666666</ele><time>2026-04-14T17:22:59Z</time></trkpt><trkpt lat="45.593465334836786" lon="10.151757999355851"><ele>180.0</ele><time>2026-04-14T17:23:02Z</time></trkpt><trkpt lat="45.59352324543109" lon="10.151671757183246"><ele>180.0</ele><time>2026-04-14T17:23:05Z</time></trkpt><trkpt lat="45.5935645928381" lon="10.151566300548609"><ele>180.0</ele><time>2026-04-14T17:23:08Z</time></trkpt><trkpt lat="45.59355575611472" lon="10.151455478413787"><ele>180.0</ele><time>2026-04-14T17:23:11Z</time></trkpt><trkpt lat="45.593573430323374" lon="10.151337823589651"><ele>180.0</ele><time>2026-04-14T17:23:14Z</time></trkpt><trkpt lat="45.5935912075054" lon="10.15123319606074"><ele>180.0</ele><time>2026-04-14T17:23:17Z</time></trkpt><trkpt lat="45.593610225077526" lon="10.151136129172476"><ele>180.0</ele><time>2026-04-14T17:23:20Z</time></trkpt><trkpt lat="45.593646151097886" lon="10.15103854269743"><ele>180.0</ele><time>2026-04-14T17:23:23Z</time></trkpt><trkpt lat="45.59367265160759" lon="10.150937768474856"><ele>180.0</ele><time>2026-04-14T17:23:26Z</time></trkpt><trkpt lat="45.59370928783065" lon="10.150836984722284"><ele>180.0</ele><time>2026-04-14T17:23:29Z</time></trkpt><trkpt lat="45.593740430703384" lon="10.150746715851145"><ele>180.0</ele><time>2026-04-14T17:23:32Z</time></trkpt><trkpt lat="45.593760646553505" lon="10.150652223610619"><ele>180.0</ele><time>2026-04-14T17:23:35Z</time></trkpt><trkpt lat="45.59378334060977" lon="10.150550888912088"><ele>180.0</ele><time>2026-04-14T17:23:38Z</time></trkpt><trkpt lat="45.59379977292258" lon="10.15044963017474"><ele>180.0</ele><time>2026-04-14T17:23:41Z</time></trkpt><trkpt lat="45.59380729978976" lon="10.150341324342575"><ele>180.28571428571428</ele><time>2026-04-14T17:23:44Z</time></trkpt><trkpt lat="45.593835239865264" lon="10.150246231478418"><ele>180.57142857142858</ele><time>2026-04-14T17:23:47Z</time></trkpt><trkpt lat="45.59386532771089" lon="10.150148871210893"><ele>180.85714285714286</ele><time>2026-04-14T17:23:50Z</time></trkpt><trkpt lat="45.59388139193486" lon="10.150044834174276"><ele>181.14285714285714</ele><time>2026-04-14T17:23:53Z</time></trkpt><trkpt lat="45.5939104961226" lon="10.149945519256999"><ele>181.42857142857144</ele><time>2026-04-14T17:23:56Z</time></trkpt><trkpt lat="45.59393838083101" lon="10.149843565145867"><ele>181.71428571428572</ele><time>2026-04-14T17:23:59Z</time></trkpt><trkpt lat="45.5939614146782" lon="10.149744290317802"><ele>182.0</ele><time>2026-04-14T17:24:02Z</time></trkpt><trkpt lat="45.5939839133542" lon="10.149643442593787"><ele>182.28571428571428</ele><time>2026-04-14T17:24:05Z</time></trkpt><trkpt lat="45.59401031373678" lon="10.149541379120368"><ele>182.57142857142856</ele><time>2026-04-14T17:24:08Z</time></trkpt><trkpt lat="45.59405282324834" lon="10.149459242963163"><ele>182.85714285714286</ele><time>2026-04-14T17:24:11Z</time></trkpt><trkpt lat="45.59409456947667" lon="10.149378450270602"><ele>183.14285714285714</ele><time>2026-04-14T17:24:14.001Z</time></trkpt><trkpt lat="45.59413122675347" lon="10.14929134292993"><ele>183.42857142857142</ele><time>2026-04-14T17:24:17Z</time></trkpt><trkpt lat="45.59418007083981" lon="10.149222796221444"><ele>183.71428571428572</ele><time>2026-04-14T17:24:20Z</time></trkpt><trkpt lat="45.59422057103005" lon="10.149140876709739"><ele>184.0</ele><time>2026-04-14T17:24:23Z</time></trkpt><trkpt lat="45.59424532177072" lon="10.149042563701952"><ele>184.2857142857143</ele><time>2026-04-14T17:24:26Z</time></trkpt><trkpt lat="45.59425261355919" lon="10.148946719345707"><ele>184.57142857142856</ele><time>2026-04-14T17:24:29Z</time></trkpt><trkpt lat="45.59427040771637" lon="10.148849787133319"><ele>184.85714285714286</ele><time>2026-04-14T17:24:32Z</time></trkpt><trkpt lat="45.594269364541844" lon="10.148746838206465"><ele>185.14285714285717</ele><time>2026-04-14T17:24:35Z</time></trkpt><trkpt lat="45.594279491329395" lon="10.14865572903841"><ele>185.42857142857144</ele><time>2026-04-14T17:24:38Z</time></trkpt><trkpt lat="45.59428172668146" lon="10.148561810452435"><ele>185.71428571428572</ele><time>2026-04-14T17:24:41Z</time></trkpt><trkpt lat="45.59430177521444" lon="10.14846136696587"><ele>186.0</ele><time>2026-04-14T17:24:44Z</time></trkpt><trkpt lat="45.59431605790132" lon="10.14835719975299"><ele>186.00000000000003</ele><time>2026-04-14T17:24:47Z</time></trkpt><trkpt lat="45.59432665737018" lon="10.148245823307525"><ele>186.0</ele><time>2026-04-14T17:24:50Z</time></trkpt><trkpt lat="45.594337164469565" lon="10.148149200773451"><ele>186.0</ele><time>2026-04-14T17:24:53Z</time></trkpt><trkpt lat="45.59434183714725" lon="10.148048379282242"><ele>186.0</ele><time>2026-04-14T17:24:56Z</time></trkpt><trkpt lat="45.594345331117744" lon="10.147944705940384"><ele>186.0</ele><time>2026-04-14T17:24:59Z</time></trkpt><trkpt lat="45.59435289269533" lon="10.147842576959672"><ele>186.00000000000003</ele><time>2026-04-14T17:25:02Z</time></trkpt><trkpt lat="45.59436451116247" lon="10.147739052165218"><ele>186.0</ele><time>2026-04-14T17:25:05Z</time></trkpt><trkpt lat="45.59437868536785" lon="10.147633968228673"><ele>185.42857142857144</ele><time>2026-04-14T17:25:08Z</time></trkpt><trkpt lat="45.59438392738249" lon="10.147531517537143"><ele>184.85714285714286</ele><time>2026-04-14T17:25:11Z</time></trkpt><trkpt lat="45.594394753267395" lon="10.147424176390608"><ele>184.28571428571428</ele><time>2026-04-14T17:25:14Z</time></trkpt><trkpt lat="45.59442906928106" lon="10.147333958118077"><ele>183.71428571428572</ele><time>2026-04-14T17:25:17Z</time></trkpt><trkpt lat="45.59449364609653" lon="10.147297157092163"><ele>183.14285714285714</ele><time>2026-04-14T17:25:20Z</time></trkpt><trkpt lat="45.594577874203196" lon="10.147311767656252"><ele>182.57142857142858</ele><time>2026-04-14T17:25:24Z</time></trkpt><trkpt lat="45.594644768301805" lon="10.147318975934109"><ele>182.0</ele><time>2026-04-14T17:25:27Z</time></trkpt><trkpt lat="45.594714854722426" lon="10.147336643801006"><ele>182.0</ele><time>2026-04-14T17:25:30Z</time></trkpt><trkpt lat="45.594782846476406" lon="10.147339153028296"><ele>182.0</ele><time>2026-04-14T17:25:33Z</time></trkpt><trkpt lat="45.59484574618789" lon="10.147347395526491"><ele>182.0</ele><time>2026-04-14T17:25:36Z</time></trkpt><trkpt lat="45.59491793402529" lon="10.14734568465691"><ele>182.0</ele><time>2026-04-14T17:25:39Z</time></trkpt><trkpt lat="45.59498615211971" lon="10.147363119244229"><ele>182.0</ele><time>2026-04-14T17:25:42Z</time></trkpt><trkpt lat="45.59505590739543" lon="10.147380911538566"><ele>182.0</ele><time>2026-04-14T17:25:45Z</time></trkpt><trkpt lat="45.59512457478636" lon="10.147379063765005"><ele>182.0</ele><time>2026-04-14T17:25:48Z</time></trkpt><trkpt lat="45.59519470602369" lon="10.14736357998592"><ele>182.0</ele><time>2026-04-14T17:25:51Z</time></trkpt><trkpt lat="45.59524751279051" lon="10.147294551952676"><ele>182.0</ele><time>2026-04-14T17:25:54Z</time></trkpt><trkpt lat="45.59525729888317" lon="10.147201814174705"><ele>182.0</ele><time>2026-04-14T17:25:57Z</time></trkpt><trkpt lat="45.5952456859239" lon="10.147106136157118"><ele>182.0</ele><time>2026-04-14T17:26:00Z</time></trkpt><trkpt lat="45.59524035008822" lon="10.147013631222931"><ele>182.0</ele><time>2026-04-14T17:26:03Z</time></trkpt><trkpt lat="45.59523438629866" lon="10.146914378638018"><ele>182.0</ele><time>2026-04-14T17:26:06.001Z</time></trkpt><trkpt lat="45.59522836482147" lon="10.146812892610509"><ele>182.0</ele><time>2026-04-14T17:26:09.001Z</time></trkpt><trkpt lat="45.595226879730426" lon="10.146719343543673"><ele>182.0</ele><time>2026-04-14T17:26:12.001Z</time></trkpt><trkpt lat="45.5952258529391" lon="10.146621120835574"><ele>182.0</ele><time>2026-04-14T17:26:15.001Z</time></trkpt><trkpt lat="45.595225752091665" lon="10.146525820760555"><ele>182.0</ele><time>2026-04-14T17:26:18.001Z</time></trkpt><trkpt lat="45.59521941357917" lon="10.146415626759886"><ele>182.0</ele><time>2026-04-14T17:26:21Z</time></trkpt><trkpt lat="45.5952171729562" lon="10.14631180681653"><ele>182.0</ele><time>2026-04-14T17:26:24Z</time></trkpt><trkpt lat="45.59520925637349" lon="10.146207870831219"><ele>182.0</ele><time>2026-04-14T17:26:27Z</time></trkpt><trkpt lat="45.5952021327901" lon="10.146109150697566"><ele>182.0</ele><time>2026-04-14T17:26:30Z</time></trkpt><trkpt lat="45.59519890100047" lon="10.14600597831095"><ele>181.14285714285714</ele><time>2026-04-14T17:26:33Z</time></trkpt><trkpt lat="45.595190578934805" lon="10.145909658681306"><ele>180.28571428571428</ele><time>2026-04-14T17:26:36Z</time></trkpt><trkpt lat="45.595179761672526" lon="10.14580104501565"><ele>179.42857142857144</ele><time>2026-04-14T17:26:39Z</time></trkpt><trkpt lat="45.595186154393076" lon="10.145699827498124"><ele>178.57142857142856</ele><time>2026-04-14T17:26:42Z</time></trkpt><trkpt lat="45.5951839218016" lon="10.145597273990418"><ele>177.71428571428572</ele><time>2026-04-14T17:26:45Z</time></trkpt><trkpt lat="45.5951863583349" lon="10.145492036073623"><ele>176.85714285714286</ele><time>2026-04-14T17:26:48Z</time></trkpt><trkpt lat="45.59518673904293" lon="10.145380731174459"><ele>176.0</ele><time>2026-04-14T17:26:51Z</time></trkpt><trkpt lat="45.595196350975606" lon="10.145279807930844"><ele>175.42857142857144</ele><time>2026-04-14T17:26:54Z</time></trkpt><trkpt lat="45.59519677923429" lon="10.145180860917389"><ele>174.85714285714286</ele><time>2026-04-14T17:26:57Z</time></trkpt><trkpt lat="45.5952079858218" lon="10.145080627801415"><ele>174.28571428571428</ele><time>2026-04-14T17:27:00Z</time></trkpt><trkpt lat="45.595218614206246" lon="10.144979118598997"><ele>173.71428571428572</ele><time>2026-04-14T17:27:03Z</time></trkpt><trkpt lat="45.59522869657158" lon="10.14487934278348"><ele>173.14285714285714</ele><time>2026-04-14T17:27:06Z</time></trkpt><trkpt lat="45.59525328232023" lon="10.144786367495616"><ele>172.57142857142858</ele><time>2026-04-14T17:27:09Z</time></trkpt><trkpt lat="45.59527662848945" lon="10.144689816123217"><ele>172.0</ele><time>2026-04-14T17:27:12Z</time></trkpt><trkpt lat="45.595300331025015" lon="10.144590055357565"><ele>171.71428571428572</ele><time>2026-04-14T17:27:15Z</time></trkpt><trkpt lat="45.595314826801086" lon="10.144497670288837"><ele>171.42857142857144</ele><time>2026-04-14T17:27:18Z</time></trkpt><trkpt lat="45.59534512990682" lon="10.144410462717463"><ele>171.14285714285717</ele><time>2026-04-14T17:27:21Z</time></trkpt><trkpt lat="45.595370509613836" lon="10.144319132279744"><ele>170.85714285714286</ele><time>2026-04-14T17:27:24Z</time></trkpt><trkpt lat="45.595390976139846" lon="10.14422176052292"><ele>170.57142857142856</ele><time>2026-04-14T17:27:27Z</time></trkpt><trkpt lat="45.59540892313857" lon="10.14412521626134"><ele>170.2857142857143</ele><time>2026-04-14T17:27:30Z</time></trkpt><trkpt lat="45.595443871220816" lon="10.144025578225067"><ele>170.0</ele><time>2026-04-14T17:27:33Z</time></trkpt><trkpt lat="45.59546642461858" lon="10.143938163794198"><ele>170.71428571428572</ele><time>2026-04-14T17:27:36Z</time></trkpt><trkpt lat="45.595492739602435" lon="10.143840788195543"><ele>171.42857142857142</ele><time>2026-04-14T17:27:39Z</time></trkpt><trkpt lat="45.59550604183049" lon="10.1437447100419"><ele>172.14285714285714</ele><time>2026-04-14T17:27:42Z</time></trkpt><trkpt lat="45.59553234268417" lon="10.143645811545912"><ele>172.85714285714286</ele><time>2026-04-14T17:27:45Z</time></trkpt><trkpt lat="45.59554577837693" lon="10.143542870584952"><ele>173.57142857142856</ele><time>2026-04-14T17:27:48Z</time></trkpt><trkpt lat="45.59556397991851" lon="10.143448913468633"><ele>174.28571428571428</ele><time>2026-04-14T17:27:51Z</time></trkpt><trkpt lat="45.59559370888484" lon="10.143352319519357"><ele>175.0</ele><time>2026-04-14T17:27:54Z</time></trkpt><trkpt lat="45.595618761961724" lon="10.14324857091216"><ele>174.14285714285714</ele><time>2026-04-14T17:27:57Z</time></trkpt><trkpt lat="45.595648405550904" lon="10.14314649621287"><ele>173.28571428571428</ele><time>2026-04-14T17:28:00.001Z</time></trkpt><trkpt lat="45.59567956943312" lon="10.143050442526063"><ele>172.42857142857144</ele><time>2026-04-14T17:28:03.001Z</time></trkpt><trkpt lat="45.59570184960448" lon="10.142964679189912"><ele>171.57142857142856</ele><time>2026-04-14T17:28:06.001Z</time></trkpt><trkpt lat="45.59572037091127" lon="10.142877594624263"><ele>170.71428571428572</ele><time>2026-04-14T17:28:09.001Z</time></trkpt><trkpt lat="45.59573194570975" lon="10.142765867877797"><ele>169.85714285714286</ele><time>2026-04-14T17:28:12.001Z</time></trkpt><trkpt lat="45.595740827081514" lon="10.142663115243131"><ele>169.0</ele><time>2026-04-14T17:28:15.001Z</time></trkpt><trkpt lat="45.59575537263092" lon="10.142562438617354"><ele>169.0</ele><time>2026-04-14T17:28:18.001Z</time></trkpt><trkpt lat="45.595765755486" lon="10.142454131730242"><ele>169.0</ele><time>2026-04-14T17:28:21.001Z</time></trkpt><trkpt lat="45.595764112308" lon="10.14234989819071"><ele>169.0</ele><time>2026-04-14T17:28:24.001Z</time></trkpt><trkpt lat="45.59576233148015" lon="10.142240769556306"><ele>169.0</ele><time>2026-04-14T17:28:27Z</time></trkpt><trkpt lat="45.59576044853551" lon="10.142130263712957"><ele>169.0</ele><time>2026-04-14T17:28:30Z</time></trkpt><trkpt lat="45.595758730427015" lon="10.14202085691941"><ele>169.0</ele><time>2026-04-14T17:28:33Z</time></trkpt><trkpt lat="45.59575885553159" lon="10.141905602276742"><ele>168.66666666666669</ele><time>2026-04-14T17:28:36Z</time></trkpt><trkpt lat="45.59575173312603" lon="10.141802178111067"><ele>168.33333333333334</ele><time>2026-04-14T17:28:39Z</time></trkpt><trkpt lat="45.59573354921414" lon="10.141672546612645"><ele>168.0</ele><time>2026-04-14T17:28:44Z</time></trkpt><trkpt lat="45.595712538679805" lon="10.14158747696606"><ele>167.66666666666666</ele><time>2026-04-14T17:28:46Z</time></trkpt><trkpt lat="45.59568360300075" lon="10.141484330160557"><ele>167.33333333333331</ele><time>2026-04-14T17:28:49Z</time></trkpt><trkpt lat="45.59565603373343" lon="10.141388430580355"><ele>167.0</ele><time>2026-04-14T17:28:52Z</time></trkpt><trkpt lat="45.59562304083658" lon="10.141282474024681"><ele>166.85714285714286</ele><time>2026-04-14T17:28:55Z</time></trkpt><trkpt lat="45.59559693807163" lon="10.14118597004392"><ele>166.71428571428572</ele><time>2026-04-14T17:28:58Z</time></trkpt><trkpt lat="45.59556742139002" lon="10.141079449866423"><ele>166.57142857142856</ele><time>2026-04-14T17:29:01Z</time></trkpt><trkpt lat="45.59554620600841" lon="10.140986204436722"><ele>166.42857142857144</ele><time>2026-04-14T17:29:04Z</time></trkpt><trkpt lat="45.59551608968774" lon="10.140898114705257"><ele>166.2857142857143</ele><time>2026-04-14T17:29:07Z</time></trkpt><trkpt lat="45.595497149613564" lon="10.140798603906479"><ele>166.14285714285714</ele><time>2026-04-14T17:29:10Z</time></trkpt><trkpt lat="45.595469473357745" lon="10.140700674036175"><ele>166.0</ele><time>2026-04-14T17:29:13Z</time></trkpt><trkpt lat="45.59545915887748" lon="10.140603995784828"><ele>165.66666666666669</ele><time>2026-04-14T17:29:16Z</time></trkpt><trkpt lat="45.59545967266853" lon="10.140493375886159"><ele>165.33333333333334</ele><time>2026-04-14T17:29:19Z</time></trkpt><trkpt lat="45.595471406260266" lon="10.140391717057936"><ele>165.0</ele><time>2026-04-14T17:29:22Z</time></trkpt><trkpt lat="45.5954587256713" lon="10.140284095560283"><ele>164.66666666666666</ele><time>2026-04-14T17:29:25Z</time></trkpt><trkpt lat="45.595446314717314" lon="10.140175928897422"><ele>164.33333333333331</ele><time>2026-04-14T17:29:28Z</time></trkpt><trkpt lat="45.59543205111319" lon="10.140062419895415"><ele>164.0</ele><time>2026-04-14T17:29:31Z</time></trkpt><trkpt lat="45.595424950354726" lon="10.139958557505249"><ele>164.16666666666666</ele><time>2026-04-14T17:29:34Z</time></trkpt><trkpt lat="45.59541520316818" lon="10.13986175429535"><ele>164.33333333333331</ele><time>2026-04-14T17:29:37Z</time></trkpt><trkpt lat="45.59541349247806" lon="10.139756049032874"><ele>164.5</ele><time>2026-04-14T17:29:40Z</time></trkpt><trkpt lat="45.59540660403093" lon="10.139642240515498"><ele>164.66666666666666</ele><time>2026-04-14T17:29:43Z</time></trkpt><trkpt lat="45.595414368285375" lon="10.139531681229734"><ele>164.83333333333334</ele><time>2026-04-14T17:29:46Z</time></trkpt><trkpt lat="45.595405085661994" lon="10.139420597067614"><ele>165.0</ele><time>2026-04-14T17:29:49Z</time></trkpt><trkpt lat="45.59539601868753" lon="10.1393195808624"><ele>165.00000000000003</ele><time>2026-04-14T17:29:52Z</time></trkpt><trkpt lat="45.59539315638537" lon="10.139215111625003"><ele>165.0</ele><time>2026-04-14T17:29:55Z</time></trkpt><trkpt lat="45.59537633531258" lon="10.13912380267006"><ele>165.0</ele><time>2026-04-14T17:29:58Z</time></trkpt><trkpt lat="45.59537393293582" lon="10.1390309488958"><ele>165.0</ele><time>2026-04-14T17:30:01Z</time></trkpt><trkpt lat="45.59536880037116" lon="10.138935590168341"><ele>165.0</ele><time>2026-04-14T17:30:04Z</time></trkpt><trkpt lat="45.595362756732214" lon="10.138840097100369"><ele>165.00000000000003</ele><time>2026-04-14T17:30:07Z</time></trkpt><trkpt lat="45.59531474843598" lon="10.138753245404903"><ele>165.0</ele><time>2026-04-14T17:30:10Z</time></trkpt><trkpt lat="45.595278997754264" lon="10.138661057719375"><ele>164.57142857142858</ele><time>2026-04-14T17:30:13Z</time></trkpt><trkpt lat="45.59526058641393" lon="10.138556040721095"><ele>164.14285714285714</ele><time>2026-04-14T17:30:16Z</time></trkpt><trkpt lat="45.59524251905966" lon="10.138456142522791"><ele>163.71428571428572</ele><time>2026-04-14T17:30:19Z</time></trkpt><trkpt lat="45.595231852992065" lon="10.138365151187514"><ele>163.28571428571428</ele><time>2026-04-14T17:30:22Z</time></trkpt><trkpt lat="45.59523494907778" lon="10.138254649609111"><ele>162.85714285714286</ele><time>2026-04-14T17:30:25Z</time></trkpt><trkpt lat="45.59523072728893" lon="10.13814869318404"><ele>162.42857142857144</ele><time>2026-04-14T17:30:28Z</time></trkpt><trkpt lat="45.59521671721498" lon="10.138045538092252"><ele>162.0</ele><time>2026-04-14T17:30:31Z</time></trkpt><trkpt lat="45.59521484364716" lon="10.137943757709685"><ele>162.0</ele><time>2026-04-14T17:30:34Z</time></trkpt><trkpt lat="45.595207560651424" lon="10.137853444842733"><ele>162.0</ele><time>2026-04-14T17:30:37Z</time></trkpt><trkpt lat="45.595211818812395" lon="10.137749030914938"><ele>162.0</ele><time>2026-04-14T17:30:40Z</time></trkpt><trkpt lat="45.59521321199157" lon="10.137654922106977"><ele>162.0</ele><time>2026-04-14T17:30:43Z</time></trkpt><trkpt lat="45.59521093116102" lon="10.137557643862705"><ele>162.0</ele><time>2026-04-14T17:30:46Z</time></trkpt><trkpt lat="45.59522004037645" lon="10.137465941088767"><ele>162.0</ele><time>2026-04-14T17:30:49Z</time></trkpt><trkpt lat="45.59522608398644" lon="10.137373486624213"><ele>162.0</ele><time>2026-04-14T17:30:52Z</time></trkpt><trkpt lat="45.59522982890957" lon="10.137280159125597"><ele>162.0</ele><time>2026-04-14T17:30:55Z</time></trkpt><trkpt lat="45.595244256624284" lon="10.137181675435292"><ele>162.0</ele><time>2026-04-14T17:30:58Z</time></trkpt><trkpt lat="45.59517467220826" lon="10.137121236156359"><ele>162.0</ele><time>2026-04-14T17:31:01Z</time></trkpt><trkpt lat="45.595102122574744" lon="10.137133743669255"><ele>162.0</ele><time>2026-04-14T17:31:04Z</time></trkpt><trkpt lat="45.59503403687018" lon="10.137126299317467"><ele>162.0</ele><time>2026-04-14T17:31:07Z</time></trkpt><trkpt lat="45.594960835668" lon="10.137102266398268"><ele>162.0</ele><time>2026-04-14T17:31:10Z</time></trkpt><trkpt lat="45.594892099513096" lon="10.137088224116223"><ele>162.0</ele><time>2026-04-14T17:31:13Z</time></trkpt><trkpt lat="45.59482447944354" lon="10.137091733609646"><ele>162.0</ele><time>2026-04-14T17:31:16Z</time></trkpt><trkpt lat="45.59474796583257" lon="10.137082095059036"><ele>162.0</ele><time>2026-04-14T17:31:20Z</time></trkpt><trkpt lat="45.594711173632895" lon="10.137008135605523"><ele>162.0</ele><time>2026-04-14T17:31:23Z</time></trkpt><trkpt lat="45.59468532176597" lon="10.136912110763959"><ele>162.0</ele><time>2026-04-14T17:31:26Z</time></trkpt><trkpt lat="45.59467286373934" lon="10.136815660105302"><ele>162.0</ele><time>2026-04-14T17:31:29Z</time></trkpt><trkpt lat="45.59466478387743" lon="10.136714979369527"><ele>162.0</ele><time>2026-04-14T17:31:32Z</time></trkpt><trkpt lat="45.59464783371899" lon="10.136620195444372"><ele>162.0</ele><time>2026-04-14T17:31:35Z</time></trkpt><trkpt lat="45.59464320492478" lon="10.136525384484209"><ele>162.28571428571428</ele><time>2026-04-14T17:31:38Z</time></trkpt><trkpt lat="45.594636500163595" lon="10.136434513062163"><ele>162.57142857142856</ele><time>2026-04-14T17:31:41Z</time></trkpt><trkpt lat="45.594635715876244" lon="10.136340375323783"><ele>162.85714285714283</ele><time>2026-04-14T17:31:44Z</time></trkpt><trkpt lat="45.5946336845951" lon="10.136244104618445"><ele>163.14285714285714</ele><time>2026-04-14T17:31:47Z</time></trkpt><trkpt lat="45.594616621503974" lon="10.136154023528109"><ele>163.42857142857142</ele><time>2026-04-14T17:31:50Z</time></trkpt><trkpt lat="45.59460249271063" lon="10.136053419957017"><ele>163.7142857142857</ele><time>2026-04-14T17:31:53Z</time></trkpt><trkpt lat="45.594603827609035" lon="10.135959460292842"><ele>164.0</ele><time>2026-04-14T17:31:56Z</time></trkpt><trkpt lat="45.594586052932186" lon="10.135869305176193"><ele>163.99999999999997</ele><time>2026-04-14T17:31:59Z</time></trkpt><trkpt lat="45.594574672444665" lon="10.135770251273303"><ele>164.0</ele><time>2026-04-14T17:32:02Z</time></trkpt><trkpt lat="45.59456140081215" lon="10.135677853567223"><ele>164.0</ele><time>2026-04-14T17:32:05Z</time></trkpt><trkpt lat="45.59454124439364" lon="10.135584229580807"><ele>164.0</ele><time>2026-04-14T17:32:08Z</time></trkpt><trkpt lat="45.5945342594641" lon="10.135486190046896"><ele>164.0</ele><time>2026-04-14T17:32:11Z</time></trkpt><trkpt lat="45.59450761619896" lon="10.135392240182576"><ele>163.99999999999997</ele><time>2026-04-14T17:32:14.001Z</time></trkpt><trkpt lat="45.59448855110927" lon="10.135303811156412"><ele>164.0</ele><time>2026-04-14T17:32:17.001Z</time></trkpt><trkpt lat="45.594465664874534" lon="10.135185326459368"><ele>163.7142857142857</ele><time>2026-04-14T17:32:21.001Z</time></trkpt><trkpt lat="45.59444595841183" lon="10.13509392507035"><ele>163.42857142857142</ele><time>2026-04-14T17:32:24.001Z</time></trkpt><trkpt lat="45.59441439350478" lon="10.135011362313001"><ele>163.14285714285714</ele><time>2026-04-14T17:32:27.001Z</time></trkpt><trkpt lat="45.59443512461205" lon="10.13491754970937"><ele>162.85714285714283</ele><time>2026-04-14T17:32:30.001Z</time></trkpt><trkpt lat="45.59446827587254" lon="10.134822793479312"><ele>162.57142857142856</ele><time>2026-04-14T17:32:33.001Z</time></trkpt><trkpt lat="45.594496807380665" lon="10.134731777528758"><ele>162.28571428571428</ele><time>2026-04-14T17:32:36.001Z</time></trkpt><trkpt lat="45.59450138704562" lon="10.13463730681126"><ele>162.0</ele><time>2026-04-14T17:32:39Z</time></trkpt><trkpt lat="45.59449670830566" lon="10.134530254782964"><ele>160.0</ele><time>2026-04-14T17:32:45Z</time></trkpt><trkpt lat="45.59455480525335" lon="10.134590640485309"><ele>164.0</ele><time>2026-04-14T17:33:20Z</time></trkpt><trkpt lat="45.59455480525335" lon="10.134590640485309"><ele>164.0</ele><time>2026-04-14T17:33:20Z</time></trkpt></trkseg></trk></gpx>